[[{"header":{"parameterUnit":"m.s-1","parameterCategory":1,"la1":30.6,"la2":28.766,"lo1":-90.7593,"lo2":-88.6598,"dy":0.0162,"dx":0.0183,"nx":116,"ny":114,"refTime":"2023-07-23T18:00:00:Z","depth":0,"parameterNumber":2,"parameterNumberName":"U-component_of_WINDS"},"data":[0.0,0.0,0.0,0.0,0.0,0.0,0.0,0.0,0.0,0.0,0.0,0.0,0.0,0.0,0.0,0.0,0.0,0.0,0.0,0.0,0.0,0.0,0.0,0.0,0.0,0.0,0.0,0.0,0.0,0.0,0.0,0.0,0.0,0.0,0.0,0.0,0.0,0.0,0.0,0.0,0.0,0.0,0.0,0.0,0.0,0.0,0.0,0.0,0.0,0.0,0.0,0.0,0.0,0.0,0.0,0.0,0.0,0.0,0.0,0.0,0.0,0.0,0.0,0.0,0.0,0.0,0.0,0.0,0.0,0.0,0.0,0.0,0.0,0.0,0.0,0.0,0.0,0.0,0.0,0.0,0.0,0.0,0.0,0.0,0.0,0.0,0.0,0.0,0.0,0.0,0.0,0.0,0.0,0.0,0.0,0.0,0.0,0.0,0.0,0.0,0.0,0.0,0.0,0.0,0.0,0.0,0.0,0.0,0.0,0.0,0.0,0.0,0.0,0.0,0.0,0.0,0.0,0.0,0.0,0.0,0.0,0.0,0.0,0.0,0.0,0.0,0.0,0.0,0.0,0.0,0.0,0.0,0.0,0.0,0.0,0.0,0.0,0.0,0.0,0.0,0.0,0.0,0.0,0.0,0.0,0.0,0.0,0.0,0.0,0.0,0.0,0.0,0.0,0.0,0.0,0.0,0.0,0.0,0.0,0.0,0.0,0.0,0.0,0.0,0.0,0.0,0.0,0.0,0.0,0.0,0.0,0.0,0.0,0.0,0.0,0.0,0.0,0.0,0.0,0.0,0.0,0.0,0.0,0.0,0.0,0.0,0.0,0.0,0.0,0.0,0.0,0.0,0.0,0.0,0.0,0.0,0.0,0.0,0.0,0.0,0.0,0.0,0.0,0.0,0.0,0.0,0.0,0.0,0.0,0.0,0.0,0.0,0.0,0.0,0.0,0.0,0.0,0.0,0.0,0.0,0.0,0.0,0.0,0.0,0.0,0.0,0.0,0.0,0.0,0.0,0.0,0.0,0.0,0.0,0.0,0.0,0.0,0.0,0.0,0.0,0.0,0.0,0.0,0.0,0.0,0.0,0.0,0.0,0.0,0.0,0.0,0.0,0.0,0.0,0.0,0.0,0.0,0.0,0.0,0.0,0.0,0.0,0.0,0.0,0.0,0.0,0.0,0.0,0.0,0.0,0.0,0.0,0.0,0.0,0.0,0.0,0.0,0.0,0.0,0.0,0.0,0.0,0.0,0.0,0.0,0.0,0.0,0.0,0.0,0.0,0.0,0.0,0.0,0.0,0.0,0.0,0.0,0.0,0.0,0.0,0.0,0.0,0.0,0.0,0.0,0.0,0.0,0.0,0.0,0.0,0.0,0.0,0.0,0.0,0.0,0.0,0.0,0.0,0.0,0.0,0.0,0.0,0.0,0.0,0.0,0.0,0.0,0.0,0.0,0.0,0.0,0.0,0.0,0.0,0.0,0.0,0.0,0.0,0.0,0.0,0.0,0.0,0.0,0.0,0.0,0.0,0.0,0.0,0.0,0.0,0.0,0.0,0.0,0.0,0.0,0.0,0.0,0.0,0.0,0.0,0.0,0.0,0.0,0.0,0.0,0.0,0.0,0.0,0.0,0.0,0.0,0.0,0.0,0.0,0.0,0.0,0.0,0.0,0.0,0.0,0.0,0.0,0.0,0.0,0.0,0.0,0.0,0.0,0.0,0.0,0.0,0.0,0.0,0.0,0.0,0.0,0.0,0.0,0.0,0.0,0.0,0.0,0.0,0.0,0.0,0.0,0.0,0.0,0.0,0.0,0.0,0.0,0.0,0.0,0.0,0.0,0.0,0.0,0.0,0.0,0.0,0.0,0.0,0.0,0.0,0.0,0.0,0.0,0.0,0.0,0.0,0.0,0.0,0.0,0.0,0.0,0.0,0.0,0.0,0.0,0.0,0.0,0.0,0.0,0.0,0.0,0.0,0.0,0.0,0.0,0.0,0.0,0.0,0.0,0.0,0.0,0.0,0.0,0.0,0.0,0.0,0.0,0.0,0.0,0.0,0.0,0.0,0.0,0.0,0.0,0.0,0.0,0.0,0.0,0.0,0.0,0.0,0.0,0.0,0.0,0.0,0.0,0.0,0.0,0.0,0.0,0.0,0.0,0.0,0.0,0.0,0.0,0.0,0.0,0.0,0.0,0.0,0.0,0.0,0.0,0.0,0.0,0.0,0.0,0.0,0.0,0.0,0.0,0.0,0.0,0.0,0.0,0.0,0.0,0.0,0.0,0.0,0.0,0.0,0.0,0.0,0.0,0.0,0.0,0.0,0.0,0.0,0.0,0.0,0.0,0.0,0.0,0.0,0.0,0.0,0.0,0.0,0.0,0.0,0.0,0.0,0.0,0.0,0.0,0.0,0.0,0.0,0.0,0.0,0.0,0.0,0.0,0.0,0.0,0.0,0.0,0.0,0.0,0.0,0.0,0.0,0.0,0.0,0.0,0.0,0.0,0.0,0.0,0.0,0.0,0.0,0.0,0.0,0.0,0.0,0.0,0.0,0.0,0.0,0.0,0.0,0.0,0.0,0.0,0.0,0.0,0.0,0.0,0.0,0.0,0.0,0.0,0.0,0.0,0.0,0.0,0.0,0.0,0.0,0.0,0.0,0.0,0.0,0.0,0.0,0.0,0.0,0.0,0.0,0.0,0.0,0.0,0.0,0.0,0.0,0.0,0.0,0.0,0.0,0.0,0.0,0.0,0.0,0.0,0.0,0.0,0.0,0.0,0.0,0.0,0.0,0.0,0.0,0.0,0.0,0.0,0.0,0.0,0.0,0.0,0.0,0.0,0.0,0.0,0.0,0.0,0.0,0.0,0.0,0.0,0.0,0.0,0.0,0.0,0.0,0.0,0.0,0.0,0.0,0.0,0.0,0.0,0.0,0.0,0.0,0.0,0.0,0.0,0.0,0.0,0.0,0.0,0.0,0.0,0.0,0.0,0.0,0.0,0.0,0.0,0.0,0.0,0.0,0.0,0.0,0.0,0.0,0.0,0.0,0.0,0.0,0.0,0.0,0.0,0.0,0.0,0.0,0.0,0.0,0.0,0.0,0.0,0.0,0.0,0.0,0.0,0.0,0.0,0.0,0.0,0.0,0.0,0.0,0.0,0.0,0.0,0.0,0.0,0.0,0.0,0.0,0.0,0.0,0.0,0.0,0.0,0.0,0.0,0.0,0.0,0.0,0.0,0.0,0.0,0.0,0.0,0.0,0.0,0.0,0.0,0.0,0.0,0.0,0.0,0.0,0.0,0.0,0.0,0.0,0.0,0.0,0.0,0.0,0.0,0.0,0.0,0.0,0.0,0.0,0.0,0.0,0.0,0.0,0.0,0.0,0.0,0.0,0.0,0.0,0.0,0.0,0.0,0.0,0.0,0.0,0.0,0.0,0.0,0.0,0.0,0.0,0.0,0.0,0.0,0.0,0.0,0.0,0.0,0.0,0.0,0.0,0.0,0.0,0.0,0.0,0.0,0.0,0.0,0.0,0.0,0.0,0.0,0.0,0.0,0.0,0.0,0.0,0.0,0.0,0.0,0.0,0.0,0.0,0.0,0.0,0.0,0.0,0.0,0.0,0.0,0.0,0.0,0.0,0.0,0.0,0.0,0.0,0.0,0.0,0.0,0.0,0.0,0.0,0.0,0.0,0.0,0.0,0.0,0.0,0.0,0.0,0.0,0.0,0.0,0.0,0.0,0.0,0.0,0.0,0.0,0.0,0.0,0.0,0.0,0.0,0.0,0.0,0.0,0.0,0.0,0.0,0.0,0.0,0.0,0.0,0.0,0.0,0.0,0.0,0.0,0.0,0.0,0.0,0.0,0.0,0.0,0.0,0.0,0.0,0.0,0.0,0.0,0.0,0.0,0.0,0.0,0.0,0.0,0.0,0.0,0.0,0.0,0.0,0.0,0.0,0.0,0.0,0.0,0.0,0.0,0.0,0.0,0.0,0.0,0.0,0.0,0.0,0.0,0.0,0.0,0.0,0.0,0.0,0.0,0.0,0.0,0.0,0.0,0.0,0.0,0.0,0.0,0.0,0.0,0.0,0.0,0.0,0.0,0.0,0.0,0.0,0.0,0.0,0.0,0.0,0.0,0.0,0.0,0.0,0.0,0.0,0.0,0.0,0.0,0.0,0.0,0.0,0.0,0.0,0.0,0.0,0.0,0.0,0.0,0.0,0.0,0.0,0.0,0.0,0.0,0.0,0.0,0.0,0.0,0.0,0.0,0.0,0.0,0.0,0.0,0.0,0.0,0.0,0.0,0.0,0.0,0.0,0.0,0.0,0.0,0.0,0.0,0.0,0.0,0.0,0.0,0.0,0.0,0.0,0.0,0.0,0.0,0.0,0.0,0.0,0.0,0.0,0.0,0.0,0.0,0.0,0.0,0.0,0.0,0.0,0.0,0.0,0.0,0.0,0.0,0.0,0.0,0.0,0.0,0.0,0.0,0.0,0.0,0.0,0.0,0.0,0.0,0.0,0.0,0.0,0.0,0.0,0.0,0.0,0.0,0.0,0.0,0.0,0.0,0.0,0.0,0.0,0.0,0.0,0.0,0.0,0.0,0.0,0.0,0.0,0.0,0.0,0.0,0.0,0.0,0.0,0.0,0.0,0.0,0.0,0.0,0.0,0.0,0.0,0.0,0.0,0.0,0.0,0.0,0.0,0.0,0.0,0.0,0.0,0.0,0.0,0.0,0.0,0.0,0.0,0.0,0.0,0.0,0.0,0.0,0.0,0.0,0.0,0.0,0.0,0.0,0.0,0.0,0.0,0.0,0.0,0.0,0.0,0.0,0.0,0.0,0.0,0.0,0.0,0.0,0.0,0.0,0.0,0.0,0.0,0.0,0.0,0.0,0.0,0.0,0.0,0.0,0.0,0.0,0.0,0.0,0.0,0.0,0.0,0.0,0.0,0.0,0.0,0.0,0.0,0.0,0.0,0.0,0.0,0.0,0.0,0.0,0.0,0.0,0.0,0.0,0.0,0.0,0.0,0.0,0.0,0.0,0.0,0.0,0.0,0.0,0.0,0.0,0.0,0.0,0.0,0.0,0.0,0.0,0.0,0.0,0.0,0.0,0.0,0.0,0.0,0.0,0.0,0.0,0.0,0.0,0.0,0.0,0.0,0.0,0.0,0.0,0.0,0.0,0.0,0.0,0.0,0.0,0.0,0.0,0.0,0.0,0.0,0.0,0.0,0.0,0.0,0.0,0.0,0.0,0.0,0.0,0.0,0.0,0.0,0.0,0.0,0.0,0.0,0.0,0.0,0.0,0.0,0.0,0.0,0.0,0.0,0.0,0.0,0.0,0.0,0.0,0.0,0.0,0.0,0.0,0.0,0.0,0.0,0.0,0.0,0.0,0.0,0.0,0.0,0.0,0.0,0.0,0.0,0.0,0.0,0.0,0.0,0.0,0.0,0.0,0.0,0.0,0.0,0.0,0.0,0.0,0.0,0.0,0.0,0.0,0.0,0.0,0.0,0.0,0.0,0.0,0.0,0.0,0.0,0.0,0.0,0.0,0.0,0.0,0.0,0.0,0.0,0.0,0.0,0.0,0.0,0.0,0.0,0.0,0.0,0.0,0.0,0.0,0.0,0.0,0.0,0.0,0.0,0.0,0.0,0.0,0.0,0.0,0.0,0.0,0.0,0.0,0.0,0.0,0.0,0.0,0.0,0.0,0.0,0.0,0.0,0.0,0.0,0.0,0.0,0.0,0.0,0.0,0.0,0.0,0.0,0.0,0.0,0.0,0.0,0.0,0.0,0.0,0.0,0.0,0.0,0.0,0.0,0.0,0.0,0.0,0.0,0.0,0.0,0.0,0.0,0.0,0.0,0.0,0.0,0.0,0.0,0.0,0.0,0.0,0.0,0.0,0.0,0.0,0.0,0.0,0.0,0.0,0.0,0.0,0.0,0.0,0.0,0.0,0.0,0.0,0.0,0.0,0.0,0.0,0.0,0.0,0.0,0.0,0.0,0.0,0.0,0.0,0.0,0.0,0.0,0.0,0.0,0.0,0.0,0.0,0.0,0.0,0.0,0.0,0.0,0.0,0.0,0.0,0.6858,0.6588,0.0,0.0,0.0,0.0,0.0,0.0,0.0,0.0,0.0,0.0,0.0,0.0,0.0,0.0,0.0,0.0,0.0,0.0,0.0,0.0,0.0,0.0,0.0,0.0,0.0,0.0,0.0,0.0,0.0,0.0,0.0,0.0,0.0,0.0,0.0,0.0,0.0,0.0,0.0,0.0,0.0,0.0,0.0,0.0,0.0,0.0,0.0,0.0,0.0,0.0,0.0,0.0,0.0,0.0,0.0,0.0,0.0,0.0,0.0,0.0,0.0,0.0,0.0,0.0,0.0,0.0,0.0,0.0,0.0,0.0,0.0,0.0,0.0,0.0,0.0,0.0,0.0,0.0,0.0,0.0,0.0,0.0,0.0,0.0,0.0,0.0,0.0,0.0,0.0,0.0,0.0,0.0,0.0,0.0,0.0,0.0,0.0,0.0,0.0,0.0,0.0,0.0,0.0,0.0,0.0,0.0,0.0,0.0,0.0,0.0,0.0,0.0,0.0,0.0,0.0,0.7316,0.0,0.0,0.0,0.0,0.0,0.0,0.0,0.0,0.0,0.0,0.0,0.0,0.0,0.0,0.0,0.0,0.0,0.0,0.0,0.0,0.0,0.0,0.0,0.0,0.0,0.0,0.0,0.0,0.0,0.0,0.0,0.0,0.0,0.0,0.0,0.0,0.0,0.0,0.0,0.0,0.0,0.0,0.0,0.0,0.0,0.0,0.0,0.0,0.0,0.0,0.0,0.0,0.0,0.0,0.0,0.0,0.0,0.0,0.0,0.0,0.0,0.0,0.0,0.0,0.0,0.0,0.0,0.0,0.0,0.0,0.0,0.0,0.0,0.0,0.0,0.0,0.0,0.0,0.0,0.0,0.0,0.0,0.0,0.0,0.0,0.0,0.0,0.0,0.0,0.0,0.0,0.0,0.0,0.0,0.0,0.0,0.0,0.0,0.0,0.0,0.0,0.0,0.0,0.0,0.0,0.0,0.0,0.0,0.7589,0.7503,0.6804,0.7429,0.7369,0.6831,0.7423,0.8049,0.8566,0.7937,0.0,0.0,0.0,0.0,0.0,0.0,0.0,0.0,0.0,0.0,0.0,0.0,0.0,0.0,0.0,0.0,0.0,0.0,0.0,0.0,0.0,0.0,0.0,0.0,0.0,0.0,0.0,0.0,0.0,0.0,0.0,0.0,0.0,0.0,0.0,0.0,0.0,0.0,1.1811,1.221,1.2372,1.2282,0.0,0.0,0.0,0.0,0.0,0.0,0.0,0.0,0.0,0.0,0.0,0.0,0.0,0.0,0.0,0.0,0.0,0.0,0.0,0.0,0.0,0.0,0.0,0.0,0.0,0.0,0.0,0.0,0.0,0.0,0.0,0.0,0.0,0.0,0.0,0.0,0.0,0.0,0.0,0.0,0.0,0.0,0.0,0.0,0.8804,0.8804,0.0,0.0,0.0,0.0,0.0,0.0,0.0,0.0,0.0,0.0,0.0,0.0,0.0,0.8646,0.8646,0.8646,0.8613,0.8507,0.8619,0.8262,0.7563,0.767,0.7643,0.7563,0.767,0.0,0.783,0.775,0.0,0.0,0.0,0.0,0.0,0.0,0.0,0.0,0.0,0.0,0.0,0.0,0.0,0.0,0.0,0.0,0.0,0.0,0.0,0.0,0.0,0.0,0.0,0.0,0.0,0.0,0.0,0.0,0.0,0.0,0.0,0.0,0.0,0.0,0.0,0.0,1.091,1.1813,1.2597,1.2803,1.289,1.289,1.2685,1.2282,1.1792,1.1792,0.0,0.0,0.0,0.0,0.0,0.0,0.0,0.0,0.0,0.0,0.0,0.0,0.0,0.0,0.0,0.0,0.0,0.0,0.0,0.0,0.0,0.0,0.0,0.0,0.0,0.0,0.0,0.0,0.0,0.0,0.0,0.0,0.0,0.0,0.0,0.0,0.0,0.0,0.0,0.8804,0.8804,0.8804,0.8804,0.8804,0.0,0.0,0.0,0.0,0.0,0.0,0.0,0.0,0.0,0.8804,0.8401,0.8182,0.8182,0.8182,0.7969,0.7563,0.799,0.7803,0.7101,0.7503,0.7696,0.7723,0.8129,0.8315,0.8315,0.8315,0.8507,0.8804,0.0,0.0,0.0,0.0,0.8804,0.8804,0.0,0.0,0.0,0.0,0.0,0.0,0.0,0.0,0.0,0.0,0.0,0.0,0.0,0.0,0.0,0.0,0.0,0.0,0.0,0.0,0.0,0.0,0.0,0.0,0.0,0.0,0.0,0.0,1.1327,1.2029,1.2843,1.296,1.3082,1.3198,1.3198,1.282,1.2156,1.2156,1.2084,0.0,0.0,0.0,0.0,0.0,0.0,0.0,0.0,0.0,0.0,0.0,0.0,0.0,0.0,0.0,0.0,0.0,0.0,0.0,0.0,0.0,0.0,0.0,0.0,0.0,0.0,0.0,0.0,0.0,0.0,0.0,0.0,0.0,0.0,0.0,0.0,0.0,0.0,0.8804,0.8804,0.8804,0.8804,0.8804,0.0,0.0,0.0,0.0,0.0,0.0,0.8804,0.8804,0.8804,0.8804,0.8268,0.799,0.799,0.799,0.7696,0.7182,0.7723,0.7696,0.7182,0.7723,0.799,0.8017,0.856,0.8804,0.8804,0.8804,0.8699,0.8507,0.8507,0.8507,0.8507,0.8507,0.8646,0.8804,0.0,0.0,0.0,0.0,0.0,0.0,0.0,0.0,0.0,0.0,0.0,0.0,0.0,0.0,0.0,0.0,0.0,0.0,0.0,0.0,0.0,0.0,0.0,0.0,0.0,0.0,0.0,1.0332,1.0821,1.1338,1.1884,1.2318,1.2773,1.3198,1.3198,1.3163,1.3129,1.3129,1.2873,1.2473,0.0,0.0,0.0,0.0,0.0,0.0,0.0,0.0,0.0,0.0,0.0,0.0,0.0,0.0,0.0,0.0,0.0,0.0,0.0,0.0,0.0,0.0,0.0,0.0,0.0,0.0,0.0,0.0,0.0,0.0,0.0,0.0,0.0,0.0,0.0,0.0,0.0,0.0,0.0,0.8804,0.8804,0.0,0.0,0.0,0.0,0.8804,0.8804,0.8804,0.8804,0.8804,0.8804,0.8804,0.8752,0.8752,0.8752,0.8752,0.8725,0.8699,0.8725,0.8725,0.8699,0.8725,0.8752,0.8752,0.8778,0.8804,0.8804,0.8804,0.8401,0.775,0.775,0.775,0.775,0.775,0.8209,0.8804,0.0,0.0,0.0,0.0,0.0,0.0,0.0,0.0,0.0,0.0,0.0,0.0,0.0,0.0,0.0,0.0,0.0,0.0,0.0,0.0,0.0,0.0,0.0,0.0,0.0,0.0,1.0438,1.1274,1.1442,1.192,1.2703,1.2873,1.303,1.3198,1.3198,1.3198,1.3198,1.3198,1.3112,1.2925,1.2615,1.2282,0.0,0.0,0.0,0.0,0.0,0.0,0.0,0.0,0.0,0.0,0.0,0.0,0.0,0.0,0.0,0.0,0.0,0.0,0.0,0.0,0.0,0.0,0.0,0.0,0.0,0.0,0.0,0.0,0.0,0.0,0.0,0.0,0.0,0.0,0.0,0.0,0.0,0.8752,0.8804,0.0,0.8804,0.8804,0.8804,0.8804,0.8804,0.8804,0.8804,0.8804,0.8804,0.8804,0.8804,0.8804,0.8804,0.8804,0.8804,0.8804,0.8804,0.8804,0.8804,0.8804,0.8804,0.8804,0.8804,0.8804,0.8804,0.8804,0.8646,0.8401,0.8401,0.8401,0.8401,0.8401,0.856,0.8804,0.0,0.0,0.0,0.0,0.0,0.0,0.0,0.0,0.0,0.0,0.0,0.0,0.0,0.0,0.0,0.0,0.0,0.0,0.0,0.0,0.0,0.0,0.0,0.0,0.0,1.0303,1.064,1.1292,1.1292,1.1781,1.272,1.272,1.289,1.3198,1.3198,1.3198,1.3198,1.3198,1.3198,1.3163,1.2873,1.2632,1.2449,0.0,0.0,0.0,0.0,0.0,0.0,0.0,0.0,0.0,0.0,0.0,0.0,0.0,0.0,0.0,0.0,0.0,0.0,0.0,0.0,0.0,0.0,0.0,0.0,0.0,0.0,0.0,0.0,0.0,0.0,0.0,0.0,0.0,0.0,0.8209,0.8262,0.8752,0.8593,0.8533,0.8778,0.856,0.8533,0.8785,0.8804,0.8804,0.8804,0.8804,0.8804,0.8804,0.8804,0.8804,0.8804,0.8804,0.8804,0.8804,0.8804,0.8804,0.8804,0.8804,0.8804,0.8804,0.8804,0.8804,0.8804,0.8804,0.8804,0.8778,0.8533,0.8427,0.8427,0.8427,0.8593,0.8804,0.0,0.0,0.0,0.0,0.0,0.0,0.0,0.0,0.0,0.0,0.0,0.0,0.0,0.0,0.0,0.0,0.0,0.0,0.0,0.0,0.0,0.0,0.0,0.0,1.0303,1.0303,1.0322,1.0341,1.0341,1.0859,1.1847,1.1847,1.2318,1.3198,1.3198,1.3198,1.3198,1.3198,1.3198,1.3198,1.3198,1.2938,1.2597,0.0,0.0,0.0,0.0,0.0,0.0,0.0,0.0,0.0,0.0,0.0,0.0,0.0,0.0,0.0,0.0,0.0,0.0,0.0,0.0,0.0,0.0,0.0,0.0,0.0,0.0,0.0,0.0,0.0,0.0,0.0,0.0,0.0,0.7477,0.8268,0.8699,0.8725,0.8103,0.7937,0.8672,0.8103,0.7996,0.8725,0.8778,0.8804,0.8804,0.8804,0.8804,0.8804,0.8804,0.8804,0.8804,0.8804,0.8804,0.8804,0.8804,0.8804,0.8804,0.8804,0.8804,0.8804,0.8804,0.8804,0.8804,0.8804,0.8804,0.8725,0.8017,0.7723,0.7723,0.7723,0.8182,0.8804,0.0,0.0,0.0,0.0,0.0,0.0,0.0,0.0,0.0,0.0,0.0,0.0,0.0,0.0,0.0,0.0,0.0,0.0,0.0,0.0,0.0,0.0,0.0,0.0,1.0303,1.0303,1.0659,1.1386,1.1386,1.1884,1.282,1.282,1.2943,1.3198,1.3198,1.3198,1.3198,1.3198,1.3198,1.3198,1.3198,1.3383,1.3624,0.0,0.0,0.0,0.0,0.0,0.0,0.0,0.0,0.0,0.0,0.0,0.0,0.0,0.0,0.0,0.0,0.0,0.0,0.0,0.0,0.0,0.0,0.0,0.0,0.0,0.0,0.0,0.0,0.0,0.0,0.0,0.6421,0.6448,0.6858,0.6605,0.66,0.7128,0.702,0.6993,0.7182,0.7503,0.7777,0.799,0.8507,0.8804,0.8804,0.8804,0.8804,0.8804,0.8804,0.8804,0.8804,0.8804,0.8804,0.8804,0.8804,0.8804,0.8804,0.8804,0.8804,0.8804,0.8804,0.8804,0.8804,0.8804,0.8804,0.8785,0.8586,0.8507,0.8507,0.8507,0.8619,0.8804,0.0,0.0,0.0,0.0,0.0,0.0,0.0,0.0,0.0,0.0,0.0,0.0,0.0,0.0,0.0,0.0,0.0,0.0,0.0,0.0,0.0,0.0,0.0,1.0273,1.0592,1.0802,1.1217,1.1792,1.1792,1.2174,1.2908,1.2908,1.3012,1.3198,1.3198,1.3198,1.3223,1.3483,1.3584,1.3596,1.3822,1.3991,1.4117,1.4246,1.4457,1.4574,1.3994,1.371,1.3586,1.3065,0.0,0.0,0.0,0.0,0.0,0.0,0.0,0.0,0.0,0.0,0.0,0.0,0.0,0.0,0.0,0.0,0.0,0.0,0.0,0.0,0.0,0.0,0.0,0.0,0.5719,0.5719,0.5719,0.585,0.6118,0.6561,0.6588,0.6723,0.702,0.7573,0.8024,0.8296,0.8852,0.9118,0.8971,0.8958,0.8904,0.8811,0.8804,0.8804,0.8804,0.8804,0.8804,0.8804,0.8804,0.8804,0.8804,0.8804,0.8804,0.8804,0.8804,0.8804,0.8804,0.8804,0.8804,0.0,0.0,0.0,0.0,0.0,0.8804,0.8804,0.0,0.0,0.0,0.0,0.0,0.0,0.0,0.0,0.0,0.0,0.0,0.0,0.0,0.0,0.0,0.0,0.0,0.0,0.0,0.0,0.0,0.9696,1.0514,1.1038,1.1094,1.156,1.1829,1.1884,1.1884,1.212,1.2579,1.2579,1.2791,1.3198,1.3261,1.3303,1.3341,1.3946,1.4191,1.4242,1.4777,1.4714,1.4374,1.5349,1.569,1.5604,1.5013,1.4721,1.4433,1.3358,0.0,0.0,0.0,0.0,0.0,0.0,0.0,0.0,0.0,0.0,0.0,0.0,0.0,0.0,0.0,0.0,0.0,0.0,0.0,0.0,0.0,0.0,0.0,0.0,0.456,0.4515,0.4515,0.5605,0.6407,0.6383,0.648,0.6822,0.7454,0.7961,0.8496,0.909,0.9475,0.9566,0.9277,0.9264,0.0,0.0,0.0,0.8905,0.8905,0.8905,0.8891,0.8858,0.8858,0.8838,0.8804,0.8804,0.8804,0.8804,0.8804,0.8804,0.8804,0.8804,0.8804,0.8804,0.8804,0.8804,0.8804,0.8804,0.8831,0.8858,0.0,0.0,0.0,0.0,0.0,0.0,0.0,0.0,0.0,0.0,0.0,0.0,0.0,0.0,0.0,0.0,0.0,0.0,0.0,0.0,1.0428,1.0705,1.0905,1.1207,1.1645,1.1756,1.1993,1.2354,1.2354,1.2597,1.3047,1.3047,1.3112,1.3223,1.3715,1.3934,1.3959,1.4513,1.4752,1.4783,1.5336,1.5467,1.5412,1.5618,1.5673,1.561,1.5463,1.4801,1.3933,1.3708,1.331,1.2905,1.2905,0.0,0.0,0.0,0.0,0.0,0.0,0.0,0.0,0.0,0.0,0.0,0.0,0.0,0.0,0.0,0.0,0.0,0.0,0.0,0.0,0.5246,0.4952,0.4646,0.4646,0.4987,0.5196,0.5088,0.5793,0.6348,0.6465,0.7712,0.8562,0.8707,0.9321,0.9659,0.9599,0.9599,0.9573,0.9519,0.9512,0.9512,0.9512,0.9512,0.9392,0.9131,0.0,0.0,0.8804,0.8804,0.8804,0.8804,0.8804,0.8804,0.8804,0.8804,0.8804,0.8804,0.8804,0.8804,0.8804,0.8804,0.8931,0.9131,0.0,0.0,0.0,0.0,0.0,0.0,0.0,0.0,0.0,0.0,0.0,0.0,0.0,0.0,0.0,0.0,0.0,0.0,0.0,1.0525,1.0745,1.1,1.1475,1.1872,1.2138,1.2383,1.2615,1.2855,1.2855,1.3113,1.3647,1.3647,1.3785,1.4061,1.4356,1.45,1.4538,1.5072,1.5299,1.5349,1.5881,1.6107,1.6065,1.5766,1.5635,1.5521,1.4926,1.4318,1.3755,1.3443,1.3152,1.2905,1.2905,1.2642,1.2138,0.0,0.0,0.0,0.0,0.0,0.0,0.0,0.0,0.0,0.0,0.0,0.0,0.0,0.0,0.5441,0.5058,0.0,0.5133,0.5104,0.4933,0.4806,0.4806,0.4901,0.4938,0.4823,0.596,0.6754,0.6754,0.833,0.9351,0.9351,0.9853,1.009,0.9907,0.99,0.9833,0.9715,0.9715,0.9715,0.9715,0.9715,0.9613,0.9459,0.9459,0.9385,0.9245,0.9245,0.9245,0.9245,0.9245,0.9245,0.9245,0.9245,0.9158,0.9011,0.9185,0.9158,0.8998,0.8998,0.9184,0.9459,0.0,0.0,0.0,0.0,0.0,0.0,0.0,0.0,0.0,0.0,0.0,0.0,0.0,0.0,0.0,0.0,0.0,0.0,0.0,1.0766,1.1057,1.1151,1.2121,1.2687,1.2806,1.3272,1.3529,1.3529,1.3529,1.3785,1.4267,1.4267,1.4488,1.4896,1.5009,1.5047,1.5085,1.5618,1.5856,1.5894,1.6333,1.65,1.6423,1.582,1.561,1.5465,1.4503,1.4003,1.3732,1.3238,1.2992,1.2905,1.2905,1.2476,1.1848,1.104,1.0415,0.0,0.0,0.0,0.0,0.0,0.0,0.0,0.0,0.6401,0.5913,0.4782,0.5473,0.5911,0.4773,0.5163,0.5424,0.4822,0.486,0.4928,0.4928,0.5052,0.5131,0.502,0.6428,0.7451,0.7451,0.9102,1.02,1.02,1.0452,1.0486,1.0214,1.02,1.0094,0.9889,0.9883,0.9883,0.9883,0.9883,0.9856,0.9766,0.9766,0.974,0.9715,0.9715,0.9715,0.9715,0.9715,0.9715,0.9715,0.9715,0.9546,0.9324,0.9593,0.9573,0.9377,0.9317,0.9512,0.9766,0.0,0.0,0.0,0.0,0.0,0.0,0.0,0.0,0.0,0.0,0.0,0.0,0.0,0.0,0.0,0.0,0.0,0.0,0.0,1.094,1.1207,1.17,1.2659,1.3422,1.3912,1.4438,1.4708,1.4708,1.4708,1.4733,1.4815,1.4815,1.4833,1.4909,1.5399,1.5605,1.5663,1.6183,1.64,1.6434,1.6475,1.65,1.6423,1.582,1.561,1.5588,1.5454,1.4698,1.3802,1.3732,1.3334,1.2905,1.2905,1.2847,1.252,1.12,1.0745,1.0415,0.9133,0.8804,0.8804,0.8804,0.775,0.6696,0.0,0.5714,0.4865,0.4725,0.489,0.5044,0.4897,0.4941,0.4981,0.4894,0.4982,0.5076,0.5076,0.524,0.5361,0.5347,0.6858,0.7918,0.7918,0.9521,1.0546,1.0546,1.0573,1.0579,1.0546,1.0546,1.0526,1.0492,1.0492,1.0492,1.0492,1.0492,1.0358,1.0067,1.0067,0.9933,0.9715,0.9715,0.9715,0.9715,0.9715,0.9715,0.9715,0.9715,0.9666,0.9633,0.9695,0.982,0.9957,0.9726,0.982,1.0067,0.0,0.0,0.0,0.0,0.0,0.0,0.0,0.0,0.0,0.0,0.0,0.0,0.0,0.0,0.0,0.0,0.0,0.0,1.1312,1.2245,1.2748,1.2614,1.3653,1.4342,1.4563,1.479,1.4896,1.4896,1.4896,1.506,1.5374,1.5374,1.5517,1.5844,1.607,1.617,1.6183,1.64,1.65,1.65,1.65,1.65,1.6423,1.582,1.5387,1.5028,1.4687,1.4226,0.0,0.0,1.3104,1.2905,1.2905,1.2618,1.2064,1.1099,1.0517,1.0012,0.9061,0.8804,0.8804,0.8804,0.8165,0.7533,0.7533,0.7234,0.6691,0.5758,0.5964,0.6018,0.5066,0.4955,0.5012,0.5012,0.5169,0.5267,0.5267,0.5354,0.5395,0.5395,0.6924,0.7994,0.7994,0.9582,1.0593,1.0593,1.0593,1.0593,1.0593,1.0593,1.0593,1.0593,1.0593,1.0593,1.0593,1.0593,1.0526,1.0374,1.0374,1.0338,1.0224,1.0224,1.0224,1.0224,1.0224,1.0094,0.9947,1.0151,1.0124,0.9953,1.0157,1.0298,1.0341,1.0047,1.012,1.0374,0.0,0.0,0.0,0.0,0.0,0.0,0.0,0.0,0.0,0.0,0.0,0.0,0.0,0.0,0.0,0.0,0.0,0.0,0.0,1.3068,1.3657,1.3219,1.4437,0.0,1.5123,1.5273,1.5349,1.5349,1.5349,1.553,1.5919,1.5919,1.6132,1.65,1.65,1.65,1.65,1.65,1.65,1.65,1.65,1.65,1.6423,1.582,1.532,1.4858,1.4073,1.3684,0.0,0.0,1.2774,1.2608,1.2608,1.2089,1.1391,1.0712,1.0038,0.9413,0.8929,0.8804,0.8824,0.8884,0.8559,0.8213,0.8284,0.8148,0.7661,0.6484,0.6524,0.641,0.5254,0.5125,0.5196,0.5196,0.532,0.5395,0.5395,0.5395,0.5395,0.5395,0.6728,0.7632,0.7632,0.9454,1.0593,1.0593,1.0593,1.0593,1.0593,1.0593,1.0593,1.0593,1.0593,1.0593,1.0593,1.0593,1.0593,1.0593,1.0593,1.0593,1.0593,1.0593,1.0593,1.0593,1.0593,1.0472,1.0254,1.0506,1.0466,1.0261,1.0506,1.0593,1.0566,1.0321,1.0374,1.0593,0.0,0.0,0.0,0.0,0.0,0.0,0.0,0.0,0.0,0.0,0.0,0.0,0.0,0.0,0.0,0.0,0.0,0.0,0.0,1.284,1.3219,1.3199,1.4788,1.5668,1.5668,1.6195,1.645,1.645,1.645,1.645,1.6475,1.6475,1.6475,1.65,1.65,1.65,1.65,1.65,1.65,1.65,1.65,1.65,1.6423,1.582,1.5588,1.5432,1.4226,0.0,0.0,0.0,1.2427,1.1839,1.1839,1.1366,0.0,1.0038,0.9361,0.8831,0.8811,0.8804,0.8851,0.9131,0.8698,0.826,0.8545,0.7492,0.6442,0.641,0.5883,0.5448,0.5382,0.5385,0.5388,0.5388,0.5392,0.5395,0.5395,0.5395,0.5395,0.5395,0.6203,0.6752,0.6752,0.909,1.0593,1.0593,1.0593,1.0593,1.0593,1.0593,1.0593,1.0593,1.0593,1.0593,1.0593,1.0593,1.0593,1.0593,1.0593,1.0593,1.0593,1.0593,1.0593,1.0593,1.0593,1.0586,1.0579,1.0586,1.0586,1.0579,1.0586,1.0593,1.0593,1.0579,1.0586,1.0593,0.0,0.0,0.0,0.0,0.0,0.0,0.0,0.0,0.0,0.0,0.0,0.0,0.0,0.0,0.0,0.0,0.0,0.0,0.0,1.4004,1.4611,1.4205,1.5492,1.6233,1.6233,1.64,1.65,1.65,1.65,1.65,1.65,1.65,1.65,1.65,1.65,1.65,1.65,1.65,1.65,1.65,1.65,1.6259,1.5842,1.5231,1.4755,1.4249,0.0,0.0,0.0,1.2482,1.2005,1.1715,1.1291,1.0686,0.9987,0.9335,0.8982,0.8804,0.8804,0.8918,0.9091,0.9184,0.9326,0.933,0.8836,0.8536,0.7983,0.6851,0.642,0.6075,0.5491,0.5395,0.5395,0.5395,0.5395,0.5395,0.5395,0.5395,0.5395,0.5395,0.617,0.6687,0.6687,0.8544,0.9722,0.9722,1.0269,1.0593,1.0593,1.0593,1.0593,1.0593,1.0593,1.0593,1.0593,1.0593,1.0593,1.0593,1.0593,1.0593,1.0593,1.0593,1.0593,1.0593,1.0593,1.0593,1.0593,1.0593,1.0593,1.0593,1.0593,1.0593,1.0593,1.0593,1.0593,1.0593,0.0,0.0,0.0,0.0,0.0,0.0,0.0,0.0,0.0,0.0,0.0,0.0,0.0,0.0,0.0,0.0,0.0,0.0,0.0,0.0,1.4778,1.4399,1.5332,1.5854,1.5854,1.6086,1.6194,1.6194,1.6402,1.65,1.65,1.65,1.65,1.65,1.65,1.65,1.65,1.65,1.65,1.6466,1.6259,1.5964,1.5521,1.4687,1.4143,0.0,0.0,0.0,0.0,1.1805,1.1291,1.1015,1.0593,0.9987,0.9361,0.8936,0.8804,0.8804,0.8804,0.8991,0.9237,0.9344,0.9519,0.9511,0.9079,0.8658,0.8059,0.6915,0.6461,0.6075,0.5491,0.5395,0.5395,0.5395,0.5395,0.5395,0.5395,0.5395,0.5395,0.5395,0.5881,0.6235,0.6235,0.754,0.8613,0.9242,0.9817,1.0269,1.0593,1.0593,1.0593,1.0593,1.0593,1.0593,1.0593,1.0593,1.0593,1.0593,1.0593,1.0593,1.0593,1.0593,1.0593,1.0593,1.0593,1.0593,1.0593,1.0593,1.0593,1.0593,1.0593,1.0593,1.0593,1.0593,1.0593,1.0593,0.0,0.0,0.0,0.0,0.0,0.0,0.0,0.0,0.0,0.0,0.0,0.0,0.0,0.0,0.0,0.0,0.0,0.0,0.0,0.0,0.0,1.3792,1.4376,1.4698,1.4698,1.5298,1.561,1.561,1.6191,1.645,1.645,1.6425,1.6412,1.6412,1.6412,1.6412,1.6412,1.6412,1.6425,1.6364,1.5784,1.5542,1.5387,1.4226,0.0,0.0,0.0,0.0,0.0,1.099,1.0338,0.9788,0.9762,0.9309,0.8804,0.8804,0.8804,0.8804,0.8804,0.8964,0.9228,0.9548,0.919,0.8804,0.9108,0.7897,0.6687,0.6654,0.5976,0.5395,0.5395,0.5395,0.5395,0.5395,0.5395,0.5395,0.5395,0.5395,0.5395,0.5395,0.5395,0.5395,0.5395,0.6137,0.734,0.9043,0.9204,0.9626,1.0491,1.053,1.0555,1.0593,1.0593,1.0593,1.0593,1.0593,1.0593,1.0593,1.0555,1.0561,1.0593,1.0555,1.0561,1.0593,1.0593,1.0593,1.0593,1.0555,1.0561,1.0593,1.0561,1.0561,1.0593,1.0593,1.0593,1.0593,0.0,0.0,0.0,0.0,0.0,0.0,0.0,0.0,0.0,0.0,0.0,0.0,0.0,0.0,0.0,0.0,0.0,0.0,0.0,0.0,0.0,0.0,0.0,0.0,0.0,0.0,0.0,0.0,0.0,1.5906,1.5894,1.548,1.5311,0.0,1.5311,1.5311,1.5311,1.5311,1.5274,1.5223,0.0,1.4707,1.4226,0.0,0.0,0.0,0.0,0.0,0.0,1.0695,1.0338,0.971,0.9211,0.8929,0.8804,0.8804,0.8804,0.8804,0.8804,0.8632,0.8514,0.8684,0.8363,0.7861,0.745,0.7013,0.6527,0.5881,0.5557,0.5395,0.5395,0.5395,0.5395,0.5395,0.5395,0.5395,0.5395,0.5395,0.5395,0.5395,0.5395,0.5395,0.5395,0.5591,0.6174,0.7274,0.7962,0.871,0.9594,0.9626,0.9919,1.0593,1.0593,1.0593,1.0593,1.0593,1.0593,1.0593,0.9945,0.9977,1.0593,0.9919,0.9983,1.0593,1.0593,1.0593,1.0561,0.9888,1.0009,1.053,0.9881,1.0047,1.0593,1.0593,1.0593,1.0593,0.0,0.0,0.0,0.0,0.0,0.0,0.0,0.0,0.0,0.0,0.0,0.0,0.0,0.0,0.0,0.0,0.0,0.0,0.0,0.0,0.0,0.0,0.0,0.0,0.0,0.0,0.0,0.0,0.0,0.0,0.0,1.4377,1.4233,1.4233,1.4233,1.4233,1.4233,0.0,0.0,0.0,0.0,0.0,0.0,0.0,0.0,0.0,0.0,0.0,0.0,0.9891,0.9658,0.9283,0.891,0.8804,0.8804,0.8804,0.8804,0.8725,0.8401,0.8272,0.817,0.7973,0.7517,0.7056,0.6774,0.6396,0.5976,0.5491,0.5395,0.5395,0.5395,0.5395,0.5395,0.5395,0.5395,0.5395,0.5395,0.5395,0.5395,0.5395,0.5395,0.5395,0.5395,0.5395,0.5591,0.6108,0.6953,0.7795,0.8678,0.8716,0.8935,0.9454,0.9454,0.9454,0.9454,0.9454,0.9454,0.9454,0.8973,0.8967,0.9454,0.8935,0.9005,0.9454,0.0,0.9454,0.9422,0.8941,0.9,0.9422,0.8903,0.9268,1.0047,1.0047,1.0269,1.0593,0.0,0.0,0.0,0.0,0.0,0.0,0.0,0.0,0.0,0.0,0.0,0.0,0.0,0.0,0.0,0.0,0.0,0.0,0.0,0.0,0.0,0.0,0.0,0.0,0.0,0.0,0.0,0.0,0.0,0.0,0.0,0.0,0.0,0.0,0.0,0.0,0.0,0.0,0.0,0.0,0.0,0.0,0.0,0.0,0.0,0.0,0.0,0.0,0.0,0.9008,0.8857,0.891,0.8831,0.8804,0.8804,0.8804,0.8725,0.8507,0.7883,0.7773,0.7717,0.7223,0.6632,0.6238,0.6448,0.5928,0.5395,0.5395,0.5395,0.5395,0.5395,0.5395,0.5395,0.5395,0.5395,0.5395,0.5395,0.5395,0.5395,0.5395,0.5395,0.5395,0.5395,0.5395,0.5395,0.5395,0.6104,0.6915,0.7795,0.7832,0.7897,0.7994,0.7994,0.7994,0.7994,0.8025,0.804,0.804,0.7939,0.7949,0.8048,0.7919,0.7909,0.804,0.8004,0.7994,0.7994,0.7864,0.7892,0.7994,0.7864,0.8355,0.9139,0.9139,0.962,1.0269,0.0,0.0,0.0,0.0,0.0,0.0,0.0,0.0,0.0,0.0,0.0,0.0,0.0,0.0,0.0,0.0,0.0,0.0,0.0,0.0,0.0,0.0,0.0,0.0,0.0,0.0,0.0,0.0,0.0,0.0,0.0,0.0,0.0,0.0,0.0,0.0,0.0,0.0,0.0,0.0,0.0,0.0,0.0,0.0,0.0,0.0,0.0,0.0,0.0,0.0,0.9159,0.9543,0.8982,0.8804,0.8804,0.8804,0.8374,0.7857,0.7723,0.6847,0.5995,0.6054,0.5608,0.5208,0.5353,0.5397,0.5395,0.5395,0.5395,0.5395,0.5395,0.5395,0.5395,0.5395,0.5395,0.5395,0.5395,0.5395,0.5395,0.5395,0.5395,0.5395,0.5395,0.5395,0.5395,0.5395,0.5524,0.6013,0.6883,0.6915,0.7242,0.7962,0.7994,0.7994,0.7994,0.8111,0.8173,0.8144,0.7532,0.7639,0.8285,0.7466,0.7495,0.8163,0.8043,0.0,0.7962,0.7209,0.734,0.7929,0.7209,0.747,0.8221,0.8221,0.8318,0.8544,0.0,0.0,0.0,0.0,0.0,0.0,0.0,0.0,0.0,0.0,0.0,0.0,0.0,0.0,0.0,0.0,0.0,0.0,0.0,0.0,0.0,0.0,0.0,0.0,0.0,0.0,1.1562,1.1358,0.0,0.0,0.0,1.1134,1.101,0.0,0.0,0.0,0.0,0.0,0.0,0.0,0.0,0.0,0.0,0.0,0.0,0.0,0.0,0.0,0.0,0.0,0.9008,0.9211,0.891,0.8804,0.8725,0.8348,0.7963,0.753,0.6767,0.6032,0.5451,0.5274,0.5005,0.484,0.4955,0.5135,0.524,0.524,0.5337,0.5395,0.5395,0.5395,0.5395,0.5395,0.5395,0.5395,0.5395,0.5395,0.5395,0.5395,0.5395,0.5395,0.5395,0.5395,0.5395,0.5395,0.5395,0.5587,0.6009,0.6009,0.6207,0.6634,0.6726,0.6743,0.6743,0.6889,0.6945,0.6945,0.6576,0.6651,0.703,0.6561,0.6518,0.6839,0.6785,0.6722,0.6629,0.6207,0.6272,0.6597,0.6174,0.656,0.7307,0.7307,0.76,0.8059,0.0,0.0,0.0,0.0,0.0,0.0,0.0,0.0,0.0,0.0,0.0,0.0,0.0,0.0,0.0,0.0,0.0,0.0,0.0,0.0,0.0,0.0,0.0,0.0,0.0,0.0,0.0,1.0303,1.0303,0.0,0.0,0.0,0.0,0.0,1.0303,1.0303,0.0,0.0,0.0,0.0,0.0,0.0,0.0,0.0,0.0,0.0,0.0,0.0,0.0,0.0,0.8804,0.8804,0.8804,0.8804,0.8646,0.791,0.7589,0.7182,0.5869,0.5406,0.5199,0.4752,0.4667,0.4721,0.4843,0.4951,0.5052,0.5052,0.5206,0.5344,0.5344,0.5371,0.5395,0.5395,0.5395,0.5395,0.5395,0.5395,0.5395,0.5395,0.5395,0.5395,0.5395,0.5395,0.5395,0.5395,0.5395,0.5395,0.5395,0.5395,0.5409,0.5443,0.5562,0.5603,0.5637,0.5779,0.585,0.585,0.5884,0.5901,0.5898,0.5864,0.5789,0.5681,0.5616,0.5556,0.544,0.5409,0.5395,0.5395,0.5395,0.5815,0.6429,0.6429,0.6854,0.7474,0.0,0.0,0.0,0.0,0.0,0.0,0.0,0.0,0.0,0.0,0.0,0.0,0.0,0.0,0.0,0.0,0.0,0.0,0.0,0.0,0.0,0.0,0.0,0.0,0.0,0.0,0.0,1.0303,1.0303,0.0,0.0,0.0,0.0,0.0,0.0,1.0303,1.0303,0.0,0.0,0.0,0.0,0.0,0.0,0.0,0.0,0.0,0.0,0.8804,0.8804,0.8804,0.8804,0.8804,0.8804,0.8804,0.8646,0.791,0.7235,0.6529,0.5706,0.5054,0.4574,0.4536,0.4614,0.4694,0.4707,0.483,0.4908,0.4908,0.5022,0.512,0.512,0.5267,0.5395,0.5395,0.5395,0.5395,0.5395,0.5395,0.5395,0.5395,0.5395,0.5395,0.5395,0.5395,0.5395,0.5395,0.5395,0.5395,0.5395,0.5395,0.5457,0.5566,0.5583,0.565,0.5779,0.5932,0.5973,0.5973,0.6152,0.6255,0.6252,0.6071,0.5963,0.5939,0.5705,0.5583,0.0,0.5453,0.5395,0.5395,0.5395,0.5458,0.5524,0.5524,0.5557,0.5752,0.0,0.0,0.0,0.0,0.0,0.0,0.0,0.0,0.0,0.0,0.0,0.0,0.0,0.0,0.0,0.0,0.0,0.0,0.0,0.0,0.0,0.0,0.0,0.0,0.0,0.0,0.9339,0.9339,0.9657,0.0,0.0,0.0,0.0,0.0,0.0,0.9824,0.9813,0.9649,0.0,0.0,0.0,0.0,0.0,0.0,0.0,0.0,0.0,0.0,0.8804,0.8804,0.8804,0.8804,0.8804,0.8507,0.7996,0.7262,0.6831,0.6344,0.5195,0.4708,0.4491,0.4491,0.4535,0.4583,0.4583,0.467,0.4782,0.4782,0.4901,0.4999,0.5083,0.5179,0.5254,0.0,0.0,0.0,0.5395,0.5395,0.5395,0.5395,0.5395,0.5395,0.5395,0.5395,0.5395,0.5395,0.5395,0.5436,0.5528,0.5532,0.5562,0.5589,0.5762,0.5881,0.5939,0.6091,0.6169,0.6169,0.6269,0.63,0.6296,0.6235,0.6118,0.5979,0.5806,0.5671,0.0,0.5457,0.5395,0.5395,0.5395,0.5395,0.5395,0.5395,0.5395,0.5458,0.0,0.0,0.0,0.0,0.0,0.0,0.0,0.0,0.0,0.0,0.0,0.0,0.0,0.0,0.0,0.0,0.0,0.0,0.0,0.0,0.0,0.0,0.0,0.0,0.0,0.0,0.0,0.8695,0.9079,0.9259,0.0,0.0,0.9824,0.9804,0.0,0.0,0.0,0.0,0.0,0.0,0.0,0.0,0.0,0.0,0.0,0.0,0.0,0.0,0.0,0.0,0.0,0.848,0.848,0.0,0.0,0.675,0.6448,0.6014,0.4818,0.4491,0.4491,0.4491,0.4491,0.4491,0.4491,0.4573,0.4651,0.4651,0.4745,0.4897,0.5009,0.5069,0.5182,0.0,0.0,0.5395,0.5395,0.5395,0.5395,0.5395,0.5395,0.5395,0.5395,0.5395,0.5395,0.5395,0.5395,0.5463,0.5583,0.563,0.5674,0.5718,0.5885,0.6013,0.6098,0.6245,0.63,0.63,0.63,0.63,0.63,0.63,0.6242,0.6088,0.5888,0.5745,0.0,0.5477,0.5395,0.5395,0.5395,0.5395,0.5395,0.5395,0.5395,0.5395,0.0,0.0,0.0,0.0,0.0,0.0,0.0,0.0,0.0,0.0,0.0,0.0,0.0,0.0,0.0,0.0,0.0,0.0,0.0,0.0,0.0,0.0,0.0,0.0,0.0,0.0,0.0,0.0,0.8695,0.8704,0.8704,0.8716,0.8716,0.8732,0.0,0.0,0.0,0.0,0.0,0.0,0.0,0.0,0.0,0.0,0.0,0.0,0.0,0.0,0.0,0.0,0.0,0.0,0.0,0.0,0.0,0.0,0.6091,0.5351,0.4677,0.4491,0.4491,0.4491,0.4491,0.4491,0.4491,0.4491,0.4491,0.4491,0.4614,0.4741,0.4864,0.5005,0.5182,0.5368,0.0,0.0,0.5395,0.5395,0.5395,0.5395,0.5395,0.5395,0.5395,0.5395,0.5395,0.5395,0.5395,0.5463,0.5583,0.5722,0.5867,0.5983,0.599,0.6101,0.6296,0.63,0.63,0.63,0.63,0.63,0.63,0.63,0.63,0.6279,0.5935,0.58,0.0,0.5518,0.5395,0.5395,0.5395,0.5395,0.5395,0.5395,0.5395,0.5395,0.0,0.0,0.0,0.0,0.0,0.0,0.0,0.0,0.0,0.0,0.0,0.0,0.0,0.0,0.0,0.0,0.0,0.0,0.0,0.0,0.0,0.0,0.0,0.0,0.0,0.0,0.0,0.0,0.0,0.0,0.816,0.8722,0.8975,0.897,0.8864,0.8837,0.0,0.0,0.0,0.0,0.0,0.0,0.0,0.0,0.0,0.0,0.0,0.0,0.0,0.0,0.0,0.0,0.0,0.0,0.0,0.0,0.0,0.5351,0.468,0.4491,0.4491,0.4491,0.4491,0.4491,0.4491,0.4491,0.4491,0.4491,0.4528,0.4641,0.487,0.4924,0.507,0.5354,0.5395,0.0,0.5395,0.4855,0.4453,0.4453,0.3915,0.3547,0.3547,0.3547,0.3547,0.3547,0.3547,0.3621,0.3757,0.3792,0.4476,0.5949,0.6132,0.6248,0.63,0.63,0.63,0.63,0.63,0.63,0.63,0.63,0.63,0.6282,0.5935,0.58,0.5779,0.5518,0.5395,0.5395,0.5395,0.5395,0.5395,0.5395,0.5395,0.5395,0.0,0.0,0.0,0.0,0.0,0.0,0.0,0.0,0.0,0.0,0.0,0.0,0.0,0.0,0.0,0.0,0.0,0.0,0.0,0.0,0.0,0.0,0.0,0.0,0.0,0.0,0.0,0.0,0.0,0.0,0.0,0.0,0.0,0.8641,0.8605,0.8582,0.0,0.0,0.0,0.0,0.0,0.0,0.7969,0.0,0.0,0.0,0.0,0.0,0.0,0.0,0.0,0.0,0.0,0.0,0.0,0.0,0.5136,0.503,0.4625,0.4491,0.4491,0.4491,0.4491,0.4491,0.4491,0.4491,0.4491,0.4491,0.4267,0.4125,0.4375,0.4177,0.4072,0.4345,0.4386,0.4386,0.4386,0.3882,0.3513,0.3513,0.3045,0.2711,0.2711,0.2711,0.2711,0.2711,0.2711,0.2744,0.2897,0.2904,0.3503,0.4882,0.5428,0.5709,0.5709,0.5709,0.5709,0.5709,0.5276,0.5315,0.5709,0.5709,0.5874,0.6159,0.5908,0.5772,0.0,0.5494,0.5395,0.5395,0.5395,0.5395,0.5395,0.5395,0.5395,0.5395,0.0,0.0,0.0,0.0,0.0,0.0,0.0,0.0,0.0,0.0,0.0,0.0,0.0,0.0,0.0,0.0,0.0,0.0,0.0,0.0,0.0,0.0,0.0,0.0,0.0,0.0,0.0,0.7905,0.7905,0.7905,0.7905,0.0,0.0,0.0,0.0,0.0,0.0,0.8639,0.8321,0.7696,0.7643,0.7208,0.0,0.0,0.0,0.0,0.0,0.0,0.0,0.0,0.0,0.0,0.0,0.0,0.0,0.0,0.0,0.0,0.0,0.4491,0.4491,0.4491,0.4491,0.4491,0.4436,0.4405,0.0,0.4349,0.3732,0.3272,0.3492,0.295,0.2539,0.2687,0.2711,0.2711,0.2711,0.2649,0.2584,0.2519,0.2522,0.2491,0.2491,0.2491,0.2491,0.2491,0.2491,0.2551,0.2687,0.2695,0.2754,0.2885,0.3906,0.453,0.4569,0.4569,0.4569,0.4569,0.3591,0.3632,0.4569,0.4569,0.501,0.0,0.5646,0.5541,0.5403,0.5322,0.5292,0.5296,0.5362,0.5395,0.5395,0.5395,0.5395,0.5395,0.0,0.0,0.0,0.0,0.0,0.0,0.0,0.0,0.0,0.0,0.0,0.0,0.0,0.0,0.0,0.0,0.0,0.0,0.0,0.0,0.0,0.0,0.0,0.0,0.0,0.0,0.0,0.7905,0.7905,0.7905,0.7912,0.8163,0.0,0.0,0.0,0.0,0.8685,0.8184,0.7857,0.7643,0.7074,0.675,0.0,0.0,0.0,0.0,0.6588,0.6231,0.0,0.0,0.0,0.0,0.0,0.0,0.0,0.0,0.4491,0.4491,0.4491,0.0,0.4491,0.4491,0.4491,0.4349,0.0,0.3594,0.3428,0.2871,0.2593,0.2533,0.2734,0.2611,0.2539,0.2687,0.2711,0.2711,0.2711,0.208,0.1384,0.0729,0.0636,0.0643,0.0643,0.0643,0.0643,0.0643,0.0643,0.0652,0.0673,0.0675,0.0684,0.0744,0.1761,0.2698,0.3474,0.3474,0.3474,0.3474,0.3202,0.324,0.3474,0.3474,0.3586,0.3766,0.3633,0.3574,0.3585,0.4097,0.4317,0.4384,0.5123,0.5395,0.5395,0.5395,0.5395,0.5395,0.0,0.0,0.0,0.0,0.0,0.0,0.0,0.0,0.0,0.0,0.0,0.0,0.0,0.0,0.0,0.0,0.0,0.0,0.0,0.0,0.0,0.0,0.0,0.0,0.0,0.0,0.0,0.0,0.0,0.8305,0.0,0.0,0.0,0.0,0.0,0.8804,0.8752,0.8017,0.7503,0.7128,0.6389,0.0,0.0,0.0,0.0,0.0,0.5637,0.5386,0.0,0.5496,0.5117,0.457,0.0,0.0,0.0,0.0,0.4491,0.4436,0.4098,0.4236,0.4405,0.4042,0.3959,0.3735,0.2982,0.2788,0.2676,0.2286,0.1924,0.1738,0.1823,0.1569,0.1381,0.1463,0.1477,0.145,0.1468,0.104,0.0528,0.0071,0.0,0.0,0.0,0.0,0.0,0.0,0.0,0.0,0.0,0.0,0.0,0.0,0.0549,0.1371,0.2386,0.2425,0.2425,0.2425,0.1917,0.1917,0.2423,0.2397,0.2619,0.2999,0.2921,0.2881,0.2872,0.367,0.4015,0.4082,0.5024,0.5395,0.5395,0.5395,0.5395,0.5395,0.0,0.0,0.0,0.0,0.0,0.0,0.0,0.0,0.0,0.0,0.0,0.0,0.0,0.0,0.0,0.0,0.0,0.0,0.0,0.0,0.0,0.0,0.0,0.0,0.0,0.0,0.0,0.0,0.0,0.0,0.0,0.0,0.0,0.0,0.0,0.8804,0.8752,0.7883,0.7182,0.6529,0.5683,0.0,0.0,0.0,0.0,0.0,0.0,0.0,0.0,0.4491,0.4491,0.4491,0.4491,0.0,0.0,0.0,0.0,0.0,0.3566,0.3763,0.3984,0.3314,0.3121,0.2926,0.2202,0.0,0.2009,0.1898,0.1369,0.0942,0.0944,0.0432,0.0,0.0,0.0,0.0,0.0,0.0,0.0,0.0,0.0,0.0,0.0,0.0,0.0,0.0,0.0,0.0,0.0,0.0,0.0,0.0,0.0,0.0432,0.1333,0.1372,0.1372,0.1333,0.0432,0.0471,0.1371,0.1337,0.1751,0.2465,0.0,0.0,0.2344,0.3211,0.358,0.368,0.4619,0.499,0.499,0.499,0.5057,0.5193,0.0,0.0,0.0,0.0,0.0,0.0,0.0,0.0,0.0,0.0,0.0,0.0,0.0,0.0,0.0,0.0,0.0,0.0,0.0,0.0,0.0,0.0,0.0,0.0,0.0,0.0,0.0,0.0,0.0,0.0,0.8804,0.8804,0.8804,0.0,0.0,0.8804,0.8725,0.7343,0.6696,0.648,0.5171,0.0,0.0,0.0,0.0,0.0,0.0,0.0,0.0,0.4491,0.4491,0.4491,0.4491,0.0,0.0,0.0,0.0,0.0,0.3345,0.2954,0.2536,0.2397,0.2369,0.2174,0.1424,0.1256,0.109,0.0476,0.0252,0.0172,0.0183,0.0062,0.0,0.0,0.0,0.0,0.0,0.0,0.0,0.0,0.0,0.0,0.0,0.0,0.0,0.0,0.0,0.0,0.0,0.0,0.0,0.0,0.0,0.0079,0.0235,0.0235,0.0235,0.0235,0.0079,0.0079,0.0235,0.023,0.0336,0.0436,0.0,0.0449,0.0471,0.1341,0.1708,0.1809,0.2744,0.3111,0.3111,0.3111,0.358,0.4317,0.0,0.0,0.0,0.0,0.0,0.0,0.0,0.0,0.0,0.0,0.0,0.0,0.0,0.0,0.0,0.0,0.0,0.0,0.0,0.0,0.0,0.0,0.0,0.0,0.0,0.0,0.0,0.0,0.0,0.8804,0.8804,0.8804,0.8804,0.8778,0.0,0.8209,0.8103,0.6632,0.6009,0.5928,0.0,0.0,0.0,0.0,0.0,0.0,0.0,0.0,0.0,0.0,0.4491,0.4491,0.4491,0.0,0.0,0.0,0.0,0.0,0.2315,0.187,0.1507,0.1118,0.1312,0.1424,0.0671,0.0504,0.042,0.0056,0.0,0.0,0.0,0.0,0.0,0.0,0.0,0.0,0.0,0.0,0.0,0.0,0.0,0.0,0.0,0.0,0.0,0.0,0.0,0.0,0.0,0.0,0.0,0.0,0.0,0.0,0.0,0.0,0.0,0.0,0.0,0.0,0.0,0.0,0.0,0.0,0.0,0.0,0.0067,0.094,0.1307,0.1407,0.2344,0.2711,0.2711,0.2711,0.3247,0.4048,0.0,0.0,0.0,0.0,0.0,0.0,0.0,0.0,0.0,0.0,0.0,0.0,0.0,0.0,0.0,0.0,0.0,0.0,0.0,0.0,0.0,0.0,0.0,0.0,0.0,0.0,0.8804,0.8804,0.8804,0.8804,0.8804,0.8804,0.8804,0.0,0.0,0.7696,0.761,0.6113,0.5515,0.5433,0.0,0.0,0.0,0.0,0.0,0.0,0.0,0.0,0.0,0.0,0.0,0.0,0.0,0.0,0.0,0.3566,0.3121,0.2538,0.1396,0.0978,0.0699,0.014,0.0,0.0699,0.014,0.0,0.0,0.0,0.0,0.0,0.0,0.0,0.0,0.0,0.0,0.0,0.0,0.0,0.0,0.0,0.0,0.0,0.0,0.0,0.0,0.0,0.0,0.0,0.0,0.0,0.0,0.0,0.0,0.0,0.0,0.0,0.0,0.0,0.0,0.0,0.0,0.0,0.0,0.0,0.0,0.0,0.0067,0.0706,0.1006,0.1074,0.1776,0.2078,0.2078,0.231,0.2811,0.3411,0.0,0.0,0.0,0.0,0.0,0.0,0.0,0.0,0.0,0.0,0.0,0.0,0.0,0.0,0.0,0.0,0.0,0.0,0.0,0.0,0.0,0.0,0.0,0.0,0.0,0.8804,0.8804,0.8804,0.8804,0.8804,0.8804,0.8804,0.8804,0.8778,0.0,0.7696,0.761,0.6113,0.5515,0.5433,0.4759,0.0,0.0,0.0,0.0,0.0,0.0,0.0,0.0,0.0,0.0,0.0,0.0,0.0,0.3398,0.34,0.2371,0.1229,0.1118,0.0588,0.0056,0.0,0.0028,0.0056,0.0,0.0,0.0,0.0,0.0,0.0,0.0,0.0,0.0,0.0,0.0,0.0,0.0,0.0,0.0,0.0,0.0,0.0,0.0,0.0,0.0,0.0,0.0,0.0,0.0,0.0,0.0,0.0,0.0,0.0,0.0,0.0,0.0,0.0,0.0,0.0,0.0,0.0,0.0,0.0,0.0,0.0,0.0,0.0067,0.0101,0.0101,0.0168,0.0202,0.0303,0.1107,0.1441,0.1608,0.0,0.0,0.0,0.0,0.0,0.0,0.0,0.0,0.0,0.0,0.0,0.0,0.0,0.0,0.0,0.0,0.0,0.0,0.0,0.0,0.0,0.0,0.0,0.7369,0.8103,0.856,0.8804,0.8804,0.8804,0.8804,0.8804,0.8804,0.0,0.0,0.0,0.6772,0.6276,0.53,0.4869,0.4866,0.4598,0.4491,0.0,0.0,0.0,0.0,0.0,0.0,0.0,0.0,0.4181,0.0,0.0,0.0,0.0,0.0,0.1563,0.1006,0.0532,0.0224,0.0,0.0,0.0,0.0,0.0,0.0,0.0,0.0,0.0,0.0,0.0,0.0,0.0,0.0,0.0,0.0,0.0,0.0,0.0,0.0,0.0,0.0,0.0,0.0,0.0,0.0,0.0,0.0,0.0,0.0,0.0,0.0,0.0,0.0,0.0,0.0,0.0,0.0,0.0,0.0,0.0,0.0,0.0,0.0,0.0,0.0,0.0,0.0,0.0,0.0,0.0,0.0,0.0034,0.037,0.0839,0.1441,0.0,0.0,0.0,0.0,0.0,0.0,0.0,0.0,0.0,0.0,0.0,0.0,0.0,0.0,0.0,0.0,0.0,0.0,0.0,0.0,0.0,0.0,0.0,0.661,0.7343,0.8076,0.856,0.8804,0.8804,0.8804,0.8804,0.0,0.0,0.0,0.0,0.0,0.546,0.4787,0.4491,0.4491,0.4491,0.4491,0.0,0.0,0.0,0.0,0.0,0.0,0.0,0.0,0.0,0.0,0.0,0.0,0.0,0.0,0.0,0.0643,0.014,0.0,0.0,0.0,0.0,0.0,0.0,0.0,0.0,0.0,0.0,0.0,0.0,0.0,0.0,0.0,0.0,0.0,0.0,0.0,0.0,0.0,0.0,0.0,0.0,0.0,0.0,0.0,0.0,0.0,0.0,0.0,0.0,0.0,0.0,0.0,0.0,0.0,0.0,0.0,0.0,0.0,0.0,0.0,0.0,0.0,0.0,0.0,0.0,0.0,0.0,0.0,0.0,0.0,0.0,0.0,0.037,0.0975,0.0,0.0,0.0,0.0,0.0,0.0,0.0,0.0,0.0,0.0,0.0,0.0,0.0,0.0,0.0,0.0,0.0,0.0,0.0,0.0,0.0,0.0,0.0,0.5842,0.6588,0.7316,0.8076,0.8804,0.8804,0.8804,0.8778,0.8049,0.0,0.0,0.0,0.0,0.0,0.4787,0.4491,0.4491,0.4491,0.4491,0.4491,0.0,0.0,0.0,0.0,0.0,0.0,0.0,0.3287,0.0,0.0,0.0,0.0,0.0,0.056,0.0,0.0,0.0,0.0,0.0,0.0,0.0,0.0,0.0,0.0,0.0,0.0,0.0,0.0,0.0,0.0,0.0,0.0,0.0,0.0,0.0,0.0,0.0,0.0,0.0,0.0,0.0,0.0,0.0,0.0,0.0,0.0,0.0,0.0,0.0,0.0,0.0,0.0,0.0,0.0,0.0,0.0,0.0,0.0,0.0,0.0,0.0,0.0,0.0,0.0,0.0,0.0,0.0,0.0,0.0,0.0,0.0,0.0,0.0,0.0,0.0,0.0,0.0,0.0,0.0,0.0,0.0,0.0,0.0,0.0,0.0,0.0,0.0,0.0,0.0,0.0,0.0,0.0,0.0,0.0,0.0,0.0,0.0,0.0,0.0,0.8076,0.8804,0.8804,0.8804,0.0,0.0,0.0,0.6885,0.0,0.0,0.4787,0.4598,0.4491,0.4491,0.4491,0.4491,0.4491,0.0,0.0,0.0,0.0,0.0,0.0,0.0,0.0,0.0,0.0,0.0,0.0,0.0,0.0168,0.0,0.0,0.0,0.0,0.0,0.0,0.0,0.0,0.0,0.0,0.0,0.0,0.0,0.0,0.0,0.0,0.0,0.0,0.0,0.0,0.0,0.0,0.0,0.0,0.0,0.0,0.0,0.0,0.0,0.0,0.0,0.0,0.0,0.0,0.0,0.0,0.0,0.0,0.0,0.0,0.0,0.0,0.0,0.0,0.0,0.0,0.0,0.0,0.0,0.0,0.0,0.0,0.0,0.0,0.0,0.0,0.0,0.0,0.0104,0.0,0.0,0.0,0.0,0.0,0.0,0.0,0.0,0.0,0.0,0.0,0.0,0.0,0.0,0.0,0.0,0.0,0.0,0.0,0.0,0.0,0.0,0.0,0.0,0.0,0.6659,0.7616,0.0,0.0,0.0,0.0,0.0,0.0,0.6561,0.0,0.4869,0.4491,0.4491,0.4491,0.4491,0.4491,0.4491,0.4491,0.0,0.0,0.0,0.0,0.0,0.0,0.0,0.0,0.0,0.0,0.0,0.0,0.0,0.0,0.0,0.0,0.0,0.0,0.0,0.0,0.0,0.0,0.0,0.0,0.0,0.0,0.0,0.0,0.0,0.0,0.0,0.0,0.0,0.0,0.0,0.0,0.0,0.0,0.0,0.0,0.0,0.0,0.0,0.0,0.0,0.0,0.0,0.0,0.0,0.0,0.0,0.0,0.0,0.0,0.0,0.0,0.0,0.0,0.0,0.0,0.0,0.0,0.0,0.0,0.0,0.0,0.0,0.0,0.0,0.0,0.0,0.0,0.007,0.0,0.0,0.0,0.0,0.0,0.0,0.0,0.0,0.0,0.0,0.0,0.0,0.0,0.0,0.0,0.0,0.0,0.0,0.0,0.0,0.0,0.0,0.0,0.0,0.0,0.0,0.0,0.0,0.0,0.0,0.0,0.0,0.6507,0.6448,0.0,0.4491,0.4491,0.4491,0.4491,0.4491,0.4491,0.4491,0.4491,0.4436,0.0,0.0,0.0,0.0,0.0,0.0,0.0,0.0,0.0,0.0,0.0,0.0,0.0,0.0,0.0,0.0,0.0,0.0,0.0,0.0,0.0,0.0,0.0,0.0,0.0,0.0,0.0,0.0,0.0,0.0,0.0,0.0,0.0,0.0,0.0,0.0,0.0,0.0,0.0,0.0,0.0,0.0,0.0,0.0,0.0,0.0,0.0,0.0,0.0,0.0,0.0,0.0,0.0,0.0,0.0,0.0,0.0,0.0,0.0,0.0,0.0,0.0,0.0,0.0,0.0,0.0,0.0,0.0,0.0,0.0,0.0,0.0,0.0,0.0,0.0,0.0,0.0,0.0,0.0,0.0,0.0,0.0,0.0,0.0,0.0,0.0,0.0,0.0,0.0,0.0,0.0,0.0,0.0,0.0,0.0,0.0,0.0,0.0,0.0,0.0,0.0,0.0,0.0,0.0,0.0,0.5706,0.0,0.4491,0.4491,0.4491,0.4491,0.4491,0.4491,0.4491,0.4436,0.3846,0.3483,0.0,0.0,0.0,0.0,0.0,0.0,0.0,0.0056,0.0,0.0,0.0,0.0,0.0,0.0,0.0,0.0,0.0,0.0,0.0,0.0,0.0,0.0,0.0,0.0,0.0,0.0,0.0,0.0,0.0,0.0,0.0,0.0,0.0,0.0,0.0,0.0,0.0,0.0,0.0,0.0,0.0,0.0,0.0,0.0,0.0,0.0,0.0,0.0,0.0,0.0,0.0,0.0,0.0,0.0,0.0,0.0,0.0,0.0,0.0,0.0,0.0,0.0,0.0,0.0,0.0,0.0,0.0,0.0,0.0,0.0,0.0,0.0,0.0,0.0,0.0,0.0,0.0,0.0,0.0,0.0,0.0,0.0,0.0,0.0,0.0,0.0,0.0,0.0,0.0,0.0,0.0,0.0,0.0,0.0,0.0,0.0,0.0,0.0,0.0,0.0,0.0,0.0,0.0,0.0,0.546,0.0,0.4491,0.4491,0.4491,0.4491,0.4491,0.4491,0.4267,0.3873,0.3511,0.2899,0.2147,0.1368,0.0,0.0,0.0,0.0,0.0,0.0,0.0,0.0,0.0,0.0,0.0,0.0,0.0,0.0,0.0,0.0,0.0,0.0,0.0,0.0,0.0,0.0,0.0,0.0,0.0,0.0,0.0,0.0,0.0,0.0,0.0,0.0,0.0,0.0,0.0,0.0,0.0,0.0,0.0,0.0,0.0,0.0,0.0,0.0,0.0,0.0,0.0,0.0,0.0,0.0,0.0,0.0,0.0,0.0,0.0,0.0,0.0,0.0,0.0,0.0,0.0,0.0,0.0,0.0,0.0,0.0,0.0,0.0,0.0,0.0,0.0,0.0,0.0,0.0,0.0,0.0,0.0,0.0,0.0,0.0,0.0,0.0,0.0,0.0,0.0,0.0,0.0,0.0,0.0,0.0,0.0,0.0,0.0,0.0,0.0,0.0,0.0,0.0,0.0,0.0,0.0,0.0,0.5296,0.0,0.4491,0.4491,0.4491,0.4491,0.4491,0.4349,0.3901,0.3259,0.301,0.2174,0.109,0.095,0.0532,0.0,0.0,0.0,0.0,0.0,0.0,0.0,0.0,0.0,0.0,0.0,0.0,0.0,0.0,0.0,0.0,0.0,0.0,0.0,0.0,0.0,0.0,0.0,0.0,0.0,0.0,0.0,0.0,0.0,0.0,0.0,0.0,0.0,0.0,0.0,0.0,0.0,0.0,0.0,0.0,0.0,0.0,0.0,0.0,0.0,0.0,0.0,0.0,0.0,0.0,0.0,0.0,0.0,0.0,0.0,0.0,0.0,0.0,0.0,0.0,0.0,0.0,0.0,0.0,0.0,0.0,0.0,0.0,0.0,0.0,0.0,0.0,0.0,0.0,0.0,0.0,0.0,0.0,0.0,0.0,0.0,0.0,0.0,0.0,0.0,0.0,0.4491,0.0,0.0,0.4491,0.4491,0.0,0.0,0.0,0.0,0.0,0.0,0.0,0.0,0.0,0.0,0.4625,0.0,0.0,0.4491,0.4491,0.4491,0.4436,0.379,0.3456,0.3148,0.187,0.1284,0.1006,0.0364,0.0084,0.0,0.0,0.0,0.0,0.0,0.0,0.0,0.0,0.0,0.0,0.0,0.0,0.0,0.0,0.0,0.0,0.0,0.0,0.0,0.0,0.0,0.0,0.0,0.0,0.0,0.0,0.0,0.0,0.0,0.0,0.0,0.0,0.0,0.0,0.0,0.0,0.0,0.0,0.0,0.0,0.0,0.0,0.0,0.0,0.0,0.0,0.0,0.0,0.0,0.0,0.0,0.0,0.0,0.0,0.0,0.0,0.0,0.0,0.0,0.0,0.0,0.0,0.0,0.0,0.0,0.0,0.0,0.0,0.0,0.0,0.0,0.0,0.0,0.0,0.0,0.0,0.0,0.0,0.0,0.0,0.0,0.0,0.0,0.4491,0.4491,0.4491,0.4491,0.4491,0.4491,0.4491,0.407,0.4042,0.0,0.0,0.0,0.0,0.0,0.0,0.0,0.4491,0.4491,0.0,0.0,0.0,0.0,0.4015,0.3846,0.3818,0.3037,0.2454,0.2009,0.1341,0.0838,0.0448,0.0112,0.0,0.0,0.0,0.0,0.0,0.0,0.0,0.0,0.0,0.0,0.0,0.0,0.0,0.0,0.0,0.0,0.0,0.0,0.0,0.0,0.0,0.0,0.0,0.0,0.0,0.0,0.0,0.0,0.0,0.0,0.0,0.0,0.0,0.0,0.0,0.0,0.0,0.0,0.0,0.0,0.0,0.0,0.0,0.0,0.0,0.0,0.0,0.0,0.0,0.0,0.0,0.0,0.0,0.0,0.0,0.0,0.0,0.0,0.0,0.0,0.0,0.0,0.0,0.0,0.0,0.0,0.0,0.0,0.0,0.0,0.0,0.0,0.0,0.0,0.0,0.0,0.0,0.0,0.0,0.0,0.0,0.0,0.0,0.0,0.0,0.4491,0.4491,0.4491,0.4322,0.4211,0.4211,0.3456,0.3287,0.3901,0.0,0.0,0.0,0.0,0.0,0.4491,0.4098,0.4015,0.0,0.4211,0.4211,0.0,0.0,0.3037,0.3037,0.2232,0.1591,0.109,0.0895,0.0476,0.0,0.0,0.0,0.0,0.0,0.0,0.0,0.0,0.0,0.0,0.0,0.0,0.0,0.0,0.0,0.0,0.0,0.0,0.0,0.0,0.0,0.0,0.0,0.0,0.0,0.0,0.0,0.0,0.0,0.0,0.0,0.0,0.0,0.0,0.0,0.0,0.0,0.0,0.0,0.0,0.0,0.0,0.0,0.0,0.0,0.0,0.0,0.0,0.0,0.0,0.0,0.0,0.0,0.0,0.0,0.0,0.0,0.0,0.0,0.0,0.0,0.0,0.0,0.0,0.0,0.0,0.0,0.0,0.0,0.0,0.0,0.0,0.0,0.0,0.0,0.0,0.0,0.0,0.0,0.0,0.0,0.0,0.0,0.0,0.4491,0.4491,0.4491,0.4491,0.4491,0.4491,0.3846,0.3456,0.3456,0.2676,0.0,0.2313,0.0,0.0,0.0,0.0,0.0,0.446,0.301,0.2704,0.337,0.3428,0.3428,0.3317,0.0,0.0,0.0,0.1452,0.1146,0.1034,0.0336,0.0028,0.0,0.0,0.0,0.0,0.0,0.0,0.0,0.0,0.0,0.0,0.0,0.0,0.0,0.0,0.0,0.0,0.0,0.0,0.0,0.0,0.0,0.0,0.0,0.0,0.0,0.0,0.0,0.0,0.0,0.0,0.0,0.0,0.0,0.0,0.0,0.0,0.0,0.0,0.0,0.0,0.0,0.0,0.0,0.0,0.0,0.0,0.0,0.0,0.0,0.0,0.0,0.0,0.0,0.0,0.0,0.0,0.0,0.0,0.0,0.0,0.0,0.0,0.0,0.0,0.0,0.0,0.0,0.0,0.0,0.0,0.0,0.0,0.0,0.0,0.0,0.0,0.0,0.0,0.0,0.0,0.0,0.0,0.0,0.0,0.4491,0.4491,0.4491,0.407,0.379,0.3732,0.3037,0.2619,0.2619,0.1898,0.173,0.2202,0.0,0.0,0.0,0.0,0.276,0.301,0.2454,0.2343,0.2591,0.2619,0.2619,0.2538,0.1814,0.0,0.1424,0.0699,0.0392,0.0364,0.0112,0.0,0.0,0.0,0.0,0.0,0.0,0.0,0.0,0.0,0.0,0.0,0.0,0.0,0.0,0.0,0.0,0.0,0.0,0.0,0.0,0.0,0.0,0.0,0.0,0.0,0.0,0.0,0.0,0.0,0.0,0.0,0.0,0.0,0.0,0.0,0.0,0.0,0.0,0.0,0.0,0.0,0.0,0.0,0.0,0.0,0.0,0.0,0.0,0.0,0.0,0.0,0.0,0.0,0.0,0.0,0.0,0.0,0.0,0.0,0.0,0.0,0.0,0.0,0.0,0.0,0.0,0.0,0.0,0.0,0.0,0.0,0.0,0.0,0.0,0.0,0.0,0.0,0.0,0.0,0.0,0.0,0.0,0.0,0.0,0.0,0.0,0.3735,0.3735,0.3289,0.2982,0.2926,0.2232,0.184,0.184,0.1118,0.095,0.1452,0.1229,0.0,0.0,0.0,0.0,0.0,0.1703,0.1591,0.1813,0.1563,0.1591,0.0,0.1034,0.0727,0.0699,0.0196,0.0,0.0,0.0,0.0,0.0,0.0,0.0,0.0,0.0,0.0,0.0,0.0,-0.0168,-0.0308,-0.0084,-0.0168,-0.0308,-0.0056,0.0,0.0,0.0,0.0,0.0,0.0,0.0,0.0,0.0,0.0,0.0,0.0,0.0,0.0,0.0,0.0,0.0,0.0,0.0,0.0,0.0,0.0,0.0,0.0,0.0,0.0,0.0,0.0,0.0,0.0,0.0,-0.0135,-0.0437,-0.074,-0.074,-0.0437,-0.074,-0.074,-0.0437,-0.0437,-0.0437,-0.0437,-0.0135,0.0,0.0,0.0,0.0,0.0,0.0,0.0,0.0,0.0,0.0,0.0,0.0,0.0,0.0,0.0,0.0,0.0,0.0,0.0,0.0,0.0,0.0,0.0,0.0,0.0,0.0,0.0,0.0,0.0,0.2202,0.2174,0.2174,0.2174,0.148,0.1062,0.1062,0.0392,0.0,0.0,0.0699,0.0,0.0,0.0,0.0,0.0,0.0,0.0392,0.1034,0.0308,0.0392,0.1034,0.0308,0.0,0.0,0.0,0.0,0.0,0.0,0.0,0.0,0.0,0.0,0.0,0.0,0.0,0.0,-0.0028,-0.0532,-0.0978,-0.028,-0.056,-0.0978,0.0,0.0,0.0,-0.0028,-0.0028,-0.0028,0.0,0.0,0.0,0.0,0.0,0.0,0.0,0.0,0.0,0.0,0.0,0.0,0.0,0.0,0.0,0.0,0.0,0.0,0.0,0.0,0.0,0.0,0.0,0.0,0.0,-0.0034,-0.0436,-0.1304,-0.2204,-0.2238,-0.1337,-0.2238,-0.2238,-0.1338,-0.1338,-0.1339,-0.1273,-0.0437,-0.0034,0.0,0.0,0.0,0.0,0.0,0.0,0.0,0.0,0.0,0.0,0.0,0.0,0.0,0.0,0.0,0.0,0.0,0.0,0.0,0.0,0.0,0.0,0.0,0.0,0.0,0.0,0.0,0.2202,0.2202,0.1703,0.1396,0.1396,0.0727,0.0308,0.0308,0.0112,0.0,0.0,0.0196,0.0,0.0,0.0,0.0,0.0,0.0,0.0,0.0,0.0084,0.0112,0.028,0.0084,0.0,0.0,0.0,0.0,0.0,0.0,0.0,0.0,0.0,0.0,0.0,0.0,0.0,-0.0084,-0.0615,-0.1312,-0.187,-0.1647,-0.173,-0.1842,-0.1647,0.0,0.0,0.0,0.0,0.0,-0.0112,0.0,0.0,0.0,0.0,0.0,0.0,0.0,0.0,0.0,0.0,0.0,0.0,0.0,0.0,0.0,0.0,0.0,0.0,0.0,0.0,0.0,0.0,0.0,0.0,-0.0506,-0.1136,-0.1921,-0.2204,-0.2204,-0.1952,-0.2204,-0.2292,-0.2179,-0.2179,-0.1874,-0.1307,-0.104,-0.0605,0.0,0.0,0.0,0.0,0.0,0.0,0.0,0.0,0.0,0.0,0.0,0.0,0.0,0.0,0.0,0.0,0.0,0.0,0.0,0.0,0.0,0.0,0.0,0.0,0.0,0.0,0.0,0.0,0.1284,0.0895,0.0643,0.0643,0.0252,0.0,0.0,0.0,0.0,0.0,0.0,0.0,0.0,0.0,0.0,0.0,0.0,0.0,0.0,0.0,0.0,0.0,0.0,0.0,0.0,0.0,0.0,0.0,0.0,0.0,0.0,0.0,0.0,-0.0056,-0.0364,-0.0671,-0.1006,-0.1424,-0.2063,-0.2591,-0.2286,-0.2426,-0.2619,-0.2286,-0.2202,-0.2093,-0.1675,0.0,0.0,-0.0615,-0.0448,-0.0364,-0.0056,0.0,0.0,0.0,0.0,0.0,0.0,0.0,0.0,0.0,0.0,0.0,0.0,0.0,0.0,0.0,0.0,0.0,0.0,0.0,-0.0123,-0.0432,-0.1231,-0.2029,-0.2764,-0.3132,-0.3162,-0.2795,-0.3132,-0.3241,-0.3049,-0.2667,-0.2283,-0.1842,-0.1107,-0.0471,0.0,0.0,0.0,0.0,0.0,0.0,0.0,0.0,0.0,0.0,0.0,0.0,0.0,0.0,0.0,0.0,0.0,0.0,0.0,0.0,0.0,0.0,0.0,0.0,0.0,0.0,0.0,0.0,0.0,0.0,0.0,0.0,0.0,0.0,0.0,0.0,0.0,0.0,0.0,0.0,0.0,0.0,0.0,0.0,0.0,0.0,0.0,0.0,0.0,0.0,0.0,0.0,0.0,0.0,0.0,0.0,0.0,-0.0056,-0.0112,-0.0112,-0.0168,-0.0336,-0.1006,-0.173,-0.2343,-0.2343,-0.2843,-0.3314,-0.2649,-0.2954,-0.3372,-0.2649,-0.2454,-0.2426,-0.2343,-0.2313,0.0,-0.1396,-0.1229,-0.1034,-0.0392,-0.0168,-0.0112,-0.0112,-0.0056,0.0,0.0,0.0,0.0,0.0,0.0,0.0,0.0,0.0,0.0,0.0,0.0,0.0,0.0,0.0,-0.0366,-0.1188,-0.2008,-0.2859,-0.3678,-0.4439,-0.4472,-0.3709,-0.4472,-0.4537,-0.3903,-0.3126,-0.279,-0.2764,-0.1074,-0.0303,-0.0303,-0.0101,-0.0067,-0.0135,-0.0034,0.0,0.0,0.0,0.0,0.0,0.0,0.0,0.0,0.2619,0.0,0.0,0.0,0.0,0.0,0.0,0.0,0.0,0.0,0.0,0.0,0.0,0.0,0.0,0.0,0.0,0.0,0.0,0.0,0.0,0.0,0.0,0.0,0.0,0.0,0.0,0.0,0.0,0.0,0.0,0.0,0.0,0.0,0.0,0.0,0.0,0.0,0.0,0.0,0.0,0.0,0.0,0.0,-0.0364,-0.0895,-0.0895,-0.1256,-0.1786,-0.1924,-0.2508,-0.3178,-0.3178,-0.3677,-0.4236,-0.4098,-0.4153,-0.4239,-0.4098,-0.4042,-0.3901,-0.3262,-0.3093,0.0,-0.2147,-0.1981,-0.1952,-0.1814,-0.1312,-0.0895,-0.0895,-0.0392,0.0,0.0,0.0,0.0,0.0,0.0,0.0,0.0,0.0,0.0,0.0,0.0,0.0,0.0,0.0,-0.0571,-0.1905,-0.2161,-0.2899,-0.4295,-0.4492,-0.4492,-0.4323,-0.4492,-0.4569,-0.4539,-0.4473,-0.4122,-0.3556,-0.2617,-0.2178,-0.2078,-0.0639,-0.0404,-0.1006,-0.0303,0.0,0.0,0.0,0.0,0.0,0.0,0.0,0.0,0.212,0.0,0.0,0.0,0.0,0.0,0.0,0.0,0.0,0.0,0.0,0.0,0.0,0.0,0.0,0.0,0.0,0.0,0.0,0.0,0.0,0.0,0.0,0.0,0.0,0.0,0.0,0.0,0.0,0.0,0.0,0.0,0.0,0.0,0.0,0.0,0.0,-0.0392,-0.0336,0.0,0.0,0.0,-0.0028,-0.042,-0.0783,-0.1146,-0.1507,-0.212,-0.276,-0.2788,-0.3317,-0.3959,-0.3959,-0.4211,-0.4491,-0.4491,-0.4491,-0.4491,-0.4491,-0.4491,-0.4405,-0.3984,-0.3901,0.0,0.0,-0.276,-0.2649,-0.2286,-0.1898,-0.1647,-0.1647,-0.1341,-0.109,-0.109,-0.0783,-0.056,-0.056,-0.0224,0.0,0.0,0.0,0.0,0.0,0.0,0.0,0.0,0.0,-0.0643,-0.212,-0.2202,-0.2899,-0.446,-0.4491,-0.4491,-0.4491,-0.4491,-0.4566,-0.4691,-0.439,-0.4086,-0.3783,-0.3039,-0.2711,-0.2611,-0.1241,-0.0906,-0.124,-0.037,0.0,0.0,0.0,0.0,0.0,0.0,0.0,0.0,0.1647,0.0,0.0,0.0,0.0,0.0,0.0,0.0,0.0,0.0,0.0,0.0,0.0,0.0,0.0,0.0,0.0,0.0,0.0,0.0,0.0,0.0,0.0,0.0,0.0,0.0,0.0,0.0,0.0,0.0,0.0,0.0,0.0,0.0,0.0,0.0,0.0,-0.0783,-0.0755,-0.0224,-0.0364,-0.0252,-0.0084,-0.0811,-0.1202,-0.1424,-0.2313,-0.3037,-0.3539,-0.3594,-0.4015,-0.4491,-0.4491,-0.4491,-0.4491,-0.4491,-0.4491,-0.4491,-0.4491,-0.4491,-0.4491,-0.4491,-0.4491,-0.4322,0.0,0.0,0.0,-0.276,-0.2508,-0.2425,-0.2425,-0.2286,-0.2202,-0.2202,-0.1703,-0.1312,-0.1312,-0.0811,-0.0308,-0.0028,0.0,0.0,0.0,0.0,0.0,0.0,0.0,-0.0588,-0.1925,-0.212,-0.2843,-0.4236,-0.4436,-0.4491,-0.4491,-0.4491,-0.4552,-0.465,-0.4105,-0.3918,-0.3977,-0.3261,-0.3045,-0.3147,-0.2043,-0.1675,-0.1742,-0.0873,-0.0404,-0.0236,-0.0067,0.0,0.0,0.0,0.0,0.0,0.0224,0.0196,0.0,0.0,0.0,0.0,0.0,0.0,0.0,0.0,0.0,0.0,0.0,0.1563,0.1675,0.1034,0.0978,0.0,0.0056,0.0,0.0,0.0,0.0,0.0,0.0,0.0,0.0,0.0,0.0,0.0,0.0,0.0,0.0,0.0,0.0,0.0,0.0,-0.0783,-0.1062,-0.1034,-0.1675,-0.1174,-0.0084,-0.0811,-0.1507,-0.2258,-0.3707,-0.4294,-0.4377,-0.4377,-0.4436,-0.4491,-0.4491,-0.4491,-0.4491,-0.4491,-0.4491,-0.4491,-0.4491,-0.4491,-0.4491,-0.4491,-0.4491,-0.4487,-0.4377,0.0,-0.4349,-0.4267,0.0,-0.3176,-0.3176,0.0,0.0,-0.2202,-0.212,-0.2063,-0.2063,-0.2009,-0.1452,-0.0168,0.0,0.0,0.0,0.0,0.0,0.0,0.0,-0.0364,-0.1174,-0.1842,-0.2621,-0.3483,-0.4153,-0.4491,-0.4491,-0.4491,-0.4498,-0.4518,-0.469,-0.4772,-0.4765,-0.4148,-0.4317,-0.499,-0.328,-0.2978,-0.3613,-0.2744,-0.1909,-0.1073,-0.0303,0.0,0.0,0.0,0.0,0.0,0.0,0.0,0.0,0.0,0.0,0.0,0.0,0.0,0.0,0.0,0.0,0.0,0.0448,0.1118,0.1257,0.0532,0.0866,0.0783,0.0056,0.0,0.0,0.0,0.0,0.0,0.0,-0.042,-0.0643,0.0,-0.1062,0.0,0.0,0.0,0.0,0.0,-0.0838,-0.0867,-0.1284,-0.1619,-0.148,-0.1202,-0.2369,-0.1952,-0.0755,-0.1924,-0.2871,-0.3624,-0.4267,-0.4491,-0.4491,0.0,-0.4491,0.0,-0.4491,-0.4491,-0.4491,-0.4491,-0.4491,-0.4491,-0.4491,-0.4491,-0.4491,-0.4491,-0.4491,-0.4491,-0.4491,0.0,-0.4491,-0.4491,0.0,0.0,0.0,0.0,0.0,0.0,-0.3178,-0.2871,-0.2843,-0.2482,-0.1981,-0.1341,-0.1284,0.0,-0.0671,-0.0643,-0.0448,-0.0028,-0.0392,-0.0783,-0.109,-0.1396,-0.212,-0.3314,-0.3649,-0.4042,-0.4491,-0.4491,-0.4491,-0.4494,-0.4772,-0.4887,-0.4897,-0.4832,-0.5024,-0.5329,-0.4015,-0.3647,-0.3915,-0.3045,-0.2477,-0.2076,-0.1709,-0.0941,0.0,0.0,0.0,0.0,0.0,0.0,0.0,0.0,0.0,0.0,0.0,0.0,0.0,0.0,0.0,0.0308,0.0308,0.095,0.1118,0.0364,0.0783,0.0783,0.0056,0.0,0.0,0.0,0.0,-0.0084,-0.0308,-0.0838,-0.1202,-0.1396,0.0,0.0,0.0,0.0,0.0,0.0,0.0,-0.1703,-0.2204,-0.2425,-0.2202,-0.1814,-0.3121,-0.2982,-0.212,-0.301,-0.3818,-0.4491,-0.4491,-0.4491,-0.4491,-0.4491,-0.4491,0.0,-0.4491,-0.4491,-0.4491,-0.4491,-0.4491,-0.4491,-0.4491,0.0,0.0,0.0,0.0,0.0,0.0,0.0,0.0,0.0,-0.4491,0.0,0.0,0.0,0.0,0.0,0.0,-0.368,-0.3622,-0.3176,-0.2676,-0.2259,-0.2202,0.0,0.0,-0.1396,-0.109,-0.0364,-0.0811,-0.109,-0.109,-0.1284,-0.1981,-0.3259,-0.3511,-0.3901,-0.4491,-0.4491,-0.4491,-0.4494,-0.4772,-0.4887,-0.4897,-0.5259,-0.5395,-0.5362,-0.4686,-0.4384,-0.435,-0.3716,-0.328,-0.3045,-0.2778,-0.1743,-0.037,-0.037,-0.0202,0.0,0.0,0.0,0.0,0.0,0.0,0.0,0.0,0.0,0.0,0.0,0.0615,0.1062,0.1062,0.173,0.187,0.1118,0.109,0.0783,0.0056,0.0,0.0,0.0,0.0,-0.0336,-0.1062,-0.109,-0.1452,-0.2174,-0.2174,0.0,0.0,0.0,0.0,0.0,0.0,-0.2174,-0.2259,-0.2954,-0.3259,-0.3314,-0.4125,-0.4436,-0.4322,0.0,-0.3846,-0.4491,-0.4491,0.0,0.0,-0.4491,-0.4491,0.0,0.0,0.0,0.0,0.0,0.0,0.0,0.0,0.0,0.0,-0.4491,0.0,0.0,0.0,0.0,-0.4491,0.0,0.0,0.0,0.0,0.0,0.0,0.0,0.0,0.0,0.0,-0.4436,-0.3873,-0.2369,-0.2202,-0.2202,0.0,-0.2174,-0.187,-0.1118,-0.109,-0.109,-0.109,-0.1786,-0.2508,-0.3287,-0.4042,-0.446,-0.4491,-0.4491,-0.4491,-0.4494,-0.4772,-0.4887,-0.4897,-0.5259,-0.5395,-0.5395,-0.5362,-0.5359,-0.5359,-0.5329,-0.4788,-0.3882,-0.3045,-0.2108,-0.1274,-0.1274,-0.0739,0.0,0.0,0.0,0.0,0.0,0.0,0.0,0.0,0.0,0.0,0.0,0.0224,0.0364,0.0364,0.1034,0.1174,0.0448,0.0811,0.0783,0.0056,0.0,0.0,0.0,0.0,-0.0336,-0.109,-0.1591,-0.2202,-0.2982,-0.3483,-0.3735,0.0,0.0,0.0,0.0,0.0,-0.3231,-0.3707,-0.3456,-0.3372,-0.3372,-0.3624,-0.4015,-0.446,0.0,-0.4294,-0.4491,-0.4491,-0.4491,0.0,-0.4491,-0.4491,-0.4491,-0.4491,-0.4491,-0.4491,-0.4491,-0.4491,0.0,0.0,0.0,-0.4491,-0.4491,0.0,0.0,0.0,0.0,0.0,0.0,0.0,0.0,0.0,0.0,0.0,0.0,0.0,0.0,0.0,-0.4491,-0.4294,-0.379,-0.3262,-0.2926,-0.2926,-0.248,-0.1898,-0.1146,-0.109,-0.109,-0.109,-0.134,-0.2065,-0.3317,-0.3594,-0.3956,-0.4491,-0.4491,-0.4491,-0.4494,-0.4772,-0.4887,-0.4897,-0.5259,-0.5395,-0.5395,-0.5395,-0.5395,-0.5395,-0.5395,-0.5226,-0.4891,-0.4586,-0.3547,-0.2076,-0.0873,-0.0269,0.0,0.0,0.0,0.0,0.0,0.0,0.0,0.0,0.0,0.0,0.0,0.0,0.0,0.0,0.042,0.0504,0.0028,0.0448,0.0504,0.0028,0.0,0.0,0.0,0.0,-0.0476,-0.148,-0.1952,-0.2732,-0.379,-0.4267,-0.4491,0.0,0.0,0.0,0.0,0.0,-0.4015,-0.446,-0.3987,-0.379,-0.379,-0.3735,-0.4042,0.0,0.0,-0.4491,-0.4491,0.0,-0.4491,-0.4491,-0.4491,-0.4491,-0.4491,-0.4491,-0.4491,-0.4491,-0.4491,-0.4491,-0.4491,-0.4491,-0.4491,0.0,-0.4491,-0.4491,0.0,-0.4491,0.0,-0.4491,0.0,0.0,0.0,0.0,0.0,0.0,0.0,0.0,0.0,0.0,-0.4491,-0.4491,-0.4491,-0.4042,-0.3732,-0.3732,-0.3287,-0.2593,-0.1563,-0.148,-0.1368,-0.1118,-0.109,-0.1675,-0.2926,-0.2926,-0.3148,-0.368,-0.3959,-0.4098,-0.4073,-0.4598,-0.4867,-0.4897,-0.5169,-0.5344,-0.5395,-0.5395,-0.5395,-0.5362,-0.5024,-0.509,-0.5292,-0.4317,-0.3445,-0.2611,-0.1744,-0.1008,-0.0404,-0.0056,-0.0028,0.0,0.0,0.0,0.0,0.0,0.0,0.0,0.0,0.0,0.0,0.0,0.0,0.0,0.0,0.0,0.0,0.0,0.0,0.0,0.0,-0.0028,-0.0727,-0.2174,-0.2232,-0.2982,-0.4491,-0.4491,-0.4491,0.0,0.0,0.0,0.0,-0.4491,0.0,-0.4491,-0.4491,-0.4491,-0.4491,-0.4491,-0.4491,-0.4491,-0.4491,-0.4491,-0.4491,-0.4491,-0.4491,-0.4491,-0.4491,-0.4491,-0.4491,-0.4491,-0.4491,-0.4491,-0.4491,-0.4491,-0.4491,-0.4491,-0.4491,-0.4491,-0.4491,0.0,0.0,0.0,0.0,-0.4491,0.0,0.0,0.0,0.0,0.0,0.0,0.0,0.0,0.0,0.0,-0.4491,-0.4491,-0.4491,-0.4491,-0.4491,-0.4491,-0.446,-0.3846,-0.2371,-0.2232,-0.1898,0.0,-0.1146,-0.148,-0.2174,-0.2202,-0.2232,-0.2259,-0.301,-0.3372,-0.3372,-0.427,-0.4772,-0.4894,-0.5032,-0.5216,-0.5395,-0.5395,-0.5395,-0.5326,-0.4453,-0.4553,-0.509,-0.2509,-0.2009,-0.2845,-0.3547,-0.2711,-0.1106,-0.0923,-0.0364,0.0,0.0,0.0,0.0,0.0,0.0,0.0,0.0,0.0,0.0,0.0,0.0,0.0,0.0,0.0,0.0,0.0,0.0,0.0,0.0,-0.0532,-0.1257,-0.2174,-0.2788,-0.3566,-0.4491,-0.4491,-0.4491,-0.4491,0.0,0.0,0.0,0.0,-0.4491,-0.4491,-0.4491,-0.4491,-0.4491,-0.4491,-0.4491,-0.4491,0.0,-0.4491,-0.4491,-0.4491,-0.4491,-0.4491,-0.4491,-0.4491,-0.4491,-0.4491,-0.4491,-0.4491,-0.4491,-0.4491,-0.4491,-0.4491,-0.4491,-0.4491,-0.4491,-0.4491,-0.4491,0.0,0.0,0.0,0.0,0.0,0.0,0.0,0.0,0.0,0.0,0.0,0.0,0.0,-0.4491,-0.4491,-0.4491,-0.4491,-0.4491,-0.4491,-0.3959,-0.3456,-0.3037,-0.2508,-0.212,-0.1924,0.0,-0.2009,-0.2202,-0.2202,-0.2454,-0.301,-0.3262,-0.3677,-0.4184,-0.453,-0.4772,-0.4894,-0.5032,-0.5216,-0.5395,-0.5395,-0.5395,-0.5395,-0.5126,-0.4788,-0.435,-0.435,-0.4082,-0.3447,-0.1678,-0.074,-0.0303,-0.1729,-0.0978,-0.0392,-0.0056,0.0,0.0,0.0,0.0,0.0,0.0,0.0,0.0,0.0,0.0,0.0,0.0,0.0,0.0,0.0,0.0,0.0,0.0,-0.0699,-0.1452,-0.2174,-0.2982,-0.3763,-0.4491,-0.4491,0.0,-0.4491,0.0,0.0,0.0,0.0,-0.4491,-0.4491,-0.4491,-0.4491,-0.4491,-0.4491,-0.4491,0.0,-0.4491,-0.4491,-0.4491,-0.4491,-0.4491,-0.4491,-0.4491,-0.4491,-0.4491,-0.4491,-0.4491,-0.4491,-0.4491,-0.4708,-0.4869,-0.457,-0.4952,-0.5281,-0.4653,-0.4732,-0.4869,-0.457,-0.4491,-0.4491,0.0,-0.4491,-0.4491,0.0,0.0,0.0,-0.4491,0.0,0.0,-0.4491,-0.4491,-0.4491,-0.4491,-0.4491,-0.4491,-0.4491,-0.4098,-0.368,-0.3372,-0.2926,0.0,0.0,0.0,-0.1898,-0.1257,-0.187,-0.2259,-0.2343,-0.301,-0.3566,-0.3987,-0.4407,-0.467,-0.4823,-0.4941,-0.5118,-0.5264,-0.5365,-0.5395,-0.5326,-0.4553,-0.4148,-0.3982,-0.3713,-0.3047,-0.2079,-0.0572,-0.0236,-0.0504,-0.2506,-0.1758,-0.1006,-0.028,-0.014,-0.0112,-0.0028,0.0,0.0,0.0,0.0,0.0,0.0,0.0,0.0,0.0,0.0,0.0,0.0,0.0,0.0,0.0,-0.0811,-0.1535,-0.2174,-0.3095,-0.3846,-0.4491,-0.4491,0.0,0.0,0.0,0.0,0.0,0.0,0.0,-0.4491,-0.4491,-0.4491,-0.4491,-0.4491,-0.4491,-0.4491,-0.4491,-0.4491,-0.4491,-0.4491,-0.4491,-0.4491,-0.4491,-0.4491,-0.4491,-0.4491,-0.4491,-0.4515,-0.4598,-0.5058,-0.5406,-0.4897,-0.5605,-0.615,-0.4924,-0.5003,-0.5218,-0.4625,-0.4491,-0.4491,-0.4491,-0.4491,-0.4491,0.0,0.0,0.0,-0.4491,0.0,0.0,-0.4491,-0.4491,-0.4491,-0.4491,-0.4491,0.0,-0.4491,-0.4491,-0.4236,-0.3594,-0.3483,0.0,0.0,0.0,-0.1703,-0.0336,-0.1535,-0.1952,-0.1396,0.0,-0.3372,-0.3456,-0.4153,-0.4513,-0.4578,-0.479,-0.4934,-0.4979,-0.5261,-0.5395,-0.5259,-0.358,-0.3245,-0.3647,-0.1842,-0.0739,-0.0168,-0.0034,-0.0471,-0.1006,-0.3453,-0.2565,-0.1786,-0.1034,-0.0895,-0.0699,-0.0084,0.0,0.0,0.0,0.0,0.0,0.0,0.0,0.0,0.0,0.0,0.0,0.0,0.0,0.0,0.0,-0.1284,-0.2063,-0.2202,-0.3594,-0.4377,-0.4491,0.0,0.0,0.0,0.0,0.0,0.0,0.0,0.0,-0.4491,-0.4491,0.0,-0.4491,-0.4491,-0.4491,-0.4491,-0.4491,-0.4491,-0.4491,-0.4491,-0.4491,-0.4491,-0.4491,-0.4491,-0.4491,-0.4491,-0.4491,-0.4598,-0.5164,-0.5406,-0.5597,-0.6095,-0.5955,-0.5624,-0.5378,-0.5003,-0.4653,-0.4515,-0.4491,-0.4491,-0.4491,-0.4491,-0.4491,-0.4491,0.0,0.0,0.0,0.0,0.0,-0.4491,-0.4491,-0.4491,-0.4491,-0.4491,-0.4491,-0.4491,-0.4491,-0.4432,-0.4322,-0.4294,0.0,0.0,0.0,-0.2702,0.0,-0.2063,0.0,0.0,0.0,-0.368,-0.4294,-0.4436,-0.4257,-0.3812,-0.4576,-0.4652,-0.4238,-0.5062,-0.5395,-0.5329,-0.4217,-0.3447,-0.2744,-0.0941,-0.0572,-0.0973,-0.0269,-0.0101,-0.0202,-0.3619,-0.3037,-0.2425,-0.1284,-0.109,-0.0838,-0.0112,0.0,0.0,0.0,0.0,0.0,0.0,0.0,0.0,0.0,0.0,0.0,0.0,0.0,-0.0168,-0.056,-0.1619,-0.2369,-0.276,-0.3901,-0.4491,-0.4491,0.0,0.0,0.0,0.0,0.0,0.0,0.0,-0.4491,0.0,0.0,0.0,-0.4491,-0.4491,-0.4491,-0.4491,-0.4491,-0.4491,-0.4491,-0.4491,-0.4491,-0.4491,-0.4491,-0.4491,-0.4491,-0.4491,-0.4732,-0.5085,-0.5406,-0.6032,-0.6632,-0.6615,-0.6907,-0.6923,-0.5783,-0.5546,-0.5391,-0.4653,-0.4491,-0.4491,-0.4491,-0.4491,-0.4491,-0.4491,-0.4491,0.0,0.0,0.0,0.0,0.0,-0.4491,-0.4491,-0.4491,-0.4491,-0.4491,-0.4491,-0.4491,-0.4491,-0.4491,-0.4491,0.0,0.0,0.0,-0.34,0.0,0.0,0.0,0.0,0.0,0.0,-0.4491,-0.407,-0.3937,-0.4062,-0.424,-0.4148,-0.3836,-0.4404,-0.4417,-0.3915,-0.2978,-0.2076,-0.1209,-0.0337,-0.0269,-0.0572,-0.0168,0.0,0.0,-0.4058,-0.3754,-0.3257,-0.1619,-0.134,-0.1034,-0.014,0.0,0.0,0.0,0.0,0.0,0.0,0.0,0.0,0.0,0.0,0.0,0.0,0.0,-0.0336,-0.1062,-0.1814,-0.2538,-0.3287,-0.4098,-0.4491,-0.4491,0.0,0.0,0.0,0.0,0.0,0.0,0.0,0.0,0.0,0.0,-0.4491,-0.4491,-0.4491,-0.4491,-0.4491,-0.4491,-0.4491,-0.4491,-0.4491,-0.4491,-0.4491,-0.4491,-0.4491,-0.4491,-0.4491,-0.4869,-0.5351,-0.5651,-0.6551,-0.7396,-0.7128,-0.7696,-0.791,-0.6167,-0.5955,-0.5855,-0.4763,-0.4491,-0.4491,-0.4491,-0.4491,-0.4491,-0.4491,-0.4491,0.0,0.0,0.0,0.0,0.0,-0.4491,-0.4491,-0.4491,-0.4491,-0.4491,-0.4491,-0.4491,-0.4491,-0.4491,-0.4491,0.0,-0.3594,0.0,0.0,0.0,0.0,-0.4184,-0.3566,0.0,-0.4432,-0.4267,-0.3622,-0.3539,-0.3996,-0.3671,-0.3472,-0.339,-0.3624,-0.3211,-0.2344,-0.1608,-0.0772,0.0,0.0,0.0,0.0,0.0,0.0,0.0,-0.5592,-0.5292,-0.4632,-0.2478,-0.2093,-0.1619,-0.0224,0.0,0.0,0.0,0.0,0.0,0.0,0.0,0.0,0.0,0.0,0.0,0.0,0.0,-0.0336,-0.1062,-0.1814,-0.2538,-0.3287,-0.4098,-0.4491,0.0,0.0,-0.4491,0.0,0.0,0.0,0.0,0.0,0.0,0.0,-0.4491,-0.4491,-0.4491,-0.4491,-0.4491,-0.4491,-0.4491,-0.4491,-0.4491,-0.4491,-0.4491,-0.4491,-0.4491,-0.4491,-0.4491,-0.4491,-0.4546,-0.4842,-0.6122,-0.6588,-0.6966,-0.8235,-0.7723,-0.675,-0.6561,-0.5582,-0.4653,-0.4515,-0.4491,-0.4491,-0.4491,-0.4491,-0.4491,-0.4491,-0.4491,-0.4491,0.0,0.0,0.0,0.0,-0.4491,-0.4491,-0.4491,-0.4491,-0.4491,-0.4491,-0.4491,-0.4491,-0.4491,-0.4491,0.0,0.0,0.0,0.0,-0.4294,0.0,-0.446,-0.4377,-0.446,-0.4153,-0.3511,-0.3372,-0.2982,-0.2432,-0.2567,-0.2611,-0.262,-0.2743,-0.231,-0.1441,-0.134,-0.0772,0.0,0.0,0.0,0.0,0.0,0.0,0.0,-0.5706,-0.5164,0.0,0.0,0.0,0.0,0.0,-0.0671,-0.0504,-0.0056,0.0,0.0,0.0,0.0,0.0,0.0,0.0,0.0,0.0,0.0,-0.0532,-0.1703,-0.2035,-0.276,-0.3984,-0.4349,-0.4491,0.0,0.0,0.0,0.0,0.0,0.0,0.0,0.0,-0.4491,-0.4491,-0.4491,-0.4491,-0.4491,-0.4491,-0.4491,-0.4491,-0.4491,-0.4491,-0.4491,-0.4491,-0.4491,-0.4491,-0.4491,-0.4491,-0.457,-0.4976,-0.5414,-0.5959,-0.6961,-0.7584,-0.8043,-0.8646,-0.8374,-0.7696,-0.6831,-0.6182,-0.5527,-0.468,-0.4491,-0.4491,-0.4491,-0.4491,-0.4491,-0.4491,-0.4491,-0.4491,-0.4491,0.0,0.0,0.0,0.0,-0.4491,-0.4491,-0.4491,-0.4491,-0.4491,-0.4491,-0.4491,-0.4491,-0.4491,0.0,0.0,0.0,0.0,-0.4491,0.0,-0.4491,-0.4491,-0.4491,-0.4349,-0.4042,-0.3093,-0.2702,-0.2847,-0.2109,-0.1771,-0.1743,-0.1288,-0.0874,-0.0504,-0.0504,-0.0303,0.0,0.0,0.0,0.0,0.0,0.0,0.0,-0.6303,0.0,-0.5054,0.0,-0.3613,-0.3116,-0.1646,-0.1424,-0.1229,-0.0727,-0.0643,-0.0476,-0.0056,0.0,0.0,0.0,0.0,0.0,0.0,-0.0196,-0.0895,-0.2147,-0.2397,0.0,-0.446,-0.4491,-0.4491,-0.4491,-0.4491,0.0,0.0,0.0,0.0,0.0,-0.4491,-0.4491,-0.4491,-0.4491,-0.4491,-0.4491,-0.4491,-0.4491,-0.4491,-0.4491,-0.4491,-0.4491,-0.4491,-0.4491,-0.4491,-0.4491,-0.4625,-0.4869,-0.5351,-0.5846,-0.6475,-0.7423,-0.8076,-0.854,-0.8752,-0.8646,-0.8235,-0.7182,-0.6583,-0.6014,-0.5034,-0.4653,-0.4491,-0.4491,-0.4491,-0.4491,-0.4491,-0.4491,-0.4491,-0.4491,0.0,0.0,0.0,-0.4491,-0.4491,-0.4491,-0.4491,-0.4491,-0.4491,-0.4491,-0.4491,-0.4491,0.0,0.0,0.0,0.0,0.0,0.0,0.0,0.0,-0.4491,-0.4491,-0.4267,-0.3818,-0.273,-0.2371,-0.2623,-0.1664,-0.111,-0.0882,-0.0267,0.0,0.0,0.0,0.0,0.0,0.0,0.0,0.0,0.0,0.0,0.0,-0.7803,-0.767,-0.6977,-0.4781,-0.4399,-0.3877,-0.2423,-0.2174,-0.2174,-0.2174,-0.2174,-0.1619,-0.0168,0.0,0.0,0.0,0.0,0.0,0.0,-0.0671,-0.1424,0.0,0.0,-0.3677,-0.4491,-0.4491,-0.4491,-0.4491,0.0,0.0,-0.4491,0.0,-0.4491,-0.4491,-0.4491,-0.4491,-0.4491,-0.4491,-0.4491,-0.4491,-0.4491,-0.4491,-0.4491,-0.4491,-0.4491,-0.4491,-0.4491,-0.4491,-0.4491,-0.4491,-0.4948,-0.5483,-0.5487,-0.5515,-0.5814,-0.7257,-0.7696,-0.7883,-0.8586,-0.8268,-0.7696,-0.7696,-0.66,-0.5515,-0.5487,-0.4976,-0.4491,-0.4491,-0.4491,-0.4491,-0.4491,-0.4491,-0.4491,-0.4491,0.0,0.0,0.0,-0.4491,0.0,-0.4491,-0.4491,-0.4491,-0.4491,-0.4491,-0.4491,0.0,0.0,0.0,0.0,0.0,0.0,-0.4491,-0.4491,0.0,-0.4491,-0.4491,-0.3735,-0.2232,-0.2202,-0.1813,-0.112,-0.1106,-0.07,0.0,0.0,0.0,0.0,0.0,0.0,0.0,0.0,0.0,0.0,0.0,0.0,0.0,-0.775,-0.7289,-0.6718,-0.6027,-0.5479,-0.482,-0.3853,-0.3307,-0.2815,-0.2258,-0.2202,-0.2009,-0.1563,-0.1062,-0.056,0.0,0.0,0.0,0.0,-0.0224,-0.0895,-0.2147,-0.2425,-0.3151,-0.446,-0.4491,-0.4491,-0.4491,0.0,0.0,0.0,-0.4491,-0.4491,-0.4491,-0.4491,-0.4491,-0.4491,-0.4491,-0.4491,-0.4491,-0.4491,-0.4491,-0.4491,-0.4491,-0.4491,-0.4491,-0.4491,-0.4491,-0.4491,-0.4491,-0.4653,-0.4976,-0.5959,-0.6605,-0.7203,-0.8156,-0.8454,-0.8507,-0.8725,-0.8619,-0.8321,-0.783,-0.7343,-0.674,-0.5733,-0.4976,-0.4491,-0.4491,-0.4491,-0.4491,-0.4491,-0.4491,-0.4491,-0.4491,-0.4491,0.0,-0.4491,0.0,-0.4491,-0.4491,-0.4491,-0.4491,-0.4491,-0.4491,0.0,0.0,0.0,0.0,0.0,0.0,0.0,0.0,-0.4491,0.0,-0.4491,-0.4491,-0.3984,-0.2954,-0.2454,-0.1554,-0.0348,-0.0363,-0.0221,0.0,0.0,0.0,0.0,0.0,0.0,0.0,0.0,0.0,0.0,0.0,0.0,0.0,-0.8103,-0.775,-0.7343,-0.7074,-0.6389,-0.5674,-0.4925,-0.425,-0.3624,-0.3121,-0.3065,-0.2954,-0.2649,-0.2232,0.0,-0.0504,-0.042,-0.0308,-0.0028,-0.0252,-0.095,-0.2147,-0.2482,-0.3231,-0.446,-0.4491,0.0,-0.4491,-0.4491,-0.4491,-0.4491,-0.4491,-0.4491,-0.4491,-0.4491,-0.4491,-0.4491,-0.4491,-0.4491,-0.4491,-0.4491,-0.4491,-0.4491,-0.4491,-0.4491,-0.4491,-0.4491,-0.4491,-0.4491,-0.4491,-0.4846,-0.5445,-0.6317,-0.7289,-0.8209,-0.8672,-0.8804,-0.8804,-0.8804,-0.8804,-0.8699,-0.8235,-0.791,-0.7316,-0.5837,-0.5164,-0.4814,-0.4543,-0.4491,-0.4491,-0.4491,-0.4491,-0.4491,-0.4491,-0.4491,-0.4491,-0.4491,0.0,-0.4491,-0.4491,0.0,0.0,0.0,-0.4491,-0.4491,0.0,0.0,0.0,0.0,0.0,0.0,-0.4491,-0.4491,0.0,-0.4491,-0.4491,-0.3959,-0.2871,-0.187,-0.0888,0.0,0.0,0.0,0.0,0.0,0.0,0.0,0.0,0.0,0.0,0.0,0.0,0.0,0.0,0.0,0.0,-0.8811,-0.8824,-0.8612,0.0,-0.7155,0.0,-0.576,-0.503,-0.457,-0.457,-0.4515,-0.4208,-0.3456,-0.3428,-0.2871,-0.1396,0.0,0.0,0.0,-0.0643,-0.1341,-0.2091,-0.2843,-0.3624,-0.4405,-0.4405,-0.4432,-0.4491,-0.4491,-0.4491,-0.4491,-0.4491,-0.4491,-0.4491,-0.4491,-0.4491,-0.4491,-0.4491,-0.4491,-0.4491,-0.4491,-0.4515,-0.457,-0.4515,-0.4515,-0.457,-0.4515,-0.4491,-0.4491,-0.4491,-0.5391,-0.6534,-0.6588,-0.7584,-0.8725,-0.8778,-0.8804,-0.8804,-0.8804,-0.8804,-0.8804,-0.8804,-0.8209,-0.7257,-0.5814,-0.546,-0.5242,-0.4625,-0.4491,-0.4491,-0.4491,-0.4491,-0.4491,-0.4491,-0.4491,-0.4491,-0.4491,-0.4491,-0.4491,0.0,0.0,0.0,-0.4491,-0.4491,-0.4491,0.0,0.0,0.0,0.0,0.0,-0.4491,-0.4491,-0.4491,-0.4491,-0.4491,-0.4491,-0.3735,-0.2174,-0.0699,0.0,0.0,0.0,0.0,0.0,0.0,0.0,0.0,0.0,0.0,0.0,0.0,0.0,0.0,0.0,0.0,0.0,0.0,0.0,-0.8983,-0.8599,-0.7943,-0.7369,-0.7203,-0.6086,-0.5273,-0.5273,-0.4814,-0.4436,-0.4236,-0.4236,-0.3873,-0.2926,-0.1786,-0.0783,-0.0056,-0.0168,-0.0588,-0.134,-0.1535,-0.2259,-0.3566,-0.3594,-0.3873,-0.4491,-0.4491,-0.4491,-0.4491,-0.4491,-0.4491,-0.4491,-0.4491,-0.4491,-0.4491,-0.4491,-0.4491,-0.4491,-0.4491,-0.4814,-0.5218,-0.4704,-0.4814,-0.5191,-0.4677,-0.4491,-0.4491,-0.4491,-0.5062,-0.5869,-0.6421,-0.7235,-0.8076,-0.8646,-0.8804,-0.8804,-0.8804,-0.8804,-0.8804,-0.8804,-0.783,-0.661,-0.5706,-0.5109,-0.4677,-0.4543,-0.4491,-0.4491,-0.4491,-0.4491,-0.4491,-0.4491,-0.4491,-0.4491,-0.4491,-0.4491,-0.4491,0.0,-0.4491,-0.4491,-0.4491,-0.4491,-0.4491,0.0,0.0,0.0,0.0,-0.4491,-0.4491,-0.4491,-0.4491,-0.4491,-0.4491,-0.4491,-0.3735,-0.2174,-0.0699,0.0,0.0,0.0,0.0,0.0,0.0,0.0,0.0,0.0,0.0,0.0,0.0,0.0,0.0,0.0,0.0,0.0,-0.8864,-0.9011,-0.9124,-0.8858,-0.8182,-0.7696,-0.7696,-0.674,-0.6009,-0.6009,-0.5382,-0.4948,-0.4948,-0.4677,-0.4184,-0.3428,-0.2286,-0.1424,-0.1034,-0.0364,-0.0643,-0.2091,-0.1786,-0.2313,-0.3818,-0.3846,-0.407,-0.4491,-0.4491,-0.4491,-0.4491,-0.4491,-0.4491,-0.4491,-0.4491,-0.4491,-0.4491,-0.4491,-0.468,-0.4921,-0.4625,-0.5113,-0.59,-0.4869,-0.4924,-0.5406,-0.4732,-0.4491,-0.4491,-0.4491,-0.5171,-0.6064,-0.6475,-0.7343,-0.8289,-0.8672,-0.8804,-0.8804,-0.8804,-0.8804,-0.8804,-0.8804,-0.8209,-0.7316,-0.6253,-0.5714,-0.5281,-0.4625,-0.4491,-0.4491,-0.4491,-0.4491,-0.4491,-0.4491,-0.4491,-0.4491,-0.4491,-0.4491,-0.4491,-0.4491,-0.4491,-0.4491,-0.4491,-0.4491,-0.4491,-0.4491,-0.4491,0.0,-0.4491,-0.4491,-0.4491,-0.4491,-0.4491,-0.4491,-0.4491,-0.379,-0.2871,-0.1675,-0.054,0.0,0.0,0.0,0.0,0.0,0.0,0.0,0.0,0.0,0.0,0.0,0.0,0.0,0.0,0.0,0.0,0.0,-0.8864,-0.9011,-0.9124,-0.8858,-0.8289,-0.7857,-0.7857,-0.7235,-0.6777,-0.6777,-0.6118,-0.5624,-0.5515,-0.5003,-0.4346,-0.3539,-0.2815,-0.2343,-0.2202,-0.0923,-0.1034,-0.2954,-0.2397,-0.2704,-0.4125,-0.4377,-0.4491,-0.4491,-0.4491,-0.4491,-0.4491,-0.4491,-0.4491,-0.4491,-0.4491,-0.4491,-0.4519,-0.4598,-0.4976,-0.546,-0.5003,-0.5523,-0.648,-0.5281,-0.5113,-0.5433,-0.4866,-0.4598,-0.4519,-0.4625,-0.5523,-0.6615,-0.6723,-0.7696,-0.8804,-0.8804,-0.8804,-0.8804,-0.8804,-0.8725,-0.8646,-0.8646,-0.848,-0.7963,-0.6718,-0.6367,-0.5937,-0.4736,-0.4491,-0.4491,-0.4491,-0.4491,-0.4491,-0.4491,-0.4491,-0.4491,-0.4491,0.0,-0.4491,-0.4491,-0.4491,-0.4491,-0.4491,-0.4491,-0.4491,-0.4491,-0.4491,-0.4491,-0.4491,-0.4491,-0.4491,-0.4491,-0.4491,-0.446,-0.4349,-0.2926,-0.184,-0.109,-0.0347,0.0,0.0,0.0,0.0,0.0,0.0,0.0,0.0,0.0,0.0,0.0,0.0,0.0,0.0,0.0,0.0,0.0,-0.8864,-0.9011,-0.9124,-0.8858,-0.8699,-0.8619,-0.8619,-0.7996,-0.7536,-0.7536,-0.688,-0.6199,-0.5569,-0.5406,-0.5054,-0.4377,-0.3652,-0.2926,-0.2232,-0.1396,-0.109,-0.1452,-0.134,-0.1675,-0.2538,-0.3846,-0.4491,-0.4491,-0.4491,-0.4491,-0.4491,-0.4491,-0.4491,-0.4491,-0.4491,-0.4491,-0.4546,-0.5109,-0.5406,-0.5542,-0.6068,-0.6399,-0.6588,-0.6372,-0.5955,-0.5483,-0.5378,-0.4976,-0.4598,-0.5164,-0.59,-0.6696,-0.7343,-0.8103,-0.8804,-0.8804,-0.8804,-0.8804,-0.8804,-0.8342,-0.7883,-0.7883,-0.6929,-0.5946,-0.5733,-0.5222,-0.4763,-0.4546,-0.4491,-0.4491,-0.4491,-0.4491,-0.4491,-0.4491,-0.4491,-0.4491,-0.4491,0.0,-0.4491,-0.4491,-0.4491,-0.4491,-0.4491,-0.4491,-0.4491,-0.4491,-0.4491,-0.4491,-0.4491,-0.4491,-0.4491,-0.4491,-0.4491,-0.4211,-0.3566,-0.2649,-0.184,-0.109,-0.0347,0.0,0.0,0.0,0.0,0.0,0.0,0.0,0.0,0.0,0.0,0.0,0.0,0.0,0.0,0.0,0.0,0.0,-0.8864,-0.9011,-0.9124,-0.8858,-0.8804,-0.8804,-0.8804,-0.8507,-0.8295,-0.8295,-0.7643,-0.7069,-0.6713,-0.5977,-0.5378,-0.5058,-0.4398,-0.3846,-0.3456,-0.2343,-0.2063,-0.2899,-0.2508,-0.2649,-0.3428,-0.4125,-0.4491,-0.4491,-0.4491,-0.4491,-0.4491,-0.4491,-0.4491,-0.4491,-0.4491,-0.4491,-0.4515,-0.4842,-0.5414,-0.6091,-0.6036,-0.6713,-0.7696,-0.6912,-0.6394,-0.6036,-0.5651,-0.5058,-0.4598,-0.5273,-0.5982,-0.6723,-0.7477,-0.8209,-0.8804,-0.8804,-0.8804,-0.8804,-0.8804,-0.8566,-0.8209,-0.7803,-0.7176,-0.6465,-0.5678,-0.5273,-0.4948,-0.457,-0.4491,-0.4491,-0.4491,-0.4491,-0.4491,-0.4491,-0.4491,0.0,0.0,-0.4491,-0.4491,-0.4491,-0.4491,-0.4491,-0.4491,-0.4491,-0.4491,-0.4491,-0.4491,-0.4491,-0.4491,-0.4491,-0.4491,-0.4491,-0.4491,-0.3929,-0.276,-0.2397,-0.1634,-0.0518,-0.0149,0.0,0.0,0.0,0.0,0.0,0.0,0.0,0.0,0.0,0.0,0.0,0.0,0.0,0.0,0.0,0.0,0.0,-0.8851,-0.8958,-0.9044,-0.8844,-0.8804,-0.8804,-0.8804,-0.8804,-0.8804,-0.8804,-0.8315,-0.7883,-0.7723,-0.6686,-0.595,-0.576,-0.5277,-0.4928,-0.4732,-0.3616,-0.334,-0.4211,-0.3649,-0.368,-0.4491,-0.4491,-0.4491,-0.4491,-0.4491,-0.4491,-0.4491,-0.4491,-0.4491,-0.4491,-0.4491,-0.4491,-0.4515,-0.4846,-0.5609,-0.6588,-0.6357,-0.7171,-0.8427,-0.7477,-0.6885,-0.6529,-0.5955,-0.5328,-0.4814,-0.5324,-0.5982,-0.6723,-0.7477,-0.8103,-0.8586,-0.8752,-0.8672,-0.8593,-0.8752,-0.8672,-0.8401,-0.783,-0.745,-0.6902,-0.576,-0.5378,-0.5109,-0.4598,-0.4491,-0.4491,-0.4491,-0.4491,-0.4491,-0.4491,0.0,0.0,0.0,-0.4491,-0.4491,-0.4491,-0.4491,-0.4491,-0.4491,-0.4491,-0.4491,-0.4491,-0.4491,-0.4491,-0.4491,-0.4491,-0.4491,-0.4491,-0.4491,-0.3763,-0.2204,-0.2193,-0.146,0.0,0.0,0.0,0.0,0.0,0.0,0.0,0.0,0.0,0.0,0.0,0.0,0.0,0.0,0.0,0.0,0.0,0.0,0.0,-0.8811,-0.8824,-0.8831,-0.8811,-0.8804,-0.8804,-0.8804,-0.8804,-0.8804,-0.8804,-0.8752,-0.8454,-0.7777,-0.761,-0.7262,-0.6588,-0.648,-0.615,-0.546,-0.532,-0.4718,-0.3539,-0.3372,-0.368,-0.4491,-0.4491,-0.4491,-0.4491,-0.4491,-0.4491,-0.4491,-0.4491,-0.4491,-0.4491,-0.4491,-0.4491,-0.457,-0.5882,-0.6507,-0.6723,-0.8017,-0.8235,-0.783,-0.8427,-0.7777,-0.6588,-0.6534,-0.6036,-0.5433,-0.5483,-0.5982,-0.6723,-0.7477,-0.775,-0.791,-0.8586,-0.8315,-0.7943,-0.8619,-0.8295,-0.7777,-0.7723,-0.6681,-0.5624,-0.5511,-0.503,-0.457,-0.4519,-0.4491,-0.4491,-0.4491,-0.4491,-0.4491,-0.4491,0.0,0.0,-0.4491,-0.4491,-0.4491,-0.4491,-0.4491,-0.4491,-0.4491,-0.4491,-0.4491,-0.4491,-0.4491,-0.4491,-0.4491,-0.4491,-0.4491,-0.4491,-0.4491,-0.3763,-0.2204,-0.2214,-0.1463,0.0,0.0,0.0,0.0,0.0,0.0,0.0,0.0,0.0,0.0,0.0,0.0,0.0,0.0,0.0,0.0,0.0,0.0,0.0,-0.9413,-0.9413,-0.929,-0.8883,-0.9491,-0.9762,-0.8936,-0.9159,-0.9256,-0.8857,-0.8804,-0.8699,-0.8401,-0.7969,-0.7589,-0.7316,-0.6858,-0.6475,-0.6199,-0.576,-0.5078,-0.4125,-0.407,-0.4181,-0.4491,-0.4491,-0.4491,-0.4491,-0.4491,-0.4491,-0.4491,-0.4491,-0.4491,-0.4491,-0.4491,-0.4491,-0.457,-0.5519,-0.6177,-0.6642,-0.7208,-0.7803,-0.8374,-0.8182,-0.7482,-0.6588,-0.6588,-0.585,-0.4948,-0.5351,-0.5678,-0.6036,-0.6772,-0.702,-0.7074,-0.7343,-0.7235,-0.7074,-0.7369,-0.7235,-0.6912,-0.6443,-0.5923,-0.5378,-0.4976,-0.468,-0.4491,-0.4491,-0.4491,-0.4491,-0.4491,-0.4491,-0.4491,-0.4491,0.0,-0.4491,-0.4491,-0.4491,-0.4491,-0.4491,-0.4491,-0.4491,-0.4491,-0.4491,-0.4491,-0.4491,-0.4491,-0.4491,-0.4491,-0.4491,-0.4491,-0.4491,-0.401,-0.3247,-0.2215,-0.1749,-0.1018,0.0,0.0,0.0,0.0,0.0,0.0,0.0,0.0,0.0,0.0,0.0,0.0,0.0,0.0,0.0,0.0,0.0,0.0,0.0,-1.0115,-1.0115,-0.9969,-0.9517,-1.0192,-1.0491,-0.9562,-0.9814,-0.9943,-0.9491,-0.9237,-0.9106,-0.9106,-0.8474,-0.8049,-0.8049,-0.7589,-0.7182,-0.6966,-0.6253,-0.5437,-0.4546,-0.4491,-0.4491,-0.4491,-0.4491,-0.4491,-0.4491,-0.4491,-0.4491,-0.4491,-0.4491,-0.4491,-0.4491,-0.4491,-0.4625,-0.4869,-0.5546,-0.6281,-0.6939,-0.6939,-0.7696,-0.8725,-0.799,-0.7375,-0.6912,-0.6669,-0.5823,-0.4838,-0.5109,-0.5324,-0.5597,-0.6091,-0.6421,-0.6507,-0.6073,-0.6095,-0.6204,-0.5987,-0.5937,-0.5878,-0.5569,-0.5515,-0.5324,-0.4653,-0.4491,-0.4491,-0.4491,-0.4491,-0.4491,-0.4491,-0.4491,-0.4491,-0.4491,-0.4491,-0.4491,-0.4491,-0.4491,-0.4491,-0.4491,-0.4491,-0.4491,-0.4491,-0.4491,-0.4491,-0.4491,-0.4491,-0.4491,-0.4491,-0.4491,-0.4511,-0.4559,-0.353,-0.2751,-0.2295,-0.1511,-0.0742,0.0,0.0,0.0,0.0,0.0,0.0,0.0,0.0,0.0,0.0,0.0,0.0,0.0,0.0,0.0,0.0,0.0,0.0,0.0,-1.0813,-1.0813,-1.0813,-1.0788,-1.0813,-1.0813,-1.0788,-1.0788,-1.0813,-1.0788,-1.0218,-0.9814,-0.9814,-0.9211,-0.8811,-0.8811,-0.8804,-0.848,-0.775,-0.702,-0.5991,-0.457,-0.4519,-0.4519,-0.4519,-0.4491,-0.4491,-0.4491,-0.4491,-0.4491,-0.4491,-0.4491,-0.4491,-0.4491,-0.4519,-0.4869,-0.5542,-0.6285,-0.702,-0.7696,-0.7696,-0.8129,-0.8725,-0.799,-0.7696,-0.7589,-0.6858,-0.6118,-0.5378,-0.4732,-0.4948,-0.5487,-0.5487,-0.5982,-0.6317,-0.4901,-0.4976,-0.5351,-0.468,-0.4491,-0.4653,-0.5324,-0.5487,-0.5324,-0.4653,-0.4491,-0.4491,-0.4491,-0.4491,-0.4491,-0.4491,-0.4491,-0.4491,-0.4491,-0.4491,-0.4491,-0.4491,-0.4491,-0.4491,-0.4491,-0.4491,-0.4491,-0.4491,-0.4491,-0.4491,-0.4491,-0.4491,-0.4491,-0.4491,-0.4491,-0.4563,-0.4684,-0.3076,-0.2298,-0.2506,-0.1577,-0.0709,0.0,0.0,0.0,0.0,0.0,0.0,0.0,0.0,0.0,0.0,0.0,0.0,0.0,0.0,0.0,0.0,0.0,0.0,0.0,-1.1491,-1.1491,-1.1366,-1.0889,-1.1617,-1.195,-1.0948,-1.1191,-1.1341,-1.0864,-1.0644,-1.0491,-1.0491,-0.9917,-0.951,-0.951,-0.9087,-0.848,-0.775,-0.7482,-0.6966,-0.6018,-0.5523,-0.5246,-0.5191,-0.4732,-0.4491,-0.4491,-0.4491,-0.4491,-0.4491,-0.4491,-0.4491,-0.4515,-0.5003,-0.5328,-0.5597,-0.6853,-0.7503,-0.7696,-0.7696,-0.8129,-0.8725,-0.799,-0.7369,-0.6885,-0.6669,-0.5823,-0.4759,-0.457,-0.4625,-0.4787,-0.4787,-0.4952,-0.5034,-0.4625,-0.4653,-0.4759,-0.4543,-0.4491,-0.4546,-0.4759,-0.4787,-0.4732,-0.4546,-0.4491,-0.4491,-0.4491,-0.4491,-0.4491,-0.4491,-0.4491,-0.4491,-0.4491,-0.4491,-0.4491,-0.4491,-0.4491,-0.4491,-0.4491,-0.4491,-0.4491,-0.4491,-0.4491,-0.4491,-0.4491,-0.4491,-0.4491,-0.4491,-0.4593,-0.4672,-0.4691,-0.3212,-0.243,-0.2506,-0.1063,-0.0228,0.0,0.0,0.0,0.0,0.0,0.0,0.0,0.0,0.0,0.0,0.0,0.0,0.0,0.0,0.0,0.0,0.0,0.0,0.0,-1.2236,-1.2236,-1.2113,-1.1692,-1.2329,-1.2618,-1.1767,-1.1965,-1.2089,-1.1692,-1.1375,-1.1191,-1.1191,-1.0364,-0.9788,-0.9788,-0.9185,-0.8619,-0.8156,-0.8129,-0.7943,-0.7482,-0.6799,-0.6281,-0.5955,-0.555,-0.5199,-0.4893,-0.5199,-0.5171,-0.4893,-0.5199,-0.5336,-0.5336,-0.5764,-0.6091,-0.6438,-0.7316,-0.7857,-0.8103,-0.7803,-0.8129,-0.8699,-0.767,-0.6993,-0.6561,-0.6258,-0.5441,-0.4491,-0.4491,-0.4491,-0.4491,-0.4491,-0.4491,-0.4491,-0.4491,-0.4491,-0.4491,-0.4491,-0.4491,-0.4491,-0.4491,-0.4491,-0.4491,-0.4491,-0.4491,-0.4491,-0.4491,-0.4491,-0.4491,-0.4491,-0.4491,-0.4491,-0.4491,-0.4491,-0.4491,-0.4491,-0.4491,-0.4491,-0.4491,-0.4491,-0.4491,-0.4491,-0.4491,-0.4491,-0.4491,-0.4491,-0.4515,-0.458,-0.4668,-0.4595,-0.4342,-0.3151,-0.236,-0.2026,-0.0689,0.0,0.0,0.0,0.0,0.0,0.0,0.0,0.0,0.0,0.0,0.0,0.0,0.0,0.0,0.0,0.0,0.0,0.0,0.0,0.0,-1.2905,-1.2905,-1.2905,-1.2905,-1.2905,-1.2905,-1.2905,-1.2905,-1.2905,-1.2905,-1.232,-1.1888,-1.1888,-1.0745,-0.9987,-0.9987,-0.9361,-0.8956,-0.8883,-0.8883,-0.8857,-0.8804,-0.8156,-0.7482,-0.6804,-0.6669,-0.6285,-0.5597,-0.6285,-0.6258,-0.5624,-0.6285,-0.6588,-0.6615,-0.6669,-0.7074,-0.7696,-0.7777,-0.8182,-0.8752,-0.8076,-0.8209,-0.8646,-0.7316,-0.6723,-0.6507,-0.5842,-0.514,-0.4491,-0.4491,-0.4491,-0.4491,-0.4491,-0.4491,-0.4491,-0.4491,-0.4491,-0.4491,-0.4491,-0.4491,-0.4491,-0.4491,-0.4491,-0.4491,-0.4491,-0.4491,-0.4491,-0.4491,-0.4491,-0.4491,-0.4491,-0.4491,-0.4491,-0.4491,-0.4491,-0.4491,-0.4491,-0.4491,-0.4491,-0.4491,-0.4491,-0.4491,-0.4491,-0.4491,-0.4491,-0.4491,-0.4501,-0.4573,-0.4684,-0.4714,-0.4486,-0.3935,-0.2993,-0.2155,-0.1441,-0.0471,0.0,0.0,0.0,0.0,0.0,0.0,0.0,0.0,0.0,0.0,0.0,0.0,0.0,0.0,0.0,0.0,0.0,0.0,0.0,0.0,-1.2905,-1.2905,-1.2905,-1.2905,-1.2905,-1.2905,-1.2905,-1.2905,-1.2905,-1.2905,-1.2774,-1.2666,-1.2666,-1.1882,-1.1366,-1.1366,-1.0737,-1.0141,-0.9614,-0.9588,-0.9335,-0.8831,-0.8646,-0.848,-0.8321,-0.7182,-0.6529,-0.6367,-0.6529,-0.6529,-0.6367,-0.6529,-0.6588,-0.6615,-0.7208,-0.7563,-0.775,-0.8315,-0.8646,-0.8778,-0.8619,-0.8646,-0.8752,-0.8454,-0.7616,-0.6588,-0.6421,-0.555,-0.4491,-0.4491,-0.4491,-0.4491,-0.4491,-0.4491,-0.4491,-0.4491,-0.4491,-0.4491,-0.4491,-0.4491,-0.4491,-0.4491,-0.4491,-0.4491,-0.4491,-0.4491,-0.4491,-0.4491,-0.4491,-0.4491,-0.4491,-0.4491,-0.4491,-0.4491,-0.4491,-0.4491,-0.4491,-0.4491,-0.4491,-0.4491,-0.4491,-0.4491,-0.4491,-0.4491,-0.4491,-0.4491,-0.46,-0.4657,-0.4687,-0.4908,-0.497,-0.4807,-0.3407,-0.2563,-0.241,-0.0807,0.0,0.0,0.0,0.0,0.0,0.0,0.0,0.0,0.0,0.0,0.0,0.0,0.0,0.0,0.0,0.0,0.0,0.0,0.0,0.0101,-1.2905,-1.2905,-1.2964,-1.3145,-1.3042,-1.2949,-1.3154,-1.3008,-1.2905,-1.2905,-1.2905,-1.2905,-1.2905,-1.2236,-1.1665,-1.1366,-1.099,-1.0636,-1.0287,-1.0287,-0.9987,-0.9316,-0.9283,-0.914,-0.8811,-0.8049,-0.7477,-0.7128,-0.7477,-0.7477,-0.7128,-0.7482,-0.7643,-0.767,-0.8049,-0.8235,-0.8235,-0.8646,-0.8804,-0.8804,-0.8804,-0.8804,-0.8752,-0.8401,-0.7589,-0.6561,-0.6199,-0.5386,-0.4491,-0.4491,-0.4491,-0.4491,-0.4491,-0.4491,-0.4491,-0.4491,-0.4491,-0.4491,-0.4491,-0.4491,-0.4491,-0.4491,-0.4491,-0.4491,-0.4491,-0.4491,-0.4491,-0.4491,-0.4491,-0.4491,-0.4491,-0.4491,-0.4491,-0.4491,-0.4491,-0.4491,-0.4491,-0.4491,-0.4491,-0.4491,-0.4491,-0.4491,-0.4491,-0.4556,-0.46,-0.46,-0.4714,-0.483,-0.4897,-0.5015,-0.4938,-0.4579,-0.3352,-0.2477,-0.2043,-0.0672,0.0,0.0,0.0,0.0,0.0,0.0,0.0,0.0,0.0,0.0,0.0,0.0,0.0,0.0,0.0,0.0,0.0,0.0,0.0,0.0135,-1.2905,-1.2964,-1.3096,-1.3447,-1.3281,-1.3184,-1.3467,-1.3213,-1.2983,-1.2915,-1.2905,-1.2905,-1.2905,-1.2344,-1.1774,-1.12,-1.1149,-1.1099,-1.099,-1.0965,-1.0661,-0.9987,-0.9961,-0.9666,-0.8982,-0.8982,-0.8606,-0.7883,-0.8507,-0.848,-0.7916,-0.8507,-0.8804,-0.8804,-0.8804,-0.8804,-0.8804,-0.8804,-0.8804,-0.8804,-0.8804,-0.8804,-0.8725,-0.799,-0.7235,-0.6507,-0.576,-0.5058,-0.4491,-0.4491,-0.4491,-0.4491,-0.4491,-0.4491,-0.4491,-0.4491,-0.4491,-0.4491,-0.4491,-0.4491,-0.4491,-0.4491,-0.4491,-0.4491,-0.4491,-0.4491,-0.4491,-0.4491,-0.4491,-0.4491,-0.4491,-0.4491,-0.4491,-0.4491,-0.4491,-0.4491,-0.4491,-0.4491,-0.4491,-0.4491,-0.4491,-0.4501,-0.4528,-0.4644,-0.4701,-0.4728,-0.487,-0.4975,-0.5093,-0.5123,-0.4867,-0.4248,-0.3245,-0.231,-0.1541,-0.0505,0.0,0.0,0.0,0.0,0.0,0.0,0.0,0.0,0.0,0.0,0.0,0.0,0.0,0.0,0.0,0.0,0.0034,0.0168,0.0338,0.0646,-1.2905,-1.3174,-1.3437,-1.3496,-1.3734,-1.3831,-1.3555,-1.3457,-1.3291,-1.2954,-1.2905,-1.2905,-1.2905,-1.2798,-1.2715,-1.2618,-1.2618,-1.2353,-1.1715,-1.1665,-1.1366,-1.0686,-1.0661,-1.0338,-0.9692,-0.9666,-0.9335,-0.8646,-0.8752,-0.8752,-0.8646,-0.8752,-0.8804,-0.8804,-0.8804,-0.8804,-0.8804,-0.8804,-0.8804,-0.8804,-0.8804,-0.8804,-0.8725,-0.799,-0.7235,-0.6507,-0.576,-0.5058,-0.4491,-0.4491,-0.4491,-0.4491,-0.4491,-0.4491,-0.4491,-0.4491,-0.4491,-0.4491,-0.4491,-0.4491,-0.4491,-0.4491,-0.4491,-0.4491,-0.4491,-0.4491,-0.4491,-0.4491,-0.4491,-0.4491,-0.4491,-0.4491,-0.4491,-0.4491,-0.4491,-0.4491,-0.4491,-0.4491,-0.4491,-0.4491,-0.4491,-0.4542,-0.4675,-0.4677,-0.4745,-0.4877,-0.4988,-0.5079,-0.5096,-0.5257,-0.5305,-0.5226,-0.358,-0.2644,-0.2511,-0.084,0.0,0.0,0.0,0.0,0.0,0.0,0.0,0.0,0.0,0.0,0.0,0.0,0.0,0.0,0.0,0.0,0.0101,0.0839,0.1701,0.264,-1.2905,-1.3213,-1.3584,-1.3792,-1.3977,-1.4124,-1.4209,-1.3818,-1.3437,-1.3262,-1.3027,-1.2905,-1.2905,-1.2905,-1.2905,-1.2905,-1.2905,-1.2774,-1.2452,-1.2403,-1.2089,-1.1391,-1.1366,-1.0864,-0.9814,-0.9788,-0.9458,-0.8804,-0.8804,-0.8804,-0.8804,-0.8804,-0.8804,-0.8804,-0.8804,-0.8804,-0.8804,-0.8804,-0.8804,-0.8804,-0.8804,-0.8804,-0.8752,-0.8427,-0.7589,-0.6453,-0.5332,-0.4759,-0.4491,-0.4491,-0.4491,-0.4491,-0.4491,-0.4491,-0.4491,-0.4491,-0.4491,-0.4491,-0.4491,-0.4491,-0.4491,-0.4491,-0.4491,-0.4491,-0.4491,-0.4491,-0.4491,-0.4491,-0.4491,-0.4491,-0.4491,-0.4491,-0.4491,-0.4491,-0.4491,-0.4491,-0.4491,-0.4491,-0.4491,-0.4491,-0.4566,-0.4644,-0.4684,-0.484,-0.4935,-0.5002,-0.5176,-0.526,-0.526,-0.5358,-0.5395,-0.5395,-0.3647,-0.2711,-0.2711,-0.0908,0.0,0.0,0.0,0.0,0.0,0.0,0.0,0.0,0.0,0.0,0.0,0.0,0.0,0.0,0.0,0.0,0.0135,0.1093,0.1763,0.2384]},{"header":{"parameterUnit":"m.s-1","parameterCategory":1,"la1":30.6,"la2":28.766,"lo1":-90.7593,"lo2":-88.6598,"dy":0.0162,"dx":0.0183,"nx":116,"ny":114,"refTime":"2023-07-23T18:00:00:Z","depth":0,"parameterNumber":3,"parameterNumberName":"V-component_of_WINDS"},"data":[0.0,0.0,0.0,0.0,0.0,0.0,0.0,0.0,0.0,0.0,0.0,0.0,0.0,0.0,0.0,0.0,0.0,0.0,0.0,0.0,0.0,0.0,0.0,0.0,0.0,0.0,0.0,0.0,0.0,0.0,0.0,0.0,0.0,0.0,0.0,0.0,0.0,0.0,0.0,0.0,0.0,0.0,0.0,0.0,0.0,0.0,0.0,0.0,0.0,0.0,0.0,0.0,0.0,0.0,0.0,0.0,0.0,0.0,0.0,0.0,0.0,0.0,0.0,0.0,0.0,0.0,0.0,0.0,0.0,0.0,0.0,0.0,0.0,0.0,0.0,0.0,0.0,0.0,0.0,0.0,0.0,0.0,0.0,0.0,0.0,0.0,0.0,0.0,0.0,0.0,0.0,0.0,0.0,0.0,0.0,0.0,0.0,0.0,0.0,0.0,0.0,0.0,0.0,0.0,0.0,0.0,0.0,0.0,0.0,0.0,0.0,0.0,0.0,0.0,0.0,0.0,0.0,0.0,0.0,0.0,0.0,0.0,0.0,0.0,0.0,0.0,0.0,0.0,0.0,0.0,0.0,0.0,0.0,0.0,0.0,0.0,0.0,0.0,0.0,0.0,0.0,0.0,0.0,0.0,0.0,0.0,0.0,0.0,0.0,0.0,0.0,0.0,0.0,0.0,0.0,0.0,0.0,0.0,0.0,0.0,0.0,0.0,0.0,0.0,0.0,0.0,0.0,0.0,0.0,0.0,0.0,0.0,0.0,0.0,0.0,0.0,0.0,0.0,0.0,0.0,0.0,0.0,0.0,0.0,0.0,0.0,0.0,0.0,0.0,0.0,0.0,0.0,0.0,0.0,0.0,0.0,0.0,0.0,0.0,0.0,0.0,0.0,0.0,0.0,0.0,0.0,0.0,0.0,0.0,0.0,0.0,0.0,0.0,0.0,0.0,0.0,0.0,0.0,0.0,0.0,0.0,0.0,0.0,0.0,0.0,0.0,0.0,0.0,0.0,0.0,0.0,0.0,0.0,0.0,0.0,0.0,0.0,0.0,0.0,0.0,0.0,0.0,0.0,0.0,0.0,0.0,0.0,0.0,0.0,0.0,0.0,0.0,0.0,0.0,0.0,0.0,0.0,0.0,0.0,0.0,0.0,0.0,0.0,0.0,0.0,0.0,0.0,0.0,0.0,0.0,0.0,0.0,0.0,0.0,0.0,0.0,0.0,0.0,0.0,0.0,0.0,0.0,0.0,0.0,0.0,0.0,0.0,0.0,0.0,0.0,0.0,0.0,0.0,0.0,0.0,0.0,0.0,0.0,0.0,0.0,0.0,0.0,0.0,0.0,0.0,0.0,0.0,0.0,0.0,0.0,0.0,0.0,0.0,0.0,0.0,0.0,0.0,0.0,0.0,0.0,0.0,0.0,0.0,0.0,0.0,0.0,0.0,0.0,0.0,0.0,0.0,0.0,0.0,0.0,0.0,0.0,0.0,0.0,0.0,0.0,0.0,0.0,0.0,0.0,0.0,0.0,0.0,0.0,0.0,0.0,0.0,0.0,0.0,0.0,0.0,0.0,0.0,0.0,0.0,0.0,0.0,0.0,0.0,0.0,0.0,0.0,0.0,0.0,0.0,0.0,0.0,0.0,0.0,0.0,0.0,0.0,0.0,0.0,0.0,0.0,0.0,0.0,0.0,0.0,0.0,0.0,0.0,0.0,0.0,0.0,0.0,0.0,0.0,0.0,0.0,0.0,0.0,0.0,0.0,0.0,0.0,0.0,0.0,0.0,0.0,0.0,0.0,0.0,0.0,0.0,0.0,0.0,0.0,0.0,0.0,0.0,0.0,0.0,0.0,0.0,0.0,0.0,0.0,0.0,0.0,0.0,0.0,0.0,0.0,0.0,0.0,0.0,0.0,0.0,0.0,0.0,0.0,0.0,0.0,0.0,0.0,0.0,0.0,0.0,0.0,0.0,0.0,0.0,0.0,0.0,0.0,0.0,0.0,0.0,0.0,0.0,0.0,0.0,0.0,0.0,0.0,0.0,0.0,0.0,0.0,0.0,0.0,0.0,0.0,0.0,0.0,0.0,0.0,0.0,0.0,0.0,0.0,0.0,0.0,0.0,0.0,0.0,0.0,0.0,0.0,0.0,0.0,0.0,0.0,0.0,0.0,0.0,0.0,0.0,0.0,0.0,0.0,0.0,0.0,0.0,0.0,0.0,0.0,0.0,0.0,0.0,0.0,0.0,0.0,0.0,0.0,0.0,0.0,0.0,0.0,0.0,0.0,0.0,0.0,0.0,0.0,0.0,0.0,0.0,0.0,0.0,0.0,0.0,0.0,0.0,0.0,0.0,0.0,0.0,0.0,0.0,0.0,0.0,0.0,0.0,0.0,0.0,0.0,0.0,0.0,0.0,0.0,0.0,0.0,0.0,0.0,0.0,0.0,0.0,0.0,0.0,0.0,0.0,0.0,0.0,0.0,0.0,0.0,0.0,0.0,0.0,0.0,0.0,0.0,0.0,0.0,0.0,0.0,0.0,0.0,0.0,0.0,0.0,0.0,0.0,0.0,0.0,0.0,0.0,0.0,0.0,0.0,0.0,0.0,0.0,0.0,0.0,0.0,0.0,0.0,0.0,0.0,0.0,0.0,0.0,0.0,0.0,0.0,0.0,0.0,0.0,0.0,0.0,0.0,0.0,0.0,0.0,0.0,0.0,0.0,0.0,0.0,0.0,0.0,0.0,0.0,0.0,0.0,0.0,0.0,0.0,0.0,0.0,0.0,0.0,0.0,0.0,0.0,0.0,0.0,0.0,0.0,0.0,0.0,0.0,0.0,0.0,0.0,0.0,0.0,0.0,0.0,0.0,0.0,0.0,0.0,0.0,0.0,0.0,0.0,0.0,0.0,0.0,0.0,0.0,0.0,0.0,0.0,0.0,0.0,0.0,0.0,0.0,0.0,0.0,0.0,0.0,0.0,0.0,0.0,0.0,0.0,0.0,0.0,0.0,0.0,0.0,0.0,0.0,0.0,0.0,0.0,0.0,0.0,0.0,0.0,0.0,0.0,0.0,0.0,0.0,0.0,0.0,0.0,0.0,0.0,0.0,0.0,0.0,0.0,0.0,0.0,0.0,0.0,0.0,0.0,0.0,0.0,0.0,0.0,0.0,0.0,0.0,0.0,0.0,0.0,0.0,0.0,0.0,0.0,0.0,0.0,0.0,0.0,0.0,0.0,0.0,0.0,0.0,0.0,0.0,0.0,0.0,0.0,0.0,0.0,0.0,0.0,0.0,0.0,0.0,0.0,0.0,0.0,0.0,0.0,0.0,0.0,0.0,0.0,0.0,0.0,0.0,0.0,0.0,0.0,0.0,0.0,0.0,0.0,0.0,0.0,0.0,0.0,0.0,0.0,0.0,0.0,0.0,0.0,0.0,0.0,0.0,0.0,0.0,0.0,0.0,0.0,0.0,0.0,0.0,0.0,0.0,0.0,0.0,0.0,0.0,0.0,0.0,0.0,0.0,0.0,0.0,0.0,0.0,0.0,0.0,0.0,0.0,0.0,0.0,0.0,0.0,0.0,0.0,0.0,0.0,0.0,0.0,0.0,0.0,0.0,0.0,0.0,0.0,0.0,0.0,0.0,0.0,0.0,0.0,0.0,0.0,0.0,0.0,0.0,0.0,0.0,0.0,0.0,0.0,0.0,0.0,0.0,0.0,0.0,0.0,0.0,0.0,0.0,0.0,0.0,0.0,0.0,0.0,0.0,0.0,0.0,0.0,0.0,0.0,0.0,0.0,0.0,0.0,0.0,0.0,0.0,0.0,0.0,0.0,0.0,0.0,0.0,0.0,0.0,0.0,0.0,0.0,0.0,0.0,0.0,0.0,0.0,0.0,0.0,0.0,0.0,0.0,0.0,0.0,0.0,0.0,0.0,0.0,0.0,0.0,0.0,0.0,0.0,0.0,0.0,0.0,0.0,0.0,0.0,0.0,0.0,0.0,0.0,0.0,0.0,0.0,0.0,0.0,0.0,0.0,0.0,0.0,0.0,0.0,0.0,0.0,0.0,0.0,0.0,0.0,0.0,0.0,0.0,0.0,0.0,0.0,0.0,0.0,0.0,0.0,0.0,0.0,0.0,0.0,0.0,0.0,0.0,0.0,0.0,0.0,0.0,0.0,0.0,0.0,0.0,0.0,0.0,0.0,0.0,0.0,0.0,0.0,0.0,0.0,0.0,0.0,0.0,0.0,0.0,0.0,0.0,0.0,0.0,0.0,0.0,0.0,0.0,0.0,0.0,0.0,0.0,0.0,0.0,0.0,0.0,0.0,0.0,0.0,0.0,0.0,0.0,0.0,0.0,0.0,0.0,0.0,0.0,0.0,0.0,0.0,0.0,0.0,0.0,0.0,0.0,0.0,0.0,0.0,0.0,0.0,0.0,0.0,0.0,0.0,0.0,0.0,0.0,0.0,0.0,0.0,0.0,0.0,0.0,0.0,0.0,0.0,0.0,0.0,0.0,0.0,0.0,0.0,0.0,0.0,0.0,0.0,0.0,0.0,0.0,0.0,0.0,0.0,0.0,0.0,0.0,0.0,0.0,0.0,0.0,0.0,0.0,0.0,0.0,0.0,0.0,0.0,0.0,0.0,0.0,0.0,0.0,0.0,0.0,0.0,0.0,0.0,0.0,0.0,0.0,0.0,0.0,0.0,0.0,0.0,0.0,0.0,0.0,0.0,0.0,0.0,0.0,0.0,0.0,0.0,0.0,0.0,0.0,0.0,0.0,0.0,0.0,0.0,0.0,0.0,0.0,0.0,0.0,0.0,0.0,0.0,0.0,0.0,0.0,0.0,0.0,0.0,0.0,0.0,0.0,0.0,0.0,0.0,0.0,0.0,0.0,0.0,0.0,0.0,0.0,0.0,0.0,0.0,0.0,0.0,0.0,0.0,0.0,0.0,0.0,0.0,0.0,0.0,0.0,0.0,0.0,0.0,0.0,0.0,0.0,0.0,0.0,0.0,0.0,0.0,0.0,0.0,0.0,0.0,0.0,0.0,0.0,0.0,0.0,0.0,0.0,0.0,0.0,0.0,0.0,0.0,0.0,0.0,0.0,0.0,0.0,0.0,0.0,0.0,0.0,0.0,0.0,0.0,0.0,0.0,0.0,0.0,0.0,0.0,0.0,0.0,0.0,0.0,0.0,0.0,0.0,0.0,0.0,0.0,0.0,0.0,0.0,0.0,0.0,0.0,0.0,0.0,0.0,0.0,0.0,0.0,0.0,0.0,0.0,0.0,0.0,0.0,0.0,0.0,0.0,0.0,0.0,0.0,0.0,0.0,0.0,0.0,0.0,0.0,0.0,0.0,0.0,0.0,0.0,0.0,0.0,0.0,0.0,0.0,0.0,0.0,0.0,0.0,0.0,0.0,0.0,0.0,0.0,0.0,0.0,0.0,0.0,0.0,0.0,0.0,0.0,0.0,0.0,0.0,0.0,0.0,0.0,0.0,0.0,0.0,0.0,0.0,0.0,0.0,0.0,0.0,0.0,0.0,0.0,0.0,0.0,0.0,0.0,0.0,0.0,0.0,0.0,0.0,0.0,0.0,0.0,0.0,0.0,0.0,0.0,0.0,0.0,0.0,0.0,0.0,0.0,0.0,0.0,0.0,0.0,0.0,0.0,0.0,0.0,0.0,0.0,0.0,0.0,0.0,0.0,0.0,0.0,0.0,0.0,0.0,0.0,0.0,0.0,0.0,0.0,0.0,0.0,0.0,0.0,0.0,0.0,0.0,0.0,0.0,0.0,0.0,0.0,0.0,0.0,0.0,0.0,0.0,0.0,0.0,0.0,0.0,0.0,0.0,0.0,0.0,0.0,0.0,0.0,0.0,0.0,0.0,0.0,0.0,0.0,0.0,0.0,0.0,0.0,0.0,0.0,0.0,0.0,0.0,0.0,0.0,0.0,0.0,0.0,0.0,0.0,0.0,0.0,0.0,0.0,0.0,0.0,0.0,0.0,0.0,0.0,0.0,0.0,0.0,0.0,0.0,0.0,0.0,0.0,0.0,0.0,0.0,0.0,0.0,0.0,0.0,0.0,0.0,0.0,0.0,2.4731,2.4804,0.0,0.0,0.0,0.0,0.0,0.0,0.0,0.0,0.0,0.0,0.0,0.0,0.0,0.0,0.0,0.0,0.0,0.0,0.0,0.0,0.0,0.0,0.0,0.0,0.0,0.0,0.0,0.0,0.0,0.0,0.0,0.0,0.0,0.0,0.0,0.0,0.0,0.0,0.0,0.0,0.0,0.0,0.0,0.0,0.0,0.0,0.0,0.0,0.0,0.0,0.0,0.0,0.0,0.0,0.0,0.0,0.0,0.0,0.0,0.0,0.0,0.0,0.0,0.0,0.0,0.0,0.0,0.0,0.0,0.0,0.0,0.0,0.0,0.0,0.0,0.0,0.0,0.0,0.0,0.0,0.0,0.0,0.0,0.0,0.0,0.0,0.0,0.0,0.0,0.0,0.0,0.0,0.0,0.0,0.0,0.0,0.0,0.0,0.0,0.0,0.0,0.0,0.0,0.0,0.0,0.0,0.0,0.0,0.0,0.0,0.0,0.0,0.0,0.0,0.0,2.4599,0.0,0.0,0.0,0.0,0.0,0.0,0.0,0.0,0.0,0.0,0.0,0.0,0.0,0.0,0.0,0.0,0.0,0.0,0.0,0.0,0.0,0.0,0.0,0.0,0.0,0.0,0.0,0.0,0.0,0.0,0.0,0.0,0.0,0.0,0.0,0.0,0.0,0.0,0.0,0.0,0.0,0.0,0.0,0.0,0.0,0.0,0.0,0.0,0.0,0.0,0.0,0.0,0.0,0.0,0.0,0.0,0.0,0.0,0.0,0.0,0.0,0.0,0.0,0.0,0.0,0.0,0.0,0.0,0.0,0.0,0.0,0.0,0.0,0.0,0.0,0.0,0.0,0.0,0.0,0.0,0.0,0.0,0.0,0.0,0.0,0.0,0.0,0.0,0.0,0.0,0.0,0.0,0.0,0.0,0.0,0.0,0.0,0.0,0.0,0.0,0.0,0.0,0.0,0.0,0.0,0.0,0.0,0.0,2.4537,2.4543,2.4746,2.4586,2.4583,2.4738,2.4567,2.441,2.4275,2.4426,0.0,0.0,0.0,0.0,0.0,0.0,0.0,0.0,0.0,0.0,0.0,0.0,0.0,0.0,0.0,0.0,0.0,0.0,0.0,0.0,0.0,0.0,0.0,0.0,0.0,0.0,0.0,0.0,0.0,0.0,0.0,0.0,0.0,0.0,0.0,0.0,0.0,0.0,1.6789,1.6501,1.638,1.6448,0.0,0.0,0.0,0.0,0.0,0.0,0.0,0.0,0.0,0.0,0.0,0.0,0.0,0.0,0.0,0.0,0.0,0.0,0.0,0.0,0.0,0.0,0.0,0.0,0.0,0.0,0.0,0.0,0.0,0.0,0.0,0.0,0.0,0.0,0.0,0.0,0.0,0.0,0.0,0.0,0.0,0.0,0.0,0.0,2.419,2.419,0.0,0.0,0.0,0.0,0.0,0.0,0.0,0.0,0.0,0.0,0.0,0.0,0.0,2.4247,2.4247,2.4247,2.4238,2.4275,2.4256,2.4339,2.4545,2.4512,2.452,2.4545,2.4512,0.0,2.4461,2.4486,0.0,0.0,0.0,0.0,0.0,0.0,0.0,0.0,0.0,0.0,0.0,0.0,0.0,0.0,0.0,0.0,0.0,0.0,0.0,0.0,0.0,0.0,0.0,0.0,0.0,0.0,0.0,0.0,0.0,0.0,0.0,0.0,0.0,0.0,0.0,0.0,1.725,1.6716,1.6232,1.6095,1.6025,1.6025,1.6163,1.6448,1.6802,1.6802,0.0,0.0,0.0,0.0,0.0,0.0,0.0,0.0,0.0,0.0,0.0,0.0,0.0,0.0,0.0,0.0,0.0,0.0,0.0,0.0,0.0,0.0,0.0,0.0,0.0,0.0,0.0,0.0,0.0,0.0,0.0,0.0,0.0,0.0,0.0,0.0,0.0,0.0,0.0,2.419,2.419,2.419,2.419,2.419,0.0,0.0,0.0,0.0,0.0,0.0,0.0,0.0,0.0,2.419,2.4312,2.4366,2.4366,2.4366,2.4436,2.4545,2.4409,2.4469,2.4662,2.4543,2.4503,2.4495,2.4384,2.4321,2.4321,2.4321,2.4275,2.419,0.0,0.0,0.0,0.0,2.419,2.419,0.0,0.0,0.0,0.0,0.0,0.0,0.0,0.0,0.0,0.0,0.0,0.0,0.0,0.0,0.0,0.0,0.0,0.0,0.0,0.0,0.0,0.0,0.0,0.0,0.0,0.0,0.0,0.0,1.7073,1.6633,1.6038,1.5969,1.587,1.5799,1.5799,1.6081,1.6541,1.6541,1.6594,0.0,0.0,0.0,0.0,0.0,0.0,0.0,0.0,0.0,0.0,0.0,0.0,0.0,0.0,0.0,0.0,0.0,0.0,0.0,0.0,0.0,0.0,0.0,0.0,0.0,0.0,0.0,0.0,0.0,0.0,0.0,0.0,0.0,0.0,0.0,0.0,0.0,0.0,2.419,2.419,2.419,2.419,2.419,0.0,0.0,0.0,0.0,0.0,0.0,2.419,2.419,2.419,2.419,2.4358,2.4409,2.4409,2.4409,2.4503,2.4639,2.4495,2.4503,2.4639,2.4495,2.4409,2.44,2.4257,2.419,2.419,2.419,2.4228,2.4275,2.4275,2.4275,2.4275,2.4275,2.4247,2.419,0.0,0.0,0.0,0.0,0.0,0.0,0.0,0.0,0.0,0.0,0.0,0.0,0.0,0.0,0.0,0.0,0.0,0.0,0.0,0.0,0.0,0.0,0.0,0.0,0.0,0.0,0.0,1.776,1.7444,1.7089,1.6738,1.6421,1.6094,1.5799,1.5799,1.5827,1.5856,1.5856,1.6039,1.6328,0.0,0.0,0.0,0.0,0.0,0.0,0.0,0.0,0.0,0.0,0.0,0.0,0.0,0.0,0.0,0.0,0.0,0.0,0.0,0.0,0.0,0.0,0.0,0.0,0.0,0.0,0.0,0.0,0.0,0.0,0.0,0.0,0.0,0.0,0.0,0.0,0.0,0.0,0.0,2.419,2.419,0.0,0.0,0.0,0.0,2.419,2.419,2.419,2.419,2.419,2.419,2.419,2.4209,2.4209,2.4209,2.4209,2.4218,2.4228,2.4218,2.4218,2.4228,2.4218,2.4209,2.4209,2.4199,2.419,2.419,2.419,2.4312,2.4486,2.4486,2.4486,2.4486,2.4486,2.4357,2.419,0.0,0.0,0.0,0.0,0.0,0.0,0.0,0.0,0.0,0.0,0.0,0.0,0.0,0.0,0.0,0.0,0.0,0.0,0.0,0.0,0.0,0.0,0.0,0.0,0.0,0.0,1.7676,1.7154,1.7043,1.6712,1.615,1.6039,1.5912,1.5799,1.5799,1.5799,1.5799,1.5799,1.587,1.5997,1.6219,1.6448,0.0,0.0,0.0,0.0,0.0,0.0,0.0,0.0,0.0,0.0,0.0,0.0,0.0,0.0,0.0,0.0,0.0,0.0,0.0,0.0,0.0,0.0,0.0,0.0,0.0,0.0,0.0,0.0,0.0,0.0,0.0,0.0,0.0,0.0,0.0,0.0,0.0,2.4209,2.419,0.0,2.419,2.419,2.419,2.419,2.419,2.419,2.419,2.419,2.419,2.419,2.419,2.419,2.419,2.419,2.419,2.419,2.419,2.419,2.419,2.419,2.419,2.419,2.419,2.419,2.419,2.419,2.4247,2.4312,2.4312,2.4312,2.4312,2.4312,2.4257,2.419,0.0,0.0,0.0,0.0,0.0,0.0,0.0,0.0,0.0,0.0,0.0,0.0,0.0,0.0,0.0,0.0,0.0,0.0,0.0,0.0,0.0,0.0,0.0,0.0,0.0,1.78,1.7577,1.7142,1.7142,1.6786,1.6136,1.6136,1.6025,1.5799,1.5799,1.5799,1.5799,1.5799,1.5799,1.5827,1.6039,1.6205,1.6371,0.0,0.0,0.0,0.0,0.0,0.0,0.0,0.0,0.0,0.0,0.0,0.0,0.0,0.0,0.0,0.0,0.0,0.0,0.0,0.0,0.0,0.0,0.0,0.0,0.0,0.0,0.0,0.0,0.0,0.0,0.0,0.0,0.0,0.0,2.4357,2.4339,2.4209,2.4266,2.4266,2.4199,2.4257,2.4266,2.4218,2.419,2.419,2.419,2.419,2.419,2.419,2.419,2.419,2.419,2.419,2.419,2.419,2.419,2.419,2.419,2.419,2.419,2.419,2.419,2.419,2.419,2.419,2.419,2.4199,2.4266,2.4303,2.4303,2.4303,2.4266,2.419,0.0,0.0,0.0,0.0,0.0,0.0,0.0,0.0,0.0,0.0,0.0,0.0,0.0,0.0,0.0,0.0,0.0,0.0,0.0,0.0,0.0,0.0,0.0,0.0,1.78,1.78,1.7789,1.7777,1.7777,1.742,1.6763,1.6763,1.6421,1.5799,1.5799,1.5799,1.5799,1.5799,1.5799,1.5799,1.5799,1.6012,1.638,0.0,0.0,0.0,0.0,0.0,0.0,0.0,0.0,0.0,0.0,0.0,0.0,0.0,0.0,0.0,0.0,0.0,0.0,0.0,0.0,0.0,0.0,0.0,0.0,0.0,0.0,0.0,0.0,0.0,0.0,0.0,0.0,0.0,2.4551,2.4358,2.4228,2.4218,2.4393,2.4426,2.4237,2.4393,2.4428,2.4218,2.4199,2.419,2.419,2.419,2.419,2.419,2.419,2.419,2.419,2.419,2.419,2.419,2.419,2.419,2.419,2.419,2.419,2.419,2.419,2.419,2.419,2.419,2.419,2.4218,2.44,2.4495,2.4495,2.4495,2.4366,2.419,0.0,0.0,0.0,0.0,0.0,0.0,0.0,0.0,0.0,0.0,0.0,0.0,0.0,0.0,0.0,0.0,0.0,0.0,0.0,0.0,0.0,0.0,0.0,0.0,1.78,1.78,1.7566,1.708,1.708,1.6738,1.6081,1.6081,1.5983,1.5799,1.5799,1.5799,1.5799,1.5799,1.5799,1.5799,1.5799,1.6127,1.6638,0.0,0.0,0.0,0.0,0.0,0.0,0.0,0.0,0.0,0.0,0.0,0.0,0.0,0.0,0.0,0.0,0.0,0.0,0.0,0.0,0.0,0.0,0.0,0.0,0.0,0.0,0.0,0.0,0.0,0.0,0.0,2.4828,2.4821,2.4731,2.4759,2.474,2.4654,2.4685,2.4693,2.4639,2.4543,2.4478,2.4409,2.4275,2.419,2.419,2.419,2.419,2.419,2.419,2.419,2.419,2.419,2.419,2.419,2.419,2.419,2.419,2.419,2.419,2.419,2.419,2.419,2.419,2.419,2.419,2.4218,2.4247,2.4275,2.4275,2.4275,2.4256,2.419,0.0,0.0,0.0,0.0,0.0,0.0,0.0,0.0,0.0,0.0,0.0,0.0,0.0,0.0,0.0,0.0,0.0,0.0,0.0,0.0,0.0,0.0,0.0,1.7749,1.7584,1.7455,1.7191,1.6802,1.6802,1.6528,1.6011,1.6011,1.5926,1.5799,1.5799,1.5799,1.5829,1.6069,1.6189,1.6204,1.6473,1.6637,1.6787,1.7592,1.8546,1.9562,2.0409,2.1162,2.1796,2.218,0.0,0.0,0.0,0.0,0.0,0.0,0.0,0.0,0.0,0.0,0.0,0.0,0.0,0.0,0.0,0.0,0.0,0.0,0.0,0.0,0.0,0.0,0.0,0.0,2.5019,2.5019,2.5019,2.4968,2.4884,2.4811,2.4804,2.4768,2.4685,2.4868,2.4973,2.4884,2.5085,2.5052,2.4732,2.4695,2.4548,2.4208,2.419,2.419,2.419,2.419,2.419,2.419,2.419,2.419,2.419,2.419,2.419,2.419,2.419,2.419,2.419,2.419,2.419,0.0,0.0,0.0,0.0,0.0,2.419,2.419,0.0,0.0,0.0,0.0,0.0,0.0,0.0,0.0,0.0,0.0,0.0,0.0,0.0,0.0,0.0,0.0,0.0,0.0,0.0,0.0,0.0,1.8093,1.7585,1.7284,1.7248,1.6939,1.6776,1.6738,1.6738,1.6567,1.6246,1.6246,1.608,1.5799,1.5873,1.5889,1.5934,1.6547,1.6801,1.686,1.7533,1.7458,1.7055,1.8252,1.8781,1.9055,2.0428,2.0975,2.1197,2.1959,0.0,0.0,0.0,0.0,0.0,0.0,0.0,0.0,0.0,0.0,0.0,0.0,0.0,0.0,0.0,0.0,0.0,0.0,0.0,0.0,0.0,0.0,0.0,0.0,2.5375,2.5442,2.5442,2.5284,2.5113,2.5019,2.5055,2.5024,2.4864,2.5444,2.5764,2.5581,2.6211,2.6282,2.5576,2.554,0.0,0.0,0.0,2.4465,2.4465,2.4465,2.4428,2.4337,2.4337,2.4281,2.419,2.419,2.419,2.419,2.419,2.419,2.419,2.419,2.419,2.419,2.419,2.419,2.419,2.419,2.4263,2.4337,0.0,0.0,0.0,0.0,0.0,0.0,0.0,0.0,0.0,0.0,0.0,0.0,0.0,0.0,0.0,0.0,0.0,0.0,0.0,0.0,1.7704,1.7469,1.7368,1.7175,1.6904,1.6828,1.6659,1.6394,1.6394,1.6232,1.5898,1.5898,1.587,1.5829,1.6308,1.6532,1.6562,1.7219,1.7503,1.7579,1.8237,1.8433,1.8326,1.8612,1.9226,2.0025,2.0335,2.0894,2.1506,2.1673,2.1988,2.2296,2.2296,0.0,0.0,0.0,0.0,0.0,0.0,0.0,0.0,0.0,0.0,0.0,0.0,0.0,0.0,0.0,0.0,0.0,0.0,0.0,0.0,2.5082,2.5779,2.6351,2.6351,2.6905,2.7044,2.6329,2.6683,2.6958,2.693,2.6783,2.6647,2.6599,2.6598,2.6539,2.6374,2.6374,2.63,2.6153,2.6135,2.6135,2.6135,2.6135,2.5805,2.5172,0.0,0.0,2.419,2.419,2.419,2.419,2.419,2.419,2.419,2.419,2.419,2.419,2.419,2.419,2.419,2.419,2.4622,2.5172,0.0,0.0,0.0,0.0,0.0,0.0,0.0,0.0,0.0,0.0,0.0,0.0,0.0,0.0,0.0,0.0,0.0,0.0,0.0,1.7647,1.7491,1.7308,1.6973,1.6722,1.6554,1.6396,1.6219,1.6053,1.6053,1.6121,1.6263,1.6263,1.6428,1.6757,1.7071,1.7204,1.7249,1.7923,1.8192,1.8252,1.8927,1.9196,1.9231,1.9427,1.9832,2.0365,2.0781,2.1228,2.1643,2.1884,2.2106,2.2296,2.2296,2.2402,2.259,0.0,0.0,0.0,0.0,0.0,0.0,0.0,0.0,0.0,0.0,0.0,0.0,0.0,0.0,2.5061,2.5141,0.0,2.5803,2.5809,2.6617,2.7255,2.7255,2.7972,2.8184,2.7351,2.7306,2.7342,2.7342,2.7353,2.7352,2.7352,2.7632,2.7629,2.7218,2.72,2.7016,2.6602,2.6602,2.6602,2.6602,2.6602,2.641,2.5988,2.5988,2.5786,2.5401,2.5401,2.5401,2.5401,2.5401,2.5401,2.5401,2.5401,2.5162,2.4842,2.5236,2.5162,2.4805,2.4805,2.5319,2.5988,0.0,0.0,0.0,0.0,0.0,0.0,0.0,0.0,0.0,0.0,0.0,0.0,0.0,0.0,0.0,0.0,0.0,0.0,0.0,1.7569,1.7272,1.7211,1.676,1.6459,1.6391,1.6244,1.6159,1.6159,1.6159,1.6428,1.689,1.689,1.7189,1.7713,1.7848,1.7893,1.7938,1.8612,1.8897,1.8942,1.9465,1.9708,1.9747,2.0158,2.0297,2.0383,2.1102,2.146,2.1658,2.2032,2.2223,2.2296,2.2296,2.245,2.2699,2.3081,2.3392,0.0,0.0,0.0,0.0,0.0,0.0,0.0,0.0,2.4974,2.5234,2.5493,2.5473,2.5476,2.5753,2.6255,2.6661,2.6836,2.7563,2.8126,2.8126,2.8838,2.9102,2.8467,2.7982,2.7687,2.7687,2.7909,2.8026,2.8026,2.862,2.8712,2.8062,2.8026,2.7732,2.7079,2.706,2.706,2.706,2.706,2.6987,2.6833,2.6833,2.6759,2.6602,2.6602,2.6602,2.6602,2.6602,2.6602,2.6602,2.6602,2.6227,2.5705,2.6355,2.63,2.5852,2.5686,2.6135,2.6833,0.0,0.0,0.0,0.0,0.0,0.0,0.0,0.0,0.0,0.0,0.0,0.0,0.0,0.0,0.0,0.0,0.0,0.0,0.0,1.7852,1.7175,1.6866,1.7068,1.7025,1.6653,1.7206,1.7489,1.7489,1.7489,1.7519,1.7578,1.7578,1.7639,1.7728,1.8311,1.8597,1.8625,1.9286,1.9588,1.9585,1.9678,1.9708,1.9747,2.0158,2.0297,2.0314,2.0416,2.0943,2.1613,2.1658,2.1974,2.2296,2.2296,2.2307,2.247,2.3026,2.3242,2.3392,2.4026,2.419,2.419,2.419,2.4486,2.4775,0.0,2.5641,2.6411,2.6456,2.7042,2.755,2.7596,2.7668,2.772,2.7755,2.8434,2.8973,2.8973,2.9717,3.0212,3.0135,2.9707,2.9422,2.9422,2.9087,2.8877,2.8877,2.895,2.8968,2.8877,2.8877,2.8822,2.873,2.873,2.873,2.873,2.873,2.8363,2.7658,2.7658,2.7291,2.6602,2.6602,2.6602,2.6602,2.6602,2.6602,2.6602,2.6602,2.6557,2.6465,2.6547,2.6979,2.7449,2.6722,2.6979,2.7658,0.0,0.0,0.0,0.0,0.0,0.0,0.0,0.0,0.0,0.0,0.0,0.0,0.0,0.0,0.0,0.0,0.0,0.0,1.9495,1.8456,1.7872,1.8015,1.7712,1.7437,1.7279,1.7548,1.7713,1.7713,1.7713,1.7908,1.8281,1.8281,1.8493,1.8882,1.9151,1.9271,1.9286,1.9588,1.9708,1.9708,1.9708,1.9708,1.9747,2.0158,2.0466,2.0732,2.0975,2.129,0.0,0.0,2.2135,2.2296,2.2296,2.2415,2.263,2.3075,2.3346,2.3588,2.4074,2.419,2.419,2.419,2.4763,2.5329,2.5329,2.6086,2.6835,2.709,2.7325,2.7573,2.7844,2.828,2.8607,2.8607,2.9313,2.9871,2.9871,3.0173,3.0404,3.0404,2.9992,2.9705,2.9705,2.9272,2.9005,2.9005,2.9005,2.9005,2.9005,2.9005,2.9005,2.9005,2.9005,2.9005,2.9005,2.9005,2.8822,2.8503,2.8503,2.8308,2.7996,2.7996,2.7996,2.7996,2.7996,2.7732,2.7328,2.7794,2.7721,2.7346,2.7813,2.8198,2.8411,2.7603,2.7805,2.8503,0.0,0.0,0.0,0.0,0.0,0.0,0.0,0.0,0.0,0.0,0.0,0.0,0.0,0.0,0.0,0.0,0.0,0.0,0.0,1.9103,1.854,1.8879,1.8314,0.0,1.7983,1.8162,1.8252,1.8252,1.8252,1.8508,1.8972,1.8972,1.9226,1.9708,1.9708,1.9708,1.9708,1.9708,1.9708,1.9708,1.9708,1.9708,1.9747,2.0158,2.0516,2.0878,2.1414,2.1688,0.0,0.0,2.2349,2.2398,2.2398,2.2616,2.291,2.3236,2.3577,2.3896,2.4123,2.419,2.4245,2.4493,2.5125,2.5753,2.5977,2.6755,2.7508,2.7809,2.798,2.8186,2.8524,2.9063,2.9467,2.9467,2.9981,3.0404,3.0404,3.0404,3.0404,3.0404,3.0037,2.978,2.978,2.9314,2.9005,2.9005,2.9005,2.9005,2.9005,2.9005,2.9005,2.9005,2.9005,2.9005,2.9005,2.9005,2.9005,2.9005,2.9005,2.9005,2.9005,2.9005,2.9005,2.9005,2.9005,2.8675,2.8172,2.8767,2.8656,2.8191,2.8767,2.9005,2.8932,2.8356,2.8503,2.9005,0.0,0.0,0.0,0.0,0.0,0.0,0.0,0.0,0.0,0.0,0.0,0.0,0.0,0.0,0.0,0.0,0.0,0.0,0.0,1.9724,1.8879,1.8893,1.8759,1.8672,1.8672,1.9301,1.9648,1.9648,1.9648,1.9648,1.9678,1.9678,1.9678,1.9708,1.9708,1.9708,1.9708,1.9708,1.9708,1.9708,1.9708,1.9708,1.9747,2.0158,2.0314,2.0433,2.129,0.0,0.0,0.0,2.2477,2.2682,2.2682,2.2923,0.0,2.3577,2.3917,2.418,2.4208,2.419,2.4401,2.5172,2.5532,2.5902,2.6693,2.7838,2.876,2.8767,2.9577,3.0315,3.0327,3.0346,3.0365,3.0365,3.0385,3.0404,3.0404,3.0404,3.0404,3.0404,3.015,2.9991,2.9991,2.9388,2.9005,2.9005,2.9005,2.9005,2.9005,2.9005,2.9005,2.9005,2.9005,2.9005,2.9005,2.9005,2.9005,2.9005,2.9005,2.9005,2.9005,2.9005,2.9005,2.9005,2.9005,2.8987,2.8968,2.8987,2.8987,2.8968,2.8987,2.9005,2.9005,2.8968,2.8987,2.9005,0.0,0.0,0.0,0.0,0.0,0.0,0.0,0.0,0.0,0.0,0.0,0.0,0.0,0.0,0.0,0.0,0.0,0.0,0.0,2.0615,1.9972,2.0287,1.9696,1.9346,1.9346,1.9588,1.9708,1.9708,1.9708,1.9708,1.9708,1.9708,1.9708,1.9708,1.9708,1.9708,1.9708,1.9708,1.9708,1.9708,1.9708,1.9856,2.0141,2.0583,2.0927,2.1275,0.0,0.0,0.0,2.2402,2.2639,2.2746,2.296,2.3247,2.3599,2.3927,2.4103,2.419,2.419,2.4585,2.5062,2.5319,2.6244,2.7194,2.7605,2.8475,2.9283,2.9528,2.9884,3.0196,3.0367,3.0404,3.0404,3.0404,3.0404,3.0404,3.0404,3.0404,3.0404,3.0404,3.0157,3.0006,3.0006,2.9551,2.9267,2.9267,2.91,2.9005,2.9005,2.9005,2.9005,2.9005,2.9005,2.9005,2.9005,2.9005,2.9005,2.9005,2.9005,2.9005,2.9005,2.9005,2.9005,2.9005,2.9005,2.9005,2.9005,2.9005,2.9005,2.9005,2.9005,2.9005,2.9005,2.9005,2.9005,2.9005,0.0,0.0,0.0,0.0,0.0,0.0,0.0,0.0,0.0,0.0,0.0,0.0,0.0,0.0,0.0,0.0,0.0,0.0,0.0,0.0,2.091,2.1197,2.0532,2.0156,2.0156,1.9997,1.9909,1.9909,1.9764,1.9708,1.9708,1.9708,1.9708,1.9708,1.9708,1.9708,1.9708,1.9708,1.9708,1.9711,1.9856,2.007,2.0365,2.0975,2.1368,0.0,0.0,0.0,0.0,2.2678,2.296,2.3093,2.3311,2.3599,2.3917,2.4141,2.419,2.419,2.419,2.4787,2.5466,2.576,2.688,2.8019,2.847,2.9111,2.9687,2.9954,3.0075,3.0196,3.0367,3.0404,3.0404,3.0404,3.0404,3.0404,3.0404,3.0404,3.0404,3.0404,3.0254,3.0143,3.0143,2.9823,2.9551,2.9423,2.9235,2.91,2.9005,2.9005,2.9005,2.9005,2.9005,2.9005,2.9005,2.9005,2.9005,2.9005,2.9005,2.9005,2.9005,2.9005,2.9005,2.9005,2.9005,2.9005,2.9005,2.9005,2.9005,2.9005,2.9005,2.9005,2.9005,2.9005,2.9005,2.9005,0.0,0.0,0.0,0.0,0.0,0.0,0.0,0.0,0.0,0.0,0.0,0.0,0.0,0.0,0.0,0.0,0.0,0.0,0.0,0.0,0.0,2.1597,2.1213,2.0991,2.0991,2.0533,2.0297,2.0297,1.9861,1.9648,1.9648,1.9618,1.9603,1.9603,1.9603,1.9603,1.9603,1.9603,1.9618,1.9719,2.0112,2.03,2.0466,2.129,0.0,0.0,0.0,0.0,0.0,2.3105,2.3426,2.3703,2.3714,2.3937,2.419,2.419,2.419,2.419,2.419,2.4797,2.5615,2.6413,2.7365,2.8352,2.9219,2.9731,3.0006,3.0013,3.0215,3.0404,3.0404,3.0404,3.0404,3.0404,3.0404,3.0404,3.0404,3.0404,3.0404,3.0404,3.0404,3.0404,3.0404,3.0163,2.9853,2.9464,2.9414,2.9299,2.9021,2.9028,2.8998,2.9005,2.9005,2.9005,2.9005,2.9005,2.9005,2.9005,2.8998,2.9017,2.9005,2.8998,2.9017,2.9005,2.9005,2.9005,2.9005,2.8998,2.9017,2.9005,2.9017,2.9017,2.9005,2.9005,2.9005,2.9005,0.0,0.0,0.0,0.0,0.0,0.0,0.0,0.0,0.0,0.0,0.0,0.0,0.0,0.0,0.0,0.0,0.0,0.0,0.0,0.0,0.0,0.0,0.0,0.0,0.0,0.0,0.0,0.0,0.0,1.8957,1.8942,1.8448,1.8207,0.0,1.8207,1.8207,1.8207,1.8207,1.8694,1.9485,0.0,2.0289,2.129,0.0,0.0,0.0,0.0,0.0,0.0,2.3265,2.3426,2.3735,2.3996,2.4123,2.419,2.419,2.419,2.419,2.419,2.4893,2.582,2.6627,2.7568,2.8587,2.9604,2.9931,3.0061,3.0254,3.0355,3.0404,3.0404,3.0404,3.0404,3.0404,3.0404,3.0404,3.0404,3.0404,3.0404,3.0404,3.0404,3.0404,3.0404,3.0349,3.0176,2.9869,2.9713,2.9523,2.931,2.9299,2.9222,2.9005,2.9005,2.9005,2.9005,2.9005,2.9005,2.9005,2.9192,2.9181,2.9005,2.9222,2.92,2.9005,2.9005,2.9005,2.9017,2.9232,2.9171,2.9028,2.9214,2.9178,2.9005,2.9005,2.9005,2.9005,0.0,0.0,0.0,0.0,0.0,0.0,0.0,0.0,0.0,0.0,0.0,0.0,0.0,0.0,0.0,0.0,0.0,0.0,0.0,0.0,0.0,0.0,0.0,0.0,0.0,0.0,0.0,0.0,0.0,0.0,0.0,1.8361,1.8176,1.8176,1.8176,1.8176,1.8176,0.0,0.0,0.0,0.0,0.0,0.0,0.0,0.0,0.0,0.0,0.0,0.0,2.366,2.3756,2.3947,2.4151,2.419,2.419,2.419,2.419,2.4218,2.4312,2.4995,2.591,2.6808,2.7811,2.8837,2.9786,3.0089,3.0215,3.0367,3.0404,3.0404,3.0404,3.0404,3.0404,3.0404,3.0404,3.0404,3.0404,3.0404,3.0404,3.0404,3.0404,3.0404,3.0404,3.0404,3.0349,3.0189,2.9966,2.9738,2.9533,2.9542,2.9456,2.9314,2.9314,2.9314,2.9314,2.9314,2.9314,2.9314,2.9465,2.9446,2.9314,2.9456,2.9455,2.9314,0.0,2.9314,2.9324,2.9474,2.9436,2.9324,2.9465,2.9394,2.9178,2.9178,2.91,2.9005,0.0,0.0,0.0,0.0,0.0,0.0,0.0,0.0,0.0,0.0,0.0,0.0,0.0,0.0,0.0,0.0,0.0,0.0,0.0,0.0,0.0,0.0,0.0,0.0,0.0,0.0,0.0,0.0,0.0,0.0,0.0,0.0,0.0,0.0,0.0,0.0,0.0,0.0,0.0,0.0,0.0,0.0,0.0,0.0,0.0,0.0,0.0,0.0,0.0,2.4094,2.417,2.4151,2.418,2.419,2.419,2.419,2.4218,2.4275,2.4444,2.5032,2.5845,2.6838,2.7894,2.8885,2.9699,3.0145,3.0404,3.0404,3.0404,3.0404,3.0404,3.0404,3.0404,3.0404,3.0404,3.0404,3.0404,3.0404,3.0404,3.0404,3.0404,3.0404,3.0404,3.0404,3.0404,3.0404,3.017,2.9954,2.9738,2.9748,2.9731,2.9705,2.9705,2.9705,2.9705,2.9818,2.9875,2.9875,3.0023,3.006,3.0034,2.9947,2.9909,2.9875,2.9742,2.9705,2.9705,2.9739,2.9712,2.9705,2.9739,2.9626,2.9434,2.9434,2.928,2.91,0.0,0.0,0.0,0.0,0.0,0.0,0.0,0.0,0.0,0.0,0.0,0.0,0.0,0.0,0.0,0.0,0.0,0.0,0.0,0.0,0.0,0.0,0.0,0.0,0.0,0.0,0.0,0.0,0.0,0.0,0.0,0.0,0.0,0.0,0.0,0.0,0.0,0.0,0.0,0.0,0.0,0.0,0.0,0.0,0.0,0.0,0.0,0.0,0.0,0.0,2.4016,2.3845,2.4103,2.419,2.419,2.419,2.4321,2.4452,2.4495,2.4795,2.5335,2.6224,2.7261,2.8274,2.9062,2.9848,3.0404,3.0404,3.0404,3.0404,3.0404,3.0404,3.0404,3.0404,3.0404,3.0404,3.0404,3.0404,3.0404,3.0404,3.0404,3.0404,3.0404,3.0404,3.0404,3.0404,3.0361,3.0228,2.9962,2.9954,2.9877,2.9713,2.9705,2.9705,2.9705,3.0401,3.0769,3.0797,3.1675,3.1971,3.1749,3.1249,3.0921,3.0731,3.0015,0.0,2.9713,2.9885,2.9853,2.9722,2.9885,2.9821,2.9643,2.9643,2.9616,2.9551,0.0,0.0,0.0,0.0,0.0,0.0,0.0,0.0,0.0,0.0,0.0,0.0,0.0,0.0,0.0,0.0,0.0,0.0,0.0,0.0,0.0,0.0,0.0,0.0,0.0,0.0,1.896,1.8581,0.0,0.0,0.0,1.7477,1.7325,0.0,0.0,0.0,0.0,0.0,0.0,0.0,0.0,0.0,0.0,0.0,0.0,0.0,0.0,0.0,0.0,0.0,2.4094,2.3996,2.4151,2.419,2.4218,2.433,2.4418,2.4534,2.4715,2.4885,2.5238,2.6213,2.6842,2.7448,2.828,2.9121,2.9717,2.9717,3.0077,3.0404,3.0404,3.0404,3.0404,3.0404,3.0404,3.0404,3.0404,3.0404,3.0404,3.0404,3.0404,3.0404,3.0404,3.0404,3.0404,3.0404,3.0404,3.0329,3.0209,3.0209,3.0169,3.0078,3.0497,3.0734,3.0734,3.1562,3.1989,3.1989,3.2505,3.269,3.255,3.2249,3.186,3.1333,3.0924,3.0478,3.0059,3.0169,3.0155,3.0066,3.0176,3.0054,2.9861,2.9861,2.9788,2.9687,0.0,0.0,0.0,0.0,0.0,0.0,0.0,0.0,0.0,0.0,0.0,0.0,0.0,0.0,0.0,0.0,0.0,0.0,0.0,0.0,0.0,0.0,0.0,0.0,0.0,0.0,0.0,1.78,1.78,0.0,0.0,0.0,0.0,0.0,1.78,1.78,0.0,0.0,0.0,0.0,0.0,0.0,0.0,0.0,0.0,0.0,0.0,0.0,0.0,0.0,2.419,2.419,2.419,2.419,2.4247,2.4435,2.4537,2.4639,2.4924,2.5028,2.5271,2.6114,2.6467,2.6774,2.7467,2.8261,2.8838,2.8838,2.9525,3.0115,3.0115,3.0269,3.0404,3.0404,3.0404,3.0404,3.0404,3.0404,3.0404,3.0404,3.0404,3.0404,3.0404,3.0404,3.0404,3.0404,3.0404,3.0404,3.0404,3.0404,3.0481,3.0673,3.1346,3.1775,3.1968,3.2776,3.3179,3.3179,3.3372,3.3468,3.3449,3.3256,3.2833,3.2218,3.1852,3.1308,3.0654,3.0481,3.0404,3.0404,3.0404,3.0267,3.0082,3.0082,2.9988,2.984,0.0,0.0,0.0,0.0,0.0,0.0,0.0,0.0,0.0,0.0,0.0,0.0,0.0,0.0,0.0,0.0,0.0,0.0,0.0,0.0,0.0,0.0,0.0,0.0,0.0,0.0,0.0,1.78,1.78,0.0,0.0,0.0,0.0,0.0,0.0,1.78,1.78,0.0,0.0,0.0,0.0,0.0,0.0,0.0,0.0,0.0,0.0,2.419,2.419,2.419,2.419,2.419,2.419,2.419,2.4247,2.4435,2.4623,2.4799,2.4962,2.5122,2.5293,2.5399,2.6,2.6621,2.6697,2.739,2.8011,2.8011,2.8665,2.9223,2.9223,2.9871,3.0404,3.0404,3.0404,3.0404,3.0404,3.0404,3.0404,3.0404,3.0404,3.0404,3.0404,3.0404,3.0404,3.0404,3.0404,3.0404,3.0404,3.0404,3.075,3.1564,3.166,3.2045,3.2776,3.3641,3.409,3.409,3.4891,3.525,3.5231,3.443,3.4032,3.3898,3.2352,3.166,0.0,3.0731,3.0404,3.0404,3.0404,3.0373,3.0361,3.0361,3.0355,3.0299,0.0,0.0,0.0,0.0,0.0,0.0,0.0,0.0,0.0,0.0,0.0,0.0,0.0,0.0,0.0,0.0,0.0,0.0,0.0,0.0,0.0,0.0,0.0,0.0,0.0,0.0,1.828,1.828,1.8114,0.0,0.0,0.0,0.0,0.0,0.0,1.8046,1.8074,1.8735,0.0,0.0,0.0,0.0,0.0,0.0,0.0,0.0,0.0,0.0,2.419,2.419,2.419,2.419,2.419,2.4275,2.4428,2.4615,2.4738,2.4867,2.5113,2.5248,2.5308,2.5308,2.5558,2.5827,2.5827,2.6486,2.7121,2.7121,2.7794,2.853,2.9011,2.9371,2.9794,0.0,0.0,0.0,3.0404,3.0404,3.0404,3.0404,3.0404,3.0404,3.0404,3.0404,3.0404,3.0404,3.0404,3.0635,3.1154,3.1173,3.1346,3.1698,3.2679,3.3353,3.368,3.4545,3.4988,3.4988,3.5327,3.55,3.5481,3.5135,3.4699,3.4129,3.2929,3.216,0.0,3.075,3.0404,3.0404,3.0404,3.0404,3.0404,3.0404,3.0404,3.0373,0.0,0.0,0.0,0.0,0.0,0.0,0.0,0.0,0.0,0.0,0.0,0.0,0.0,0.0,0.0,0.0,0.0,0.0,0.0,0.0,0.0,0.0,0.0,0.0,0.0,0.0,0.0,1.8595,1.841,1.832,0.0,0.0,1.8046,1.8057,0.0,0.0,0.0,0.0,0.0,0.0,0.0,0.0,0.0,0.0,0.0,0.0,0.0,0.0,0.0,0.0,0.0,2.4284,2.4284,0.0,0.0,2.476,2.4821,2.4929,2.5228,2.5308,2.5308,2.5308,2.5308,2.5308,2.5308,2.5769,2.6212,2.6212,2.6909,2.7775,2.8588,2.8934,2.939,0.0,0.0,3.0404,3.0404,3.0404,3.0404,3.0404,3.0404,3.0404,3.0404,3.0404,3.0404,3.0404,3.0404,3.0788,3.166,3.1929,3.2179,3.2429,3.359,3.4321,3.4584,3.5192,3.55,3.55,3.55,3.55,3.55,3.55,3.5173,3.4526,3.3391,3.2583,0.0,3.0865,3.0404,3.0404,3.0404,3.0404,3.0404,3.0404,3.0404,3.0404,0.0,0.0,0.0,0.0,0.0,0.0,0.0,0.0,0.0,0.0,0.0,0.0,0.0,0.0,0.0,0.0,0.0,0.0,0.0,0.0,0.0,0.0,0.0,0.0,0.0,0.0,0.0,0.0,1.8595,1.8612,1.8612,1.8585,1.8585,1.862,0.0,0.0,0.0,0.0,0.0,0.0,0.0,0.0,0.0,0.0,0.0,0.0,0.0,0.0,0.0,0.0,0.0,0.0,0.0,0.0,0.0,0.0,2.4891,2.504,2.5234,2.5308,2.5308,2.5308,2.5308,2.5308,2.5308,2.5308,2.5308,2.5308,2.6,2.689,2.7761,2.8569,2.939,3.025,0.0,0.0,3.0404,3.0404,3.0404,3.0404,3.0404,3.0404,3.0404,3.0404,3.0404,3.0404,3.0404,3.0788,3.166,3.2449,3.3276,3.4148,3.4186,3.4603,3.5481,3.55,3.55,3.55,3.55,3.55,3.55,3.55,3.55,3.5385,3.366,3.2891,0.0,3.1096,3.0404,3.0404,3.0404,3.0404,3.0404,3.0404,3.0404,3.0404,0.0,0.0,0.0,0.0,0.0,0.0,0.0,0.0,0.0,0.0,0.0,0.0,0.0,0.0,0.0,0.0,0.0,0.0,0.0,0.0,0.0,0.0,0.0,0.0,0.0,0.0,0.0,0.0,0.0,0.0,1.8878,1.9249,1.9412,1.9458,2.0446,2.0883,0.0,0.0,0.0,0.0,0.0,0.0,0.0,0.0,0.0,0.0,0.0,0.0,0.0,0.0,0.0,0.0,0.0,0.0,0.0,0.0,0.0,2.504,2.5253,2.5308,2.5308,2.5308,2.5308,2.5308,2.5308,2.5308,2.5308,2.5308,2.5519,2.6154,2.7621,2.8107,2.8756,3.0173,3.0404,0.0,3.0404,3.0436,3.0477,3.0477,3.0511,3.0537,3.0537,3.0537,3.0537,3.0537,3.0537,3.1177,3.2656,3.2966,3.3432,3.4173,3.4776,3.5212,3.55,3.55,3.55,3.55,3.55,3.55,3.55,3.55,3.55,3.5404,3.366,3.2891,3.2776,3.1096,3.0404,3.0404,3.0404,3.0404,3.0404,3.0404,3.0404,3.0404,0.0,0.0,0.0,0.0,0.0,0.0,0.0,0.0,0.0,0.0,0.0,0.0,0.0,0.0,0.0,0.0,0.0,0.0,0.0,0.0,0.0,0.0,0.0,0.0,0.0,0.0,0.0,0.0,0.0,0.0,0.0,0.0,0.0,2.0605,2.1569,2.1998,0.0,0.0,0.0,0.0,0.0,0.0,2.4436,0.0,0.0,0.0,0.0,0.0,0.0,0.0,0.0,0.0,0.0,0.0,0.0,0.0,2.5105,2.5146,2.5264,2.5308,2.5308,2.5308,2.5308,2.5308,2.5308,2.5308,2.5308,2.5308,2.5327,2.5864,2.7624,2.7951,2.8519,3.0197,3.0487,3.0487,3.0487,3.0516,3.0541,3.0541,3.0571,3.0603,3.0603,3.0603,3.0603,3.0603,3.0603,3.1364,3.3116,3.3193,3.3685,3.4737,3.5268,3.554,3.554,3.554,3.554,3.554,3.5568,3.5562,3.554,3.554,3.5335,3.493,3.3506,3.2737,0.0,3.0962,3.0404,3.0404,3.0404,3.0404,3.0404,3.0404,3.0404,3.0404,0.0,0.0,0.0,0.0,0.0,0.0,0.0,0.0,0.0,0.0,0.0,0.0,0.0,0.0,0.0,0.0,0.0,0.0,0.0,0.0,0.0,0.0,0.0,0.0,0.0,0.0,0.0,2.1794,2.1794,2.1794,2.1794,0.0,0.0,0.0,0.0,0.0,0.0,2.3897,2.4339,2.4503,2.452,2.4631,0.0,0.0,0.0,0.0,0.0,0.0,0.0,0.0,0.0,0.0,0.0,0.0,0.0,0.0,0.0,0.0,0.0,2.5308,2.5308,2.5308,2.5308,2.5308,2.5317,2.5303,0.0,2.5313,2.5352,2.5947,2.7691,2.8068,2.8657,3.033,3.0603,3.0603,3.0603,3.0667,3.0692,3.0717,3.0756,3.0798,3.0798,3.0798,3.0798,3.0798,3.0798,3.1538,3.3212,3.3309,3.4049,3.5665,3.5666,3.5611,3.5606,3.5606,3.5606,3.5606,3.5659,3.5675,3.5606,3.5606,3.5093,0.0,3.3294,3.246,3.1651,3.0774,3.0402,3.0421,3.041,3.0404,3.0404,3.0404,3.0404,3.0404,0.0,0.0,0.0,0.0,0.0,0.0,0.0,0.0,0.0,0.0,0.0,0.0,0.0,0.0,0.0,0.0,0.0,0.0,0.0,0.0,0.0,0.0,0.0,0.0,0.0,0.0,0.0,2.1794,2.1794,2.1794,2.1812,2.2428,0.0,0.0,0.0,0.0,2.3942,2.4283,2.4452,2.452,2.467,2.476,0.0,0.0,0.0,0.0,2.4804,2.4876,0.0,0.0,0.0,0.0,0.0,0.0,0.0,0.0,2.5308,2.5308,2.5308,0.0,2.5308,2.5308,2.5308,2.5313,0.0,2.5372,2.5395,2.5444,2.5474,2.601,2.7756,2.8082,2.8657,3.033,3.0603,3.0603,3.0603,3.122,3.1708,3.1808,3.2376,3.2748,3.2748,3.2748,3.2748,3.2748,3.2748,3.3216,3.429,3.4349,3.4837,3.5891,3.5855,3.5777,3.5671,3.5671,3.5671,3.5671,3.5696,3.5693,3.5671,3.5671,3.5228,3.4384,3.3514,3.2637,3.1771,3.0862,3.0477,3.0467,3.0411,3.0404,3.0404,3.0404,3.0404,3.0404,0.0,0.0,0.0,0.0,0.0,0.0,0.0,0.0,0.0,0.0,0.0,0.0,0.0,0.0,0.0,0.0,0.0,0.0,0.0,0.0,0.0,0.0,0.0,0.0,0.0,0.0,0.0,0.0,0.0,2.2896,0.0,0.0,0.0,0.0,0.0,2.419,2.4209,2.44,2.4543,2.4654,2.4816,0.0,0.0,0.0,0.0,0.0,2.5037,2.5072,0.0,2.5049,2.5149,2.5274,0.0,0.0,0.0,0.0,2.5308,2.5317,2.5335,2.5312,2.5303,2.5344,2.5357,2.5371,2.5431,2.5453,2.5465,2.5484,2.5513,2.6075,2.7811,2.8179,2.8756,3.0453,3.0746,3.0884,3.1274,3.176,3.2261,3.2695,3.3125,3.3398,3.3398,3.3398,3.3398,3.3398,3.3398,3.3789,3.4648,3.4707,3.5098,3.5976,3.5953,3.5892,3.5799,3.5797,3.5797,3.5797,3.5828,3.5828,3.5777,3.5388,3.4726,3.3852,3.2976,3.2117,3.1255,3.0719,3.0498,3.049,3.0428,3.0404,3.0404,3.0404,3.0404,3.0404,0.0,0.0,0.0,0.0,0.0,0.0,0.0,0.0,0.0,0.0,0.0,0.0,0.0,0.0,0.0,0.0,0.0,0.0,0.0,0.0,0.0,0.0,0.0,0.0,0.0,0.0,0.0,0.0,0.0,0.0,0.0,0.0,0.0,0.0,0.0,2.419,2.4209,2.4444,2.4639,2.4799,2.4987,0.0,0.0,0.0,0.0,0.0,0.0,0.0,0.0,2.5308,2.5308,2.5308,2.5308,0.0,0.0,0.0,0.0,0.0,2.5376,2.5367,2.5333,2.539,2.5415,2.5438,2.5491,0.0,2.5526,2.5535,2.5588,2.6155,2.7894,2.8258,2.8867,3.0625,3.0898,3.1191,3.207,3.2305,3.2695,3.3496,3.3711,3.3809,3.3809,3.3809,3.3809,3.3809,3.3809,3.4121,3.4863,3.4902,3.5234,3.5976,3.5996,3.5974,3.5913,3.5911,3.5911,3.5913,3.5974,3.5973,3.5892,3.5013,3.4115,3.317,0.0,0.0,3.0633,3.0554,3.0533,3.0521,3.0452,3.0433,3.0433,3.0433,3.0422,3.0419,0.0,0.0,0.0,0.0,0.0,0.0,0.0,0.0,0.0,0.0,0.0,0.0,0.0,0.0,0.0,0.0,0.0,0.0,0.0,0.0,0.0,0.0,0.0,0.0,0.0,0.0,0.0,0.0,0.0,0.0,2.419,2.419,2.419,0.0,0.0,2.419,2.4218,2.4591,2.4775,2.4832,2.5138,0.0,0.0,0.0,0.0,0.0,0.0,0.0,0.0,2.5308,2.5308,2.5308,2.5308,0.0,0.0,0.0,0.0,0.0,2.5406,2.5434,2.546,2.5473,2.5476,2.5493,2.5566,2.5575,2.5602,2.566,2.5682,2.621,2.7968,2.8281,2.8867,3.0625,3.0898,3.1191,3.207,3.2793,3.3535,3.4394,3.5156,3.5605,3.5605,3.5605,3.5605,3.5605,3.5605,3.5664,3.5781,3.5801,3.5859,3.5996,3.5996,3.5996,3.5976,3.5976,3.5976,3.5976,3.5996,3.5996,3.5956,3.5077,3.4197,3.3317,0.0,3.1657,3.0836,3.0713,3.0675,3.0669,3.06,3.0565,3.0565,3.0565,3.0533,3.0477,0.0,0.0,0.0,0.0,0.0,0.0,0.0,0.0,0.0,0.0,0.0,0.0,0.0,0.0,0.0,0.0,0.0,0.0,0.0,0.0,0.0,0.0,0.0,0.0,0.0,0.0,0.0,0.0,0.0,2.419,2.419,2.419,2.419,2.4199,0.0,2.4357,2.4393,2.4752,2.491,2.493,0.0,0.0,0.0,0.0,0.0,0.0,0.0,0.0,0.0,0.0,2.5308,2.5308,2.5308,0.0,0.0,0.0,0.0,0.0,2.5501,2.5537,2.5561,2.5601,2.5572,2.5566,2.5636,2.5659,2.5661,2.5683,2.5703,2.623,2.7988,2.8301,2.8867,3.0625,3.1309,3.1894,3.2734,3.3574,3.4434,3.5293,3.5762,3.5996,3.5996,3.5996,3.5996,3.5996,3.5996,3.5996,3.5996,3.5996,3.5996,3.5996,3.5996,3.5996,3.5996,3.5996,3.5996,3.5996,3.5996,3.5996,3.5957,3.4609,3.3789,3.332,0.0,3.1269,3.0898,3.0767,3.0695,3.069,3.0633,3.0603,3.0603,3.0603,3.057,3.0494,0.0,0.0,0.0,0.0,0.0,0.0,0.0,0.0,0.0,0.0,0.0,0.0,0.0,0.0,0.0,0.0,0.0,0.0,0.0,0.0,0.0,0.0,0.0,0.0,0.0,0.0,2.419,2.419,2.419,2.419,2.419,2.419,2.419,0.0,0.0,2.4503,2.451,2.4865,2.5004,2.5022,0.0,0.0,0.0,0.0,0.0,0.0,0.0,0.0,0.0,0.0,0.0,0.0,0.0,0.0,0.0,2.5376,2.5415,2.5479,2.5567,2.5606,2.5635,2.5683,0.0,2.5635,2.5683,2.5703,2.5703,2.5703,2.5859,2.6465,2.8027,2.8633,2.9355,3.0684,3.1621,3.248,3.3281,3.4141,3.5019,3.5898,3.5996,3.5996,3.5996,3.5996,3.5996,3.5996,3.5996,3.5996,3.5996,3.5996,3.5996,3.5996,3.5996,3.5996,3.5996,3.5996,3.5996,3.5996,3.5996,3.5898,3.5644,3.4101,3.3301,3.3047,3.1543,3.0898,3.0898,3.0793,3.0745,3.0743,3.0691,3.0672,3.0672,3.0636,3.0594,3.0533,0.0,0.0,0.0,0.0,0.0,0.0,0.0,0.0,0.0,0.0,0.0,0.0,0.0,0.0,0.0,0.0,0.0,0.0,0.0,0.0,0.0,0.0,0.0,0.0,0.0,2.419,2.419,2.419,2.419,2.419,2.419,2.419,2.419,2.4199,0.0,2.4503,2.451,2.4865,2.5004,2.5022,2.5219,0.0,0.0,0.0,0.0,0.0,0.0,0.0,0.0,0.0,0.0,0.0,0.0,0.0,2.5379,2.5398,2.5495,2.5595,2.5601,2.5657,2.5683,2.5703,2.5703,2.5683,2.5703,2.5703,2.5703,2.5703,2.6348,2.7187,2.8125,2.9629,3.0742,3.0879,3.1621,3.248,3.3281,3.4141,3.5019,3.5898,3.5996,3.5996,3.5996,3.5996,3.5996,3.5996,3.5996,3.5996,3.5996,3.5996,3.5996,3.5996,3.5996,3.5996,3.5996,3.5996,3.5996,3.5996,3.5996,3.5586,3.4766,3.3828,3.2988,3.2226,3.1309,3.0898,3.0898,3.0898,3.0898,3.0898,3.0878,3.0878,3.0858,3.0742,3.0689,3.068,0.0,0.0,0.0,0.0,0.0,0.0,0.0,0.0,0.0,0.0,0.0,0.0,0.0,0.0,0.0,0.0,0.0,0.0,0.0,0.0,0.0,0.0,0.0,2.4583,2.4393,2.4257,2.419,2.419,2.419,2.419,2.419,2.419,0.0,0.0,0.0,2.4734,2.4824,2.5071,2.5198,2.5179,2.5269,2.5308,0.0,0.0,0.0,0.0,0.0,0.0,0.0,0.0,2.5321,0.0,0.0,0.0,0.0,0.0,2.5558,2.5605,2.5658,2.5683,2.5703,2.5703,2.5703,0.0,0.0,2.5703,2.5703,2.5703,2.6387,2.7422,2.8848,3.0098,3.0898,3.0898,3.2051,3.3047,3.3359,3.4629,3.5625,3.5957,3.5996,3.5996,3.5996,3.5996,3.5996,3.5996,3.5996,3.5996,3.5996,3.5996,3.5996,3.5996,3.5996,3.5996,3.5996,3.5996,3.5996,3.5996,3.5996,3.5547,3.4668,3.3809,3.2969,3.2148,3.1289,3.0898,3.0898,3.0898,3.0898,3.0898,3.0898,3.0898,3.0898,3.0838,3.077,3.0689,0.0,0.0,0.0,0.0,0.0,0.0,0.0,0.0,0.0,0.0,0.0,0.0,0.0,0.0,0.0,0.0,0.0,0.0,0.0,0.0,0.0,0.0,0.0,2.4778,2.4591,2.4401,2.4257,2.419,2.419,2.419,2.419,0.0,0.0,0.0,0.0,0.0,2.5016,2.5214,2.5308,2.5308,2.5308,2.5308,0.0,0.0,0.0,0.0,0.0,0.0,0.0,0.0,0.0,0.0,0.0,0.0,0.0,0.0,0.0,2.5636,2.5683,2.5703,2.5703,2.5703,0.0,0.0,2.5703,2.5703,2.5703,2.5703,2.6602,2.7949,2.9687,3.0508,3.0898,3.0898,3.2305,3.3398,3.3398,3.4902,3.5996,3.5996,3.5996,3.5996,3.5996,3.5996,3.5996,3.5996,3.5996,3.5996,3.5996,3.5996,3.5996,3.5996,3.5996,3.5996,3.5996,3.5996,3.5996,3.5996,3.5723,3.5137,3.4258,3.3418,3.2578,3.1758,3.1152,3.0898,3.0898,3.0898,3.0898,3.0898,3.0898,3.0898,3.0898,3.0898,3.0838,3.0805,0.0,0.0,0.0,0.0,0.0,0.0,0.0,0.0,0.0,0.0,0.0,0.0,0.0,0.0,0.0,0.0,0.0,0.0,0.0,0.0,0.0,0.0,0.0,2.493,2.4804,2.4599,2.4401,2.419,2.419,2.419,2.4199,2.441,0.0,0.0,0.0,0.0,0.0,2.5214,2.5308,2.5308,2.5308,2.5308,2.5308,0.0,0.0,0.0,0.0,0.0,0.0,0.0,2.5394,0.0,0.0,0.0,0.0,0.0,2.5658,2.5703,2.5703,2.5703,2.5703,2.5703,0.0,0.0,2.5703,2.5703,2.5703,2.5723,2.7109,2.8828,3.0586,3.0898,3.0898,3.0898,3.2305,3.3398,3.3398,3.4883,3.5996,3.5996,3.5996,3.5996,3.5996,3.5996,3.5996,3.5996,3.5996,3.5996,3.5996,3.5996,3.5996,3.5996,3.5996,3.5996,3.5996,3.5996,3.5996,3.5976,3.5098,3.4238,3.3379,3.2578,3.1719,3.0898,3.0898,3.0898,3.0898,3.0898,3.0898,3.0898,3.0898,3.0898,3.0898,3.0898,3.0918,3.1035,0.0,0.0,0.0,0.0,0.0,0.0,0.0,0.0,0.0,0.0,0.0,0.0,0.0,0.0,0.0,0.0,0.0,0.0,0.0,0.0,0.0,0.0,0.0,0.0,0.0,0.0,2.4401,2.419,2.419,2.419,0.0,0.0,0.0,2.4723,0.0,0.0,2.5214,2.5269,2.5308,2.5308,2.5308,2.5308,2.5308,0.0,0.0,0.0,0.0,0.0,0.0,0.0,0.0,0.0,0.0,0.0,0.0,0.0,2.5683,2.5703,2.5703,2.5703,2.5703,2.5703,2.5703,2.5703,2.5703,2.5703,0.0,2.7285,2.7949,2.8828,3.0586,3.0898,3.0898,3.0898,3.1836,3.2754,3.332,3.4375,3.5312,3.5937,3.5996,3.5996,3.5996,3.5996,3.5996,3.5996,3.5996,3.5996,3.5996,3.5996,3.5996,3.5996,3.5996,3.5996,3.5996,3.5391,3.5098,3.5078,3.3633,3.3105,3.3379,3.2578,3.1719,3.0898,3.0898,3.0898,3.0898,3.0898,3.0898,3.0898,3.0898,3.0898,3.0898,3.0898,3.1289,3.1836,0.0,0.0,0.0,0.0,0.0,0.0,0.0,0.0,0.0,0.0,0.0,0.0,0.0,0.0,0.0,0.0,0.0,0.0,0.0,0.0,0.0,0.0,0.0,0.0,0.0,2.4745,2.4528,0.0,0.0,0.0,0.0,0.0,0.0,2.4811,0.0,2.5198,2.5308,2.5308,2.5308,2.5308,2.5308,2.5308,2.5308,0.0,0.0,0.0,0.0,0.0,0.0,0.0,0.0,0.0,0.0,0.0,0.0,2.5703,2.5703,2.5703,2.5703,2.5703,2.5703,2.5703,2.5703,2.5703,2.5703,2.5703,2.6191,2.7949,2.8301,2.8828,3.0586,3.0898,3.0898,3.0898,3.1621,3.2363,3.2851,3.3945,3.4883,3.543,3.5781,3.5996,3.5996,3.5996,3.5996,3.5996,3.5996,3.5996,3.5996,3.5996,3.584,3.5488,3.5488,3.5312,3.4961,3.4453,3.418,3.418,3.2832,3.2441,3.2891,3.2051,3.1406,3.0898,3.0898,3.0898,3.0898,3.0898,3.0898,3.0898,3.0898,3.0898,3.0937,3.1289,3.1758,3.2285,0.0,0.0,0.0,0.0,0.0,0.0,0.0,0.0,0.0,0.0,0.0,0.0,0.0,0.0,0.0,0.0,0.0,0.0,0.0,0.0,0.0,0.0,0.0,0.0,0.0,0.0,0.0,0.0,0.0,0.0,0.0,0.0,2.4825,2.4821,0.0,2.5308,2.5308,2.5308,2.5308,2.5308,2.5308,2.5308,2.5308,2.5317,0.0,0.0,0.0,0.0,0.0,0.0,0.0,0.0,0.0,0.0,2.5703,2.5703,2.5703,2.5703,2.5703,2.5703,2.5703,2.5703,2.5703,2.5703,2.5703,2.5703,2.6191,2.7949,2.8301,2.8828,3.0586,3.0898,3.0898,3.0898,3.1562,3.2109,3.2187,3.3516,3.4492,3.457,3.5273,3.5781,3.5879,3.5879,3.5918,3.5996,3.5937,3.5879,3.5879,3.5801,3.5391,3.4609,3.457,3.4199,3.3418,3.332,3.3281,3.3281,3.2461,3.207,3.2051,3.1269,3.0898,3.0898,3.0898,3.0898,3.0898,3.0898,3.0898,3.0898,3.0898,3.0957,3.1113,3.1914,3.2305,3.2656,0.0,0.0,0.0,0.0,0.0,0.0,0.0,0.0,0.0,0.0,0.0,0.0,0.0,0.0,0.0,0.0,0.0,0.0,0.0,0.0,0.0,0.0,0.0,0.0,0.0,0.0,0.0,0.0,0.0,0.0,0.0,0.0,0.0,2.4962,0.0,2.5308,2.5308,2.5308,2.5308,2.5308,2.5308,2.5308,2.5317,2.5354,2.5387,0.0,0.0,0.0,0.0,0.0,0.0,0.0,2.5703,2.5703,2.5703,2.5703,2.5703,2.5703,2.5703,2.5703,2.5703,2.5703,2.5703,2.5703,2.5703,2.5703,2.6191,2.7949,2.8301,2.8828,3.0586,3.0898,3.0898,3.0898,3.1055,3.1426,3.2109,3.2519,3.2969,3.3594,3.3848,3.4238,3.4902,3.498,3.5254,3.5957,3.5371,3.498,3.498,3.4336,3.3867,3.3691,3.3672,3.3594,3.3398,3.2773,3.2461,3.2441,3.1582,3.1172,3.1172,3.0996,3.0898,3.0898,3.0898,3.0898,3.0898,3.0898,3.0898,3.0898,3.0898,3.1328,3.1934,3.2129,3.3027,3.4219,0.0,0.0,0.0,0.0,0.0,0.0,0.0,0.0,0.0,0.0,0.0,0.0,0.0,0.0,0.0,0.0,0.0,0.0,0.0,0.0,0.0,0.0,0.0,0.0,0.0,0.0,0.0,0.0,0.0,0.0,0.0,0.0,0.0,2.5016,0.0,2.5308,2.5308,2.5308,2.5308,2.5308,2.5308,2.5327,2.535,2.5383,2.5441,2.5496,2.5569,0.0,0.0,0.0,0.0,0.0,0.0,0.0,2.5703,2.5703,2.5703,2.5703,2.5703,2.5703,2.5703,2.5703,2.5703,2.5703,2.5703,2.5703,2.6074,2.7402,2.8008,2.8711,3.0039,3.0625,3.0898,3.0898,3.0898,3.1055,3.1504,3.1934,3.2363,3.2773,3.3164,3.3574,3.4023,3.4082,3.4277,3.4726,3.4336,3.4082,3.4082,3.3652,3.3223,3.2832,3.2832,3.2637,3.2207,3.1797,3.1582,3.1562,3.1113,3.0898,3.0898,3.0898,3.0898,3.0898,3.0898,3.0898,3.0898,3.0898,3.0898,3.0898,3.0898,3.1426,3.2246,3.2637,3.3594,3.4766,0.0,0.0,0.0,0.0,0.0,0.0,0.0,0.0,0.0,0.0,0.0,0.0,0.0,0.0,0.0,0.0,0.0,0.0,0.0,0.0,0.0,0.0,0.0,0.0,0.0,0.0,0.0,0.0,0.0,0.0,0.0,0.0,0.0,2.5052,0.0,2.5308,2.5308,2.5308,2.5308,2.5308,2.5313,2.5346,2.5397,2.5428,2.5493,2.5602,2.5607,2.5658,2.5703,2.5703,0.0,0.0,0.0,0.0,2.5703,2.5703,2.5703,2.5703,2.5703,2.5703,2.5703,2.5703,2.5703,2.5703,2.5703,2.5703,2.5898,2.6621,2.7461,2.8398,2.9414,3.0195,3.0723,3.0879,3.0898,3.0898,3.0898,3.1523,3.1973,3.1973,3.2559,3.3027,3.3184,3.3184,3.3242,3.3398,3.3262,3.3184,3.3184,3.3047,3.2656,3.1992,3.1973,3.1621,3.0918,3.0898,3.0898,3.0898,3.0898,3.0898,3.0898,3.0898,3.0898,3.0898,3.0898,3.0898,3.0898,3.0898,3.0898,3.0898,3.0898,3.1426,3.2305,3.3105,3.3945,3.4824,0.0,0.0,0.0,0.0,0.0,0.0,0.0,0.0,0.0,0.0,0.0,0.0,0.0,0.0,0.0,0.0,0.0,0.0,2.5308,0.0,0.0,2.5308,2.5308,0.0,0.0,0.0,0.0,0.0,0.0,0.0,0.0,0.0,0.0,2.5264,0.0,0.0,2.5308,2.5308,2.5308,2.5317,2.5363,2.5391,2.5411,2.5537,2.5573,2.5605,2.5661,2.5683,2.5703,2.5703,2.5703,0.0,0.0,0.0,2.5703,2.5703,2.5703,2.5703,2.5703,2.5703,2.5703,2.5703,2.5703,2.5703,2.5703,2.5703,2.5723,2.5859,2.6562,2.7676,2.9297,2.9707,3.0019,3.0781,3.0898,3.0898,3.0898,3.0996,3.1074,3.1074,3.1172,3.1523,3.2285,3.2363,3.2656,3.3359,3.2754,3.2363,3.2363,3.1641,3.1172,3.1074,3.1074,3.1016,3.0898,3.0898,3.0898,3.0898,3.0898,3.0898,3.0898,3.0898,3.0898,3.0898,3.0898,3.0898,3.0898,3.0898,3.0898,3.0898,3.0898,3.1426,3.2305,3.3105,3.3945,3.4824,0.0,0.0,0.0,0.0,0.0,0.0,0.0,0.0,0.0,0.0,0.0,0.0,0.0,0.0,0.0,2.5308,2.5308,2.5308,2.5308,2.5308,2.5308,2.5308,2.5339,2.5344,0.0,0.0,0.0,0.0,0.0,0.0,0.0,2.5308,2.5308,0.0,0.0,0.0,0.0,2.5348,2.5354,2.5359,2.5425,2.5488,2.5526,2.559,2.5611,2.566,2.5683,2.5703,2.5703,2.5703,2.5703,2.5703,2.5703,0.0,0.0,0.0,2.5703,2.5703,2.5703,2.5703,2.5703,2.5703,2.5703,2.5703,2.5703,2.5703,2.5703,2.5703,2.5996,2.666,2.791,2.8945,2.9726,3.0117,3.0586,3.0898,3.0898,3.0898,3.0898,3.0898,3.0898,3.1055,3.1426,3.1465,3.1621,3.1973,3.168,3.1465,3.1465,3.1113,3.0898,3.0898,3.0898,3.0898,3.0898,3.0898,3.0898,3.0898,3.0898,3.0898,3.0898,3.0898,3.0898,3.0898,3.0898,3.0898,3.0898,3.0898,3.0898,3.0898,3.0898,3.1426,3.2305,3.3105,3.3945,3.4824,0.0,0.0,0.0,0.0,0.0,0.0,0.0,0.0,0.0,0.0,0.0,0.0,0.0,0.0,0.0,0.0,2.5308,2.5308,2.5308,2.5317,2.5336,2.5336,2.5391,2.5394,2.5346,0.0,0.0,0.0,0.0,0.0,2.5308,2.5335,2.5348,0.0,2.5336,2.5336,0.0,0.0,2.5425,2.5425,2.5508,2.5556,2.5602,2.5629,2.566,2.5703,2.5703,2.5703,2.5703,2.5703,2.5703,2.5703,2.5703,2.5703,0.0,0.0,0.0,2.5703,2.5703,2.5703,2.5703,2.5703,2.5703,2.5703,2.5703,2.5703,2.5703,2.5703,2.5703,2.5898,2.6543,2.791,2.9082,2.9531,3.0156,3.0644,3.0879,3.0898,3.0898,3.0898,3.0898,3.0898,3.0898,3.0898,3.0898,3.0898,3.0898,3.0898,3.0898,3.0898,3.0898,3.0898,3.0898,3.0898,3.0898,3.0898,3.0898,3.0898,3.0898,3.0898,3.0898,3.0898,3.0898,3.0898,3.0898,3.0898,3.0898,3.0898,3.0898,3.0898,3.0898,3.1309,3.1992,3.3027,3.3809,3.4531,0.0,0.0,0.0,0.0,0.0,0.0,0.0,0.0,0.0,0.0,0.0,0.0,0.0,2.5308,2.5308,2.5308,2.5308,2.5308,2.5308,2.5354,2.5391,2.5391,2.5465,0.0,2.5481,0.0,0.0,0.0,0.0,0.0,2.5293,2.5428,2.5462,2.5383,2.5395,2.5395,2.5409,0.0,0.0,0.0,2.5564,2.5599,2.5604,2.5662,2.5703,2.5703,2.5703,2.5703,2.5703,2.5703,2.5703,2.5703,2.5703,2.5703,2.5703,0.0,0.0,0.0,2.5703,2.5703,2.5703,2.5703,2.5703,2.5703,2.5703,2.5703,2.5703,2.5703,2.5703,2.5703,2.5762,2.6523,2.7676,2.9336,2.9648,2.9961,3.0781,3.0898,3.0898,3.0898,3.0898,3.0898,3.0898,3.0898,3.0898,3.0898,3.0898,3.0898,3.0898,3.0898,3.0898,3.0898,3.0898,3.0898,3.0898,3.0898,3.0898,3.0898,3.0898,3.0898,3.0898,3.0898,3.0898,3.0898,3.0898,3.0898,3.0898,3.0898,3.0898,3.0898,3.0898,3.0937,3.1172,3.2793,3.3437,3.3711,0.0,0.0,0.0,0.0,0.0,0.0,0.0,0.0,0.0,0.0,0.0,0.0,0.0,2.5308,2.5308,2.5308,2.5339,2.5363,2.5352,2.5425,2.5451,2.5451,2.5535,2.5547,2.5491,0.0,0.0,0.0,0.0,2.5456,2.5428,2.5488,2.5498,2.5454,2.5451,2.5451,2.5479,2.5541,0.0,2.5566,2.5635,2.5661,2.5661,2.5683,2.5703,2.5703,2.5703,2.5703,2.5703,2.5703,2.5703,2.5703,2.5703,2.5703,2.5703,2.5703,2.5703,2.5703,2.5703,2.5703,2.5703,2.5703,2.5703,2.5703,2.5703,2.5703,2.5703,2.5703,2.5703,2.5703,2.5703,2.6406,2.7207,2.7832,2.8398,2.9062,2.9941,3.0078,3.0273,3.082,3.0898,3.0898,3.0898,3.0898,3.0898,3.0898,3.0898,3.0898,3.0898,3.0898,3.0898,3.0898,3.0898,3.0898,3.0898,3.0898,3.0898,3.0898,3.0898,3.0898,3.0898,3.0898,3.0898,3.0898,3.0898,3.0898,3.0898,3.0898,3.0898,3.0898,3.0898,3.0898,3.1094,3.2773,3.3398,3.3652,0.0,0.0,0.0,0.0,0.0,0.0,0.0,0.0,0.0,0.0,0.0,0.0,0.0,0.0,2.5371,2.5371,2.5413,2.5431,2.5438,2.5508,2.552,2.552,2.5601,2.5607,2.5564,2.5595,0.0,0.0,0.0,0.0,0.0,2.5549,2.5556,2.5522,2.5558,2.5556,0.0,2.5604,2.5634,2.5635,2.5683,2.5703,2.5703,2.5703,2.5703,2.5703,2.5703,2.5703,2.5703,2.5703,2.5703,2.5703,2.5703,2.5683,2.5662,2.5683,2.5683,2.5662,2.5683,2.5703,2.5703,2.5703,2.5703,2.5703,2.5703,2.5703,2.5703,2.5703,2.5703,2.5703,2.5703,2.6172,2.666,2.6953,2.748,2.8164,2.9043,2.916,2.9375,2.9961,3.0039,3.0137,3.0449,3.0469,3.0586,3.0879,3.0898,0.0,3.0898,3.0898,3.0879,3.0837,3.0811,3.0811,3.0837,3.0811,3.0811,3.0837,3.0837,3.0837,3.0837,3.0879,3.0898,3.0898,3.0898,3.0898,3.0898,3.0898,3.0898,3.0898,3.0898,3.0898,3.1074,3.248,3.3164,3.3613,0.0,0.0,0.0,0.0,0.0,0.0,0.0,0.0,0.0,0.0,0.0,0.0,0.0,0.0,0.0,2.5491,2.5493,2.5493,2.5493,2.5563,2.5603,2.5603,2.5661,2.5703,2.5703,2.5635,0.0,0.0,0.0,0.0,0.0,0.0,2.5661,2.5604,2.5662,2.5661,2.5604,2.5662,2.5703,2.5703,2.5703,2.5703,2.5703,2.5703,2.5703,2.5703,2.5703,2.5703,2.5703,2.5703,2.5703,2.5703,2.5703,2.5658,2.5606,2.5682,2.5658,2.5606,0.0,0.0,0.0,2.5703,2.5703,2.5703,2.5703,2.5703,2.5703,2.5703,2.5703,2.5703,2.5703,2.5703,2.5977,2.6816,2.6953,2.7266,2.8144,2.8262,2.8262,2.8301,2.8301,2.8633,2.9473,2.9551,2.9902,3.0762,3.082,3.082,3.082,3.082,3.0759,3.0636,3.0565,3.0563,3.0615,3.0563,3.0563,3.0654,3.0654,3.0674,3.0696,3.0837,3.0898,3.0898,3.0898,3.0898,3.0898,3.0898,3.0898,3.0898,3.0898,3.0898,3.1016,3.1875,3.2695,3.3496,0.0,0.0,0.0,0.0,0.0,0.0,0.0,0.0,0.0,0.0,0.0,0.0,0.0,0.0,2.5491,2.5491,2.5549,2.5567,2.5567,2.5634,2.5662,2.5662,2.5683,2.5703,2.5703,2.5683,0.0,0.0,0.0,0.0,0.0,0.0,0.0,0.0,2.5683,2.5683,2.5662,2.5683,2.5703,2.5703,2.5703,2.5703,2.5703,2.5703,2.5703,2.5703,2.5703,2.5703,2.5703,2.5703,2.5703,2.5683,2.5637,2.5572,2.5537,2.5552,2.5547,2.5539,2.5552,0.0,0.0,0.0,0.0,0.0,2.5683,2.5703,2.5703,2.5703,2.5703,2.5703,2.5703,2.5703,2.5781,2.6016,2.6055,2.6367,2.7246,2.7363,2.7598,2.8223,2.8301,2.8398,2.8633,2.8652,2.8769,0.0,2.9023,2.9023,2.9023,2.896,2.8903,2.8823,2.8802,2.8802,2.8821,2.8802,2.9129,2.9764,2.9764,3.0098,3.0695,3.0744,3.0814,3.0898,3.0898,3.0898,3.0898,3.0898,3.0898,3.0898,3.0898,3.0898,3.1016,3.1875,3.2344,3.2734,0.0,0.0,0.0,0.0,0.0,0.0,0.0,0.0,0.0,0.0,0.0,0.0,0.0,0.0,0.0,2.5573,2.5629,2.5636,2.5636,2.5682,2.5703,2.5703,2.5703,2.5703,2.5703,2.5703,2.5703,0.0,0.0,0.0,0.0,0.0,0.0,0.0,0.0,0.0,2.5703,2.5703,2.5703,2.5703,2.5703,2.5703,2.5703,2.5703,2.5703,2.5703,2.5703,2.5703,2.5703,2.5661,2.5636,2.5605,2.5566,2.5503,2.5454,2.5484,2.549,2.5451,2.5484,2.5491,2.552,2.5551,0.0,0.0,2.5637,2.566,2.5661,2.5683,2.5703,2.5703,2.5703,2.5703,2.5703,2.5703,2.5703,2.5879,2.6387,2.6465,2.6641,2.7148,2.7226,2.7363,2.7715,2.7754,2.791,2.8262,2.8301,2.8281,2.8258,2.8196,2.813,2.8067,2.8029,2.8025,2.8064,2.8029,2.8449,2.9314,2.9371,2.9835,3.0667,3.0742,3.0836,3.0898,3.0898,3.0898,3.0898,3.0898,3.0898,3.0898,3.0898,3.0898,3.0957,3.1465,3.1894,3.2344,0.0,0.0,0.0,0.0,0.0,0.0,0.0,0.0,0.0,0.0,0.0,0.0,0.0,0.0,0.0,0.0,2.5703,2.5703,2.5703,2.5703,2.5703,2.5703,2.5703,2.5703,2.5703,2.5703,2.5703,0.0,0.0,0.0,0.0,0.0,0.0,0.0,0.0,0.0,0.0,2.5703,2.5703,2.5703,2.5703,2.5703,2.5703,2.5703,2.5703,2.5683,2.5683,2.5683,2.5662,2.5605,2.5547,2.5498,2.5498,2.5447,2.539,2.5468,2.5434,2.5402,2.5468,2.5488,2.549,2.5498,2.5481,0.0,2.5567,2.5595,2.5604,2.5661,2.5683,2.5683,2.5683,2.5683,2.5703,2.5703,2.5703,2.5703,2.5703,2.5703,2.5703,2.5703,2.5703,2.5996,2.6777,2.6855,2.7187,2.7949,2.8008,2.7986,2.7904,2.7838,2.7783,2.7706,2.7634,2.7648,2.7702,2.7648,2.8053,2.8917,2.913,2.9654,3.0441,3.0743,3.0877,3.0877,3.0898,3.0898,3.0879,3.0898,3.0898,3.0898,3.0898,3.0898,3.0898,3.0898,3.1387,3.207,2.5451,0.0,0.0,0.0,0.0,0.0,0.0,0.0,0.0,0.0,0.0,0.0,0.0,0.0,0.0,0.0,2.5703,2.5703,2.5703,2.5703,2.5703,2.5703,2.5703,2.5703,2.5703,2.5703,2.5703,2.5703,0.0,0.0,0.0,0.0,0.0,0.0,0.0,0.0,0.0,2.5703,2.5703,2.5703,2.5703,2.5703,2.5703,2.5703,2.5661,2.5629,2.5629,2.5575,2.5543,2.5513,2.5463,2.5427,2.5427,2.536,2.5312,2.5335,2.5326,2.5331,2.5335,2.5344,2.5346,2.5417,2.5418,0.0,2.5496,2.5529,2.5511,2.5541,2.5572,2.5629,2.5629,2.5661,2.5703,2.5703,2.5703,2.5703,2.5703,2.5703,2.5703,2.5703,2.5703,2.5762,2.5937,2.5957,2.6016,2.6191,2.6211,2.6146,2.6024,2.6004,2.5952,2.5837,2.5803,2.5803,2.5832,2.5803,2.6246,2.7123,2.7846,2.865,2.9493,3.0297,3.0665,3.0672,3.0833,3.0837,3.0745,3.0858,3.0898,3.0898,3.0898,3.0898,3.0898,3.0898,3.1016,3.125,2.5517,0.0,0.0,0.0,0.0,0.0,0.0,0.0,0.0,0.0,0.0,0.0,0.0,0.0,0.0,0.0,0.0,0.0,0.0,0.0,2.5703,2.5703,2.5703,2.5703,2.5703,2.5703,2.5703,2.5703,0.0,0.0,0.0,0.0,0.0,0.0,0.0,0.0,0.0,2.5661,2.5662,2.5703,2.5703,2.5703,2.5703,2.5661,2.5633,2.5599,2.5561,2.5517,2.5456,2.5453,2.5409,2.5357,2.5357,2.5336,2.5308,2.5308,2.5308,2.5308,2.5308,2.5308,2.5303,2.5333,2.5346,0.0,0.0,2.5456,2.5468,2.5484,2.5535,2.5552,2.5552,2.559,2.5602,2.5602,2.5633,2.5658,2.5658,2.5683,2.5703,2.5703,2.5703,2.5703,2.5703,2.5703,2.5703,2.5703,2.5703,2.5636,2.5517,2.5491,2.5441,2.5293,2.5308,2.5308,2.5308,2.5308,2.5731,2.6601,2.7523,2.8399,2.9229,3.0179,3.0603,3.0611,3.0737,3.0768,3.0717,3.0838,3.0898,3.0898,3.0898,3.0898,3.0898,3.0898,3.0898,3.0957,2.5552,0.0,0.0,0.0,0.0,0.0,0.0,0.0,0.0,0.0,0.0,0.0,0.0,0.0,0.0,0.0,0.0,0.0,0.0,0.0,2.5703,2.5703,2.5703,2.5703,2.5703,2.5703,2.5703,2.5703,0.0,0.0,0.0,0.0,0.0,0.0,0.0,0.0,0.0,2.5633,2.5633,2.5683,2.5661,2.5682,2.5683,2.5632,2.5597,2.5566,2.5481,2.5425,2.5379,2.5372,2.5348,2.5308,2.5308,2.5308,2.5308,2.5308,2.5308,2.5308,2.5308,2.5308,2.5308,2.5308,2.5308,2.5317,0.0,0.0,0.0,2.5456,2.5463,2.5471,2.5471,2.5484,2.5491,2.5491,2.5549,2.5572,2.5572,2.5632,2.5662,2.5703,2.5703,2.5703,2.5703,2.5703,2.5703,2.5703,2.5703,2.5657,2.5533,2.5517,2.5447,2.5312,2.5317,2.5308,2.5308,2.5308,2.5654,2.637,2.7468,2.8324,2.8986,3.0078,3.0571,3.0581,3.0655,3.0677,3.0673,3.0788,3.0857,3.0858,3.0898,3.0898,3.0898,3.0898,3.0898,3.0898,2.5683,2.5683,0.0,0.0,0.0,0.0,0.0,0.0,0.0,0.0,0.0,0.0,0.0,2.5558,2.5551,2.5604,2.5606,0.0,2.5703,2.5703,0.0,2.5703,2.5703,2.5703,2.5703,2.5703,2.5703,2.5703,0.0,0.0,0.0,0.0,0.0,0.0,2.5703,0.0,0.0,2.5633,2.5603,2.5604,2.5551,2.5598,2.5683,2.5632,2.5561,2.5486,2.5375,2.5322,2.5308,2.5308,2.5317,2.5308,2.5308,2.5308,2.5308,2.5308,2.5308,2.5308,2.5308,2.5308,2.5308,2.5308,2.5308,2.5288,2.5308,0.0,2.5313,2.5327,0.0,2.5408,2.5408,0.0,0.0,2.5491,2.5517,2.5503,2.5503,2.5526,2.5564,2.5683,2.5703,2.5703,2.5703,2.5703,2.5703,2.5703,2.5703,2.5661,2.5598,2.5539,2.5471,2.5387,2.5326,2.5308,2.5308,2.5308,2.5346,2.5462,2.7117,2.7955,2.8095,2.9751,3.0477,3.0433,3.0567,3.0578,3.0529,3.06,3.0663,3.0723,3.0858,3.0898,3.0898,3.0898,3.0898,3.0898,2.5703,2.5703,0.0,0.0,0.0,0.0,0.0,0.0,0.0,0.0,0.0,0.0,2.566,2.5601,2.5594,2.5658,2.561,2.5633,2.5703,2.5703,0.0,2.5703,2.5703,2.5703,2.5703,2.5661,2.5636,0.0,2.5603,0.0,0.0,0.0,0.0,0.0,2.5611,2.563,2.5573,2.5554,2.5563,2.5597,2.5476,2.5511,2.5633,2.5513,2.5444,2.5387,2.5327,2.5308,2.5308,0.0,2.5308,0.0,2.5308,2.5308,2.5308,2.5308,2.5308,2.5308,2.5308,2.5308,2.5308,2.5308,2.5308,2.5308,2.5308,0.0,2.5308,2.5308,0.0,0.0,0.0,0.0,0.0,0.0,2.5427,2.5444,2.5447,2.5485,2.5529,2.559,2.5573,0.0,2.5636,2.5636,2.566,2.5703,2.5661,2.5633,2.5602,2.5567,2.5517,2.539,2.5364,2.5344,2.5308,2.5308,2.5308,2.5327,2.7063,2.7895,2.7953,2.9668,3.0428,3.0416,3.0498,3.0525,3.0511,3.0571,3.0623,3.0652,3.0695,3.0806,3.0898,3.0898,3.0898,3.0898,2.5703,2.5703,0.0,0.0,0.0,0.0,0.0,0.0,0.0,0.0,0.0,2.5662,2.5662,2.5607,2.5601,2.5661,2.5633,2.5633,2.5703,2.5703,2.5703,2.5703,2.5703,2.5683,2.5662,2.5611,2.5597,2.5567,0.0,0.0,0.0,0.0,0.0,0.0,0.0,2.5549,2.551,2.5471,2.5491,2.5541,2.5415,2.5431,2.5517,2.5428,2.5359,2.5308,2.5308,2.5308,2.5308,2.5308,2.5308,0.0,2.5308,2.5308,2.5308,2.5308,2.5308,2.5308,2.5308,0.0,0.0,0.0,0.0,0.0,0.0,0.0,0.0,0.0,2.5308,0.0,0.0,0.0,0.0,0.0,0.0,2.5379,2.5368,2.5408,2.5465,2.5506,2.5491,0.0,0.0,2.5567,2.5602,2.5661,2.5632,2.5602,2.5602,2.5573,2.5529,2.5397,2.5383,2.5346,2.5308,2.5308,2.5308,2.5327,2.7063,2.7895,2.7953,2.9635,3.0404,3.041,3.0442,3.0467,3.0472,3.0536,3.0567,3.0571,3.0597,3.0693,3.0857,3.0857,3.0878,3.0898,2.5703,2.5703,2.5703,0.0,0.0,0.0,0.0,0.0,0.0,2.5703,2.5637,2.5603,2.5603,2.5547,2.5537,2.5601,2.5602,2.5633,2.5703,2.5703,2.5703,2.5703,2.5703,2.5662,2.5603,2.5602,2.5564,2.5493,2.5493,0.0,0.0,0.0,0.0,0.0,0.0,2.5493,2.5506,2.5434,2.5397,2.539,2.533,2.5317,2.5317,0.0,2.5354,2.5308,2.5308,0.0,0.0,2.5308,2.5308,0.0,0.0,0.0,0.0,0.0,0.0,0.0,0.0,0.0,0.0,2.5308,0.0,0.0,0.0,0.0,2.5308,0.0,0.0,0.0,0.0,0.0,0.0,0.0,0.0,0.0,0.0,2.5317,2.535,2.5476,2.5491,2.5491,0.0,2.5493,2.5537,2.5601,2.5602,2.5602,2.5602,2.5543,2.5463,2.5394,2.5344,2.5293,2.5308,2.5308,2.5308,2.5327,2.7063,2.7895,2.7953,2.9635,3.0404,3.0404,3.041,3.039,3.039,3.0416,3.0446,3.0516,3.0571,3.0631,3.0716,3.0716,3.0792,3.0898,2.5703,2.5703,2.5703,2.5703,2.5703,2.5703,0.0,2.5703,2.5703,2.5703,2.5683,2.5661,2.5661,2.5604,2.5598,2.566,2.5632,2.5633,2.5703,2.5703,2.5703,2.5703,2.5703,2.5662,2.5602,2.5556,2.5491,2.5431,2.5387,2.5371,0.0,0.0,0.0,0.0,0.0,2.5401,2.5375,2.5391,2.5402,2.5402,2.5387,2.5348,2.5293,0.0,2.5322,2.5308,2.5308,2.5308,0.0,2.5308,2.5308,2.5308,2.5308,2.5308,2.5308,2.5308,2.5308,0.0,0.0,0.0,2.5308,2.5308,0.0,0.0,0.0,0.0,0.0,0.0,0.0,0.0,0.0,0.0,0.0,0.0,0.0,0.0,0.0,2.5308,2.5322,2.5363,2.5417,2.5438,2.5438,2.5465,2.5535,2.5599,2.5602,2.5602,2.5602,2.557,2.5522,2.5409,2.5372,2.5337,2.5308,2.5308,2.5308,2.5327,2.7063,2.7895,2.7953,2.9635,3.0404,3.0404,3.0404,3.0404,3.0404,3.0404,3.0414,3.0449,3.0457,3.0537,3.0652,3.0788,3.0858,3.0898,2.5703,2.5703,2.5703,2.5703,2.5703,2.5703,2.5703,2.5703,2.5703,2.5703,2.5703,2.5703,2.5703,2.5661,2.5659,2.5703,2.566,2.5659,2.5703,2.5703,2.5703,2.5703,2.5703,2.566,2.5563,2.5511,2.5459,2.5363,2.5327,2.5308,0.0,0.0,0.0,0.0,0.0,2.5348,2.5293,2.5352,2.5363,2.5363,2.5371,2.5344,0.0,0.0,2.5308,2.5308,0.0,2.5308,2.5308,2.5308,2.5308,2.5308,2.5308,2.5308,2.5308,2.5308,2.5308,2.5308,2.5308,2.5308,0.0,2.5308,2.5308,0.0,2.5308,0.0,2.5308,0.0,0.0,0.0,0.0,0.0,0.0,0.0,0.0,0.0,0.0,2.5308,2.5308,2.5308,2.5344,2.5352,2.5352,2.5394,2.5474,2.5558,2.5563,2.5569,2.5601,2.5602,2.5551,2.5438,2.5438,2.5411,2.5379,2.5357,2.5335,2.5359,2.6756,2.7601,2.7953,2.9313,3.0115,3.0404,3.0404,3.0404,3.041,3.0428,3.0417,3.0402,3.0477,3.0529,3.0611,3.0712,3.0784,3.0837,2.5683,2.5703,2.5703,2.5703,2.5703,2.5703,2.5703,2.5703,2.5703,2.5703,2.5703,2.5703,2.5703,2.5703,2.5703,2.5703,2.5703,2.5703,2.5703,2.5703,2.5703,2.5703,2.5703,2.5634,2.5493,2.5508,2.5431,2.5308,2.5308,2.5308,0.0,0.0,0.0,0.0,2.5308,0.0,2.5308,2.5308,2.5308,2.5308,2.5308,2.5308,2.5308,2.5308,2.5308,2.5308,2.5308,2.5308,2.5308,2.5308,2.5308,2.5308,2.5308,2.5308,2.5308,2.5308,2.5308,2.5308,2.5308,2.5308,2.5308,2.5308,0.0,0.0,0.0,0.0,2.5308,0.0,0.0,0.0,0.0,0.0,0.0,0.0,0.0,0.0,0.0,2.5308,2.5308,2.5308,2.5308,2.5308,2.5308,2.5293,2.5354,2.5495,2.5508,2.5535,0.0,2.5599,2.5563,2.5493,2.5491,2.5508,2.5506,2.5428,2.5402,2.5402,2.6217,2.7063,2.7934,2.8723,2.9583,3.0404,3.0404,3.0404,3.0396,3.0477,3.0462,3.0417,3.06,3.0657,3.0591,3.0537,3.0603,3.0722,2.5628,2.5661,2.5703,2.5703,2.5703,2.5703,2.5703,2.5703,2.5703,2.5703,2.5703,2.5703,2.5703,2.5703,2.5703,2.5703,2.5703,2.5703,2.5703,2.5703,2.5703,2.5703,2.5658,2.5594,2.5493,2.5453,2.5376,2.5308,2.5308,2.5308,2.5308,0.0,0.0,0.0,0.0,2.5308,2.5308,2.5308,2.5308,2.5308,2.5308,2.5308,2.5308,0.0,2.5308,2.5308,2.5308,2.5308,2.5308,2.5308,2.5308,2.5308,2.5308,2.5308,2.5308,2.5308,2.5308,2.5308,2.5308,2.5308,2.5308,2.5308,2.5308,2.5308,0.0,0.0,0.0,0.0,0.0,0.0,0.0,0.0,0.0,0.0,0.0,0.0,0.0,2.5308,2.5308,2.5308,2.5308,2.5308,2.5308,2.5357,2.5391,2.5425,2.5463,2.5517,2.5513,0.0,2.5526,2.5491,2.5491,2.5488,2.5428,2.5417,2.536,2.534,2.6193,2.7063,2.7934,2.8723,2.9583,3.0404,3.0404,3.0404,3.0404,3.0431,3.0446,3.0472,3.0472,3.049,3.0548,3.0735,3.0811,3.0858,2.5527,2.5606,2.5661,2.5683,2.5703,2.5703,2.5703,2.5703,2.5703,2.5703,2.5703,2.5703,2.5703,2.5703,2.5703,2.5703,2.5703,2.5703,2.5703,2.5703,2.5703,2.5703,2.5635,2.5564,2.5493,2.5431,2.5367,2.5308,2.5308,0.0,2.5308,0.0,0.0,0.0,0.0,2.5308,2.5308,2.5308,2.5308,2.5308,2.5308,2.5308,0.0,2.5308,2.5308,2.5308,2.5308,2.5308,2.5308,2.5308,2.5308,2.5308,2.5308,2.5308,2.5308,2.5308,2.5248,2.5198,2.5274,2.5182,2.5115,2.5259,2.5224,2.5198,2.5274,2.5308,2.5308,0.0,2.5308,2.5308,0.0,0.0,0.0,2.5308,0.0,0.0,2.5308,2.5308,2.5308,2.5308,2.5308,2.5308,2.5308,2.5335,2.5379,2.5402,2.5438,0.0,0.0,0.0,2.5535,2.5594,2.5537,2.5506,2.5498,2.5428,2.5376,2.5352,2.5818,2.6486,2.7351,2.8203,2.9025,2.9852,3.0231,3.0404,3.0396,3.0462,3.0481,3.0503,3.0517,3.0591,3.0691,3.0834,3.0858,3.0816,2.5443,2.5545,2.5605,2.5682,2.5683,2.5683,2.5703,2.5703,2.5703,2.5703,2.5703,2.5703,2.5703,2.5703,2.5703,2.5703,2.5703,2.5703,2.5703,2.5703,2.5703,2.5703,2.5632,2.5559,2.5493,2.5437,2.5354,2.5308,2.5308,0.0,0.0,0.0,0.0,0.0,0.0,0.0,2.5308,2.5308,2.5308,2.5308,2.5308,2.5308,2.5308,2.5308,2.5308,2.5308,2.5308,2.5308,2.5308,2.5308,2.5308,2.5308,2.5308,2.5308,2.5284,2.5269,2.5141,2.5028,2.5192,2.5024,2.4896,2.5187,2.5152,2.5088,2.5264,2.5308,2.5308,2.5308,2.5308,2.5308,0.0,0.0,0.0,2.5308,0.0,0.0,2.5308,2.5308,2.5308,2.5308,2.5308,0.0,2.5308,2.5308,2.5312,2.5372,2.5387,0.0,0.0,0.0,2.5549,2.5662,2.5559,2.5511,2.5567,0.0,2.5402,2.5391,2.5326,2.576,2.6641,2.7516,2.8343,2.9168,3.0031,3.0404,3.0408,3.0533,3.0551,3.0525,3.0667,3.0792,3.0878,3.0898,3.0836,3.0745,2.5372,2.5477,2.5543,2.5604,2.5629,2.5635,2.5683,2.5703,2.5703,2.5703,2.5703,2.5703,2.5703,2.5703,2.5703,2.5703,2.5703,2.5703,2.5703,2.5703,2.5703,2.5703,2.5573,2.5503,2.5491,2.5372,2.5308,2.5308,0.0,0.0,0.0,0.0,0.0,0.0,0.0,0.0,2.5308,2.5308,0.0,2.5308,2.5308,2.5308,2.5308,2.5308,2.5308,2.5308,2.5308,2.5308,2.5308,2.5308,2.5308,2.5308,2.5308,2.5308,2.5269,2.5099,2.5028,2.4986,2.491,2.4923,2.498,2.5034,2.5152,2.5259,2.5284,2.5308,2.5308,2.5308,2.5308,2.5308,2.5308,0.0,0.0,0.0,0.0,0.0,2.5308,2.5308,2.5308,2.5308,2.5308,2.5308,2.5308,2.5308,2.5298,2.5317,2.5322,0.0,0.0,0.0,2.5443,0.0,2.5503,0.0,0.0,0.0,2.5379,2.5322,2.5317,2.5784,2.6702,2.7532,2.8371,2.9226,3.0045,3.0404,3.0416,3.0491,3.0548,3.06,3.0786,3.0815,3.0746,3.0858,3.0898,3.0878,2.5348,2.5425,2.5471,2.5573,2.5602,2.5611,2.5683,2.5703,2.5703,2.5703,2.5703,2.5703,2.5703,2.5703,2.5703,2.5703,2.5703,2.5703,2.5703,2.5703,2.5683,2.5658,2.5554,2.5476,2.5456,2.5346,2.5308,2.5308,0.0,0.0,0.0,0.0,0.0,0.0,0.0,2.5308,0.0,0.0,0.0,2.5308,2.5308,2.5308,2.5308,2.5308,2.5308,2.5308,2.5308,2.5308,2.5308,2.5308,2.5308,2.5308,2.5308,2.5224,2.5135,2.5028,2.4885,2.4752,2.4797,2.4697,2.4652,2.4924,2.5018,2.5091,2.5259,2.5308,2.5308,2.5308,2.5308,2.5308,2.5308,2.5308,0.0,0.0,0.0,0.0,0.0,2.5308,2.5308,2.5308,2.5308,2.5308,2.5308,2.5308,2.5308,2.5308,2.5308,0.0,0.0,0.0,2.5398,0.0,0.0,0.0,0.0,0.0,0.0,2.5308,2.5339,2.5578,2.6013,2.7349,2.8173,2.8651,2.9912,3.0463,3.0511,3.0578,3.0652,3.0777,3.0857,3.0858,3.0815,3.0878,3.0898,3.0898,2.5262,2.5309,2.5378,2.5554,2.557,2.5604,2.5683,2.5703,2.5703,2.5703,2.5703,2.5703,2.5703,2.5703,2.5703,2.5703,2.5703,2.5703,2.5703,2.5703,2.5662,2.5603,2.5541,2.5479,2.5394,2.5335,2.5308,2.5308,0.0,0.0,0.0,0.0,0.0,0.0,0.0,0.0,0.0,0.0,2.5308,2.5308,2.5308,2.5308,2.5308,2.5308,2.5308,2.5308,2.5308,2.5308,2.5308,2.5308,2.5308,2.5308,2.5308,2.5198,2.504,2.4974,2.4773,2.4575,2.4654,2.4503,2.4435,2.4852,2.4923,2.4987,2.5238,2.5308,2.5308,2.5308,2.5308,2.5308,2.5308,2.5308,0.0,0.0,0.0,0.0,0.0,2.5308,2.5308,2.5308,2.5308,2.5308,2.5308,2.5308,2.5308,2.5308,2.5308,0.0,2.5372,0.0,0.0,0.0,0.0,2.534,2.5376,0.0,2.5298,2.5327,2.5368,2.5379,2.541,2.7195,2.8028,2.8117,2.978,3.0554,3.0633,3.068,3.0771,3.0898,3.0898,3.0898,3.0898,3.0898,3.0898,3.0898,2.4967,2.5033,2.5143,2.5446,2.552,2.5554,2.5683,2.5703,2.5703,2.5703,2.5703,2.5703,2.5703,2.5703,2.5703,2.5703,2.5703,2.5703,2.5703,2.5703,2.5662,2.5603,2.5541,2.5479,2.5394,2.5335,2.5308,0.0,0.0,2.5308,0.0,0.0,0.0,0.0,0.0,0.0,0.0,2.5308,2.5308,2.5308,2.5308,2.5308,2.5308,2.5308,2.5308,2.5308,2.5308,2.5308,2.5308,2.5308,2.5308,2.5308,2.5308,2.5298,2.5203,2.4903,2.4804,2.47,2.4348,2.4495,2.476,2.4811,2.505,2.5259,2.5284,2.5308,2.5308,2.5308,2.5308,2.5308,2.5308,2.5308,2.5308,0.0,0.0,0.0,0.0,2.5308,2.5308,2.5308,2.5308,2.5308,2.5308,2.5308,2.5308,2.5308,2.5308,0.0,0.0,0.0,0.0,2.5322,0.0,2.5293,2.5308,2.5293,2.5326,2.5383,2.5402,2.5431,2.5549,2.7282,2.8082,2.8179,2.9855,3.0636,3.0689,3.0693,3.0771,3.0898,3.0898,3.0898,3.0898,3.0898,3.0898,3.0898,2.4962,2.5099,0.0,0.0,0.0,0.0,0.0,2.5636,2.5659,2.5683,2.5703,2.5703,2.5703,2.5703,2.5703,2.5703,2.5703,2.5703,2.5703,2.5703,2.5658,2.5549,2.5505,2.5456,2.5333,2.5313,2.5308,0.0,0.0,0.0,0.0,0.0,0.0,0.0,0.0,2.5308,2.5308,2.5308,2.5308,2.5308,2.5308,2.5308,2.5308,2.5308,2.5308,2.5308,2.5308,2.5308,2.5308,2.5308,2.5308,2.5274,2.5157,2.5066,2.4942,2.4682,2.4518,2.4392,2.4247,2.4321,2.4503,2.4738,2.4908,2.5062,2.5253,2.5308,2.5308,2.5308,2.5308,2.5308,2.5308,2.5308,2.5308,2.5308,0.0,0.0,0.0,0.0,2.5308,2.5308,2.5308,2.5308,2.5308,2.5308,2.5308,2.5308,2.5308,0.0,0.0,0.0,0.0,2.5308,0.0,2.5308,2.5308,2.5308,2.5313,2.5344,2.5418,2.5443,2.5486,2.6792,2.7952,2.901,3.0246,3.0808,3.0816,3.0816,3.0858,3.0898,3.0898,3.0898,3.0898,3.0898,3.0898,3.0898,2.4818,0.0,2.5122,0.0,2.531,2.5376,2.5533,2.5566,2.5595,2.5634,2.5636,2.566,2.5703,2.5703,2.5703,2.5703,2.5703,2.5703,2.5703,2.5683,2.5629,2.5496,2.5473,0.0,2.5293,2.5308,2.5308,2.5308,2.5308,0.0,0.0,0.0,0.0,0.0,2.5308,2.5308,2.5308,2.5308,2.5308,2.5308,2.5308,2.5308,2.5308,2.5308,2.5308,2.5308,2.5308,2.5308,2.5308,2.5308,2.5264,2.5198,2.504,2.4949,2.4814,2.4567,2.4401,2.4284,2.4209,2.4247,2.4348,2.4639,2.4785,2.4929,2.5165,2.5259,2.5308,2.5308,2.5308,2.5308,2.5308,2.5308,2.5308,2.5308,0.0,0.0,0.0,2.5308,2.5308,2.5308,2.5308,2.5308,2.5308,2.5308,2.5308,2.5308,0.0,0.0,0.0,0.0,0.0,0.0,0.0,0.0,2.5308,2.5308,2.5327,2.5359,2.544,2.5495,2.549,2.6726,2.824,2.9948,3.0604,3.0898,3.0898,3.0898,3.0898,3.0898,3.0898,3.0898,3.0898,3.0898,3.0898,3.0898,2.4469,2.4512,2.4636,2.5036,2.5106,2.5192,2.5451,2.5493,2.5493,2.5493,2.5493,2.5554,2.5683,2.5703,2.5703,2.5703,2.5703,2.5703,2.5703,2.5636,2.5566,0.0,0.0,2.536,2.5308,2.5308,2.5308,2.5308,0.0,0.0,2.5308,0.0,2.5308,2.5308,2.5308,2.5308,2.5308,2.5308,2.5308,2.5308,2.5308,2.5308,2.5308,2.5308,2.5308,2.5308,2.5308,2.5308,2.5308,2.5308,2.5163,2.4991,2.501,2.5004,2.4937,2.4596,2.4503,2.4444,2.4247,2.4358,2.4503,2.4503,2.474,2.5004,2.501,2.5157,2.5308,2.5308,2.5308,2.5308,2.5308,2.5308,2.5308,2.5308,0.0,0.0,0.0,2.5308,0.0,2.5308,2.5308,2.5308,2.5308,2.5308,2.5308,0.0,0.0,0.0,0.0,0.0,0.0,2.5308,2.5308,0.0,2.5308,2.5308,2.5371,2.5508,2.5491,2.5522,2.5659,2.7399,2.9171,3.0879,3.0898,3.0898,3.0898,3.0898,3.0898,3.0898,3.0898,3.0898,3.0898,3.0898,3.0898,3.0898,2.4486,2.4607,2.4749,2.4866,2.4972,2.5088,2.5215,2.5332,2.545,2.5486,2.5491,2.5526,2.5558,2.5603,2.5658,0.0,2.5703,2.5703,0.0,2.5683,2.5629,2.5496,2.5471,2.5431,2.5293,2.5308,2.5308,2.5308,0.0,0.0,0.0,2.5308,2.5308,2.5308,2.5308,2.5308,2.5308,2.5308,2.5308,2.5308,2.5308,2.5308,2.5308,2.5308,2.5308,2.5308,2.5308,2.5308,2.5308,2.5308,2.5259,2.5157,2.4942,2.4759,2.4612,2.4375,2.4294,2.4275,2.4218,2.4256,2.4339,2.4461,2.4591,2.4723,2.4955,2.5157,2.5308,2.5308,2.5308,2.5308,2.5308,2.5308,2.5308,2.5308,2.5308,0.0,2.5308,0.0,2.5308,2.5308,2.5308,2.5308,2.5308,2.5308,0.0,0.0,0.0,0.0,0.0,0.0,0.0,0.0,2.5308,0.0,2.5308,2.5308,2.5333,2.5434,2.5488,2.5871,2.6599,2.7732,2.8905,3.0059,3.0644,3.0898,3.0898,3.0898,3.0898,3.0898,3.0898,3.0898,3.0898,3.0898,3.0898,3.0898,2.4393,2.4486,2.4591,2.467,2.4816,2.4949,2.5048,2.523,2.5387,2.5415,2.5421,2.5434,2.5468,2.5508,0.0,2.5659,2.5661,2.5662,2.5703,2.5682,2.5607,2.5496,2.5485,2.5401,2.5293,2.5308,0.0,2.5308,2.5308,2.5308,2.5308,2.5308,2.5308,2.5308,2.5308,2.5308,2.5308,2.5308,2.5308,2.5308,2.5308,2.5308,2.5308,2.5308,2.5308,2.5308,2.5308,2.5308,2.5308,2.5308,2.5222,2.508,2.4874,2.4607,2.4357,2.4237,2.419,2.419,2.419,2.419,2.4228,2.4348,2.4435,2.4599,2.4911,2.5099,2.5208,2.5279,2.5308,2.5308,2.5308,2.5308,2.5308,2.5308,2.5308,2.5308,2.5308,0.0,2.5308,2.5308,0.0,0.0,0.0,2.5308,2.5308,0.0,0.0,0.0,0.0,0.0,0.0,2.5308,2.5308,0.0,2.5308,2.5308,2.5357,2.5444,2.5537,2.6254,2.7519,2.8047,2.8945,3.0117,3.0664,3.0898,3.0898,3.0898,3.0898,3.0898,3.0898,3.0898,3.0898,3.0898,3.0898,3.0898,2.4208,2.4245,2.4321,0.0,2.4647,0.0,2.4949,2.5146,2.5274,2.5274,2.5284,2.5317,2.5391,2.5395,2.5444,2.5567,0.0,0.0,0.0,2.5636,2.559,2.55,2.5447,2.5387,2.5303,2.5303,2.5298,2.5308,2.5308,2.5308,2.5308,2.5308,2.5308,2.5308,2.5308,2.5308,2.5308,2.5308,2.5308,2.5308,2.5308,2.5284,2.5274,2.5284,2.5284,2.5274,2.5284,2.5308,2.5308,2.5308,2.5091,2.4818,2.4804,2.4518,2.4218,2.4199,2.419,2.419,2.419,2.419,2.419,2.419,2.4357,2.4596,2.4937,2.5016,2.5063,2.5264,2.5308,2.5308,2.5308,2.5308,2.5308,2.5308,2.5308,2.5308,2.5308,2.5308,2.5308,0.0,0.0,0.0,2.5308,2.5308,2.5308,0.0,0.0,0.0,0.0,0.0,2.5308,2.5308,2.5308,2.5308,2.5308,2.5308,2.5371,2.5493,2.5635,2.6602,2.8301,2.8301,2.9258,3.0898,3.0898,3.0898,3.0898,3.0898,3.0898,3.0898,3.0898,3.0898,3.0898,3.0898,3.0898,3.0898,0.0,0.0,2.4935,2.4367,2.4445,2.4583,2.4612,2.4872,2.5077,2.5077,2.5208,2.5317,2.5312,2.5312,2.535,2.5438,2.5543,2.5633,2.5703,2.5683,2.5657,2.557,2.5559,2.5506,2.5376,2.5372,2.535,2.5308,2.5308,2.5308,2.5308,2.5308,2.5308,2.5308,2.5308,2.5308,2.5308,2.5308,2.5308,2.5308,2.5308,2.5208,2.5088,2.5229,2.5208,2.5094,2.5234,2.5308,2.5308,2.5308,2.516,2.4924,2.4828,2.4623,2.4401,2.4247,2.419,2.419,2.419,2.419,2.419,2.419,2.4461,2.4778,2.4962,2.5111,2.5234,2.5279,2.5308,2.5308,2.5308,2.5308,2.5308,2.5308,2.5308,2.5308,2.5308,2.5308,2.5308,0.0,2.5308,2.5308,2.5308,2.5308,2.5308,0.0,0.0,0.0,0.0,2.5308,2.5308,2.5308,2.5308,2.5308,2.5308,2.5308,2.5371,2.5493,2.5635,2.6602,2.8301,2.8301,2.9258,3.0898,3.0898,3.0898,3.0898,3.0898,3.0898,3.0898,3.0898,3.0898,3.0898,3.0898,3.0898,3.0898,2.4355,2.4842,2.5154,2.4337,2.4366,2.4503,2.4503,2.4723,2.491,2.491,2.5053,2.5163,2.5163,2.5234,2.534,2.5395,2.5484,2.5566,2.5604,2.5661,2.5636,2.55,2.5543,2.5481,2.5359,2.5354,2.5339,2.5308,2.5308,2.5308,2.5308,2.5308,2.5308,2.5308,2.5308,2.5308,2.5308,2.5308,2.5253,2.5168,2.5264,2.513,2.4936,2.5198,2.5187,2.5028,2.5224,2.5308,2.5308,2.5308,2.5138,2.4897,2.4814,2.4591,2.433,2.4237,2.419,2.419,2.419,2.419,2.419,2.419,2.4357,2.4599,2.485,2.5,2.5115,2.5264,2.5308,2.5308,2.5308,2.5308,2.5308,2.5308,2.5308,2.5308,2.5308,2.5308,2.5308,2.5308,2.5308,2.5308,2.5308,2.5308,2.5308,2.5308,2.5308,0.0,2.5308,2.5308,2.5308,2.5308,2.5308,2.5308,2.5308,2.5363,2.5444,2.5551,2.6049,2.6992,2.8301,2.8711,2.9629,3.0898,3.0898,3.0898,3.0898,3.0898,3.0898,3.0898,3.0898,3.0898,3.0898,3.0898,3.0898,3.0898,2.4355,2.4842,2.5154,2.4337,2.433,2.4452,2.4452,2.4623,2.4753,2.4753,2.4884,2.498,2.5004,2.5152,2.5293,2.5379,2.545,2.5498,2.5491,2.5628,2.5604,2.5434,2.5473,2.5462,2.533,2.5308,2.5308,2.5308,2.5308,2.5308,2.5308,2.5308,2.5308,2.5308,2.5308,2.5308,2.5303,2.5269,2.5157,2.5016,2.5152,2.5043,2.4832,2.5115,2.513,2.5022,2.5179,2.5269,2.5303,2.5264,2.5043,2.4797,2.4768,2.4503,2.419,2.419,2.419,2.419,2.419,2.4218,2.4247,2.4247,2.4284,2.4418,2.4749,2.4842,2.4968,2.5243,2.5308,2.5308,2.5308,2.5308,2.5308,2.5308,2.5308,2.5308,2.5308,0.0,2.5308,2.5308,2.5308,2.5308,2.5308,2.5308,2.5308,2.5308,2.5308,2.5308,2.5308,2.5308,2.5308,2.5308,2.5308,2.5293,2.5313,2.5438,2.552,2.5602,2.6541,2.7461,2.832,2.9199,3.0078,3.0898,3.0898,3.0898,3.0898,3.0898,3.0898,3.0898,3.0898,3.0898,3.0898,3.0898,3.0898,3.0898,2.4355,2.4842,2.5154,2.4337,2.4228,2.4256,2.4256,2.4428,2.4553,2.4553,2.4704,2.4864,2.4992,2.5028,2.5122,2.5308,2.5383,2.5438,2.5508,2.5567,2.5602,2.5564,2.557,2.5551,2.5479,2.5354,2.5308,2.5308,2.5308,2.5308,2.5308,2.5308,2.5308,2.5308,2.5308,2.5308,2.5298,2.5111,2.5028,2.4998,2.4916,2.4854,2.4804,2.4861,2.4923,2.4991,2.5034,2.5157,2.5269,2.5099,2.4936,2.4775,2.4591,2.4393,2.419,2.419,2.419,2.419,2.419,2.4312,2.4444,2.4444,2.467,2.4885,2.4955,2.5107,2.5238,2.5298,2.5308,2.5308,2.5308,2.5308,2.5308,2.5308,2.5308,2.5308,2.5308,0.0,2.5308,2.5308,2.5308,2.5308,2.5308,2.5308,2.5308,2.5308,2.5308,2.5308,2.5308,2.5308,2.5308,2.5308,2.5308,2.5336,2.5376,2.5468,2.552,2.5602,2.6541,2.7461,2.832,2.9199,3.0078,3.0898,3.0898,3.0898,3.0898,3.0898,3.0898,3.0898,3.0898,3.0898,3.0898,3.0898,3.0898,3.0898,2.4355,2.4842,2.5154,2.4337,2.419,2.419,2.419,2.4275,2.4348,2.4348,2.452,2.4651,2.473,2.4898,2.5034,2.5141,2.5265,2.5354,2.5391,2.5498,2.5503,2.5441,2.5463,2.5468,2.5395,2.533,2.5308,2.5308,2.5308,2.5308,2.5308,2.5308,2.5308,2.5308,2.5308,2.5308,2.5284,2.5203,2.5066,2.4891,2.4904,2.473,2.4503,2.4716,2.4835,2.4904,2.4974,2.5141,2.5269,2.5077,2.4917,2.4768,2.4551,2.4357,2.419,2.419,2.419,2.419,2.419,2.4275,2.4357,2.4469,2.462,2.4776,2.4968,2.5077,2.5163,2.5274,2.5308,2.5308,2.5308,2.5308,2.5308,2.5308,2.5308,0.0,0.0,2.5308,2.5308,2.5308,2.5308,2.5308,2.5308,2.5308,2.5308,2.5308,2.5308,2.5308,2.5308,2.5308,2.5308,2.5308,2.5308,2.5342,2.5456,2.5473,2.5788,2.6362,2.7265,2.8164,2.9023,2.9902,3.0527,3.0898,3.0898,3.0898,3.0898,3.0898,3.0898,3.0898,3.0898,3.0898,3.0898,3.0898,3.0898,3.0898,2.4318,2.4695,2.4934,2.43,2.419,2.419,2.419,2.419,2.419,2.419,2.4321,2.4444,2.4495,2.4737,2.4904,2.4949,2.5096,2.5206,2.5224,2.5329,2.5367,2.5336,2.5364,2.5379,2.5308,2.5308,2.5308,2.5308,2.5308,2.5308,2.5308,2.5308,2.5308,2.5308,2.5308,2.5308,2.5284,2.5222,2.5043,2.4804,2.4804,2.4601,2.4303,2.4551,2.4723,2.4799,2.4923,2.5065,2.5208,2.5046,2.4917,2.4768,2.4551,2.4393,2.4247,2.4209,2.4237,2.4266,2.4209,2.4237,2.4312,2.4461,2.4559,2.4678,2.4949,2.5034,2.5111,2.5269,2.5308,2.5308,2.5308,2.5308,2.5308,2.5308,0.0,0.0,0.0,2.5308,2.5308,2.5308,2.5308,2.5308,2.5308,2.5308,2.5308,2.5308,2.5308,2.5308,2.5308,2.5308,2.5308,2.5308,2.5308,2.5367,2.551,2.5707,2.6209,2.7012,2.8086,2.8945,2.9629,3.0508,3.0898,3.0898,3.0898,3.0898,3.0898,3.0898,3.0898,3.0898,3.0898,3.0898,3.0898,3.0898,3.0898,3.0898,2.4208,2.4245,2.4263,2.4208,2.419,2.419,2.419,2.419,2.419,2.419,2.4209,2.4294,2.4478,2.451,2.4615,2.4804,2.4832,2.4896,2.5016,2.5027,2.5147,2.5379,2.5402,2.5379,2.5308,2.5308,2.5308,2.5308,2.5308,2.5308,2.5308,2.5308,2.5308,2.5308,2.5308,2.5308,2.5274,2.4981,2.4825,2.4768,2.44,2.4348,2.4461,2.4303,2.4478,2.4804,2.4818,2.4904,2.5022,2.4991,2.4917,2.4768,2.4551,2.4486,2.4435,2.4247,2.4321,2.4445,2.4256,2.4348,2.4478,2.4495,2.4718,2.498,2.4985,2.5146,2.5274,2.5303,2.5308,2.5308,2.5308,2.5308,2.5308,2.5308,0.0,0.0,2.5308,2.5308,2.5308,2.5308,2.5308,2.5308,2.5308,2.5308,2.5308,2.5308,2.5308,2.5308,2.5308,2.5308,2.5308,2.5308,2.5308,2.5367,2.551,2.6294,2.6796,2.7012,2.8691,2.9531,2.9629,3.0508,3.0898,3.0898,3.0898,3.0898,3.0898,3.0898,3.0898,3.0898,3.0898,3.0898,3.0898,3.0898,3.0898,3.0898,2.3896,2.3896,2.3966,2.4161,2.3865,2.3714,2.4141,2.4016,2.3958,2.417,2.419,2.4228,2.4312,2.4436,2.4537,2.4599,2.4731,2.4814,2.4864,2.4949,2.5097,2.533,2.5339,2.5321,2.5308,2.5308,2.5308,2.5308,2.5308,2.5308,2.5308,2.5308,2.5308,2.5308,2.5308,2.5308,2.5274,2.5024,2.4889,2.479,2.4631,2.4469,2.4321,2.4366,2.4569,2.4804,2.4804,2.4968,2.5163,2.504,2.4968,2.4904,2.4734,2.4685,2.467,2.4591,2.4623,2.467,2.4583,2.4623,2.4716,2.4802,2.4911,2.5034,2.5157,2.5253,2.5308,2.5308,2.5308,2.5308,2.5308,2.5308,2.5308,2.5308,0.0,2.5308,2.5308,2.5308,2.5308,2.5308,2.5308,2.5308,2.5308,2.5308,2.5308,2.5308,2.5308,2.5308,2.5308,2.5308,2.5308,2.5308,2.5863,2.6206,2.6313,2.6681,2.7442,2.8613,2.9277,2.9883,3.043,3.0742,3.0898,3.0898,3.0898,3.0898,3.0898,3.0898,3.0898,3.0898,3.0898,3.0898,3.0898,3.0898,3.0898,3.0898,2.3544,2.3544,2.3628,2.3855,2.3511,2.3357,2.3816,2.3692,2.3639,2.3865,2.3986,2.4036,2.4036,2.4266,2.441,2.441,2.4537,2.4639,2.47,2.485,2.5041,2.5298,2.5308,2.5308,2.5308,2.5308,2.5308,2.5308,2.5308,2.5308,2.5308,2.5308,2.5308,2.5308,2.5308,2.5264,2.5198,2.5018,2.4843,2.4708,2.4708,2.4503,2.4218,2.4409,2.4602,2.4716,2.4782,2.4975,2.5184,2.5111,2.5046,2.4986,2.4891,2.4828,2.4825,2.4935,2.491,2.4883,2.4936,2.4968,2.4962,2.4992,2.5004,2.5046,2.5259,2.5308,2.5308,2.5308,2.5308,2.5308,2.5308,2.5308,2.5308,2.5308,2.5308,2.5308,2.5308,2.5308,2.5308,2.5308,2.5308,2.5308,2.5308,2.5308,2.5308,2.5308,2.5308,2.5308,2.5308,2.5308,2.5423,2.5692,2.6366,2.7028,2.762,2.7674,2.835,2.9609,2.9883,3.0312,3.0898,3.0898,3.0898,3.0898,3.0898,3.0898,3.0898,3.0898,3.0898,3.0898,3.0898,3.0898,3.0898,3.0898,3.0898,3.0898,2.3189,2.3189,2.3189,2.32,2.3189,2.3189,2.32,2.32,2.3189,2.32,2.35,2.3692,2.3692,2.3996,2.4208,2.4208,2.419,2.4284,2.4486,2.4685,2.4955,2.5274,2.5303,2.5303,2.5303,2.5308,2.5308,2.5308,2.5308,2.5308,2.5308,2.5308,2.5308,2.5308,2.5303,2.5198,2.4998,2.4862,2.4685,2.4503,2.4503,2.4384,2.4218,2.4409,2.4503,2.4537,2.4731,2.4884,2.5034,2.5224,2.5163,2.501,2.501,2.4917,2.4874,2.5212,2.5157,2.504,2.5253,2.5308,2.5259,2.5046,2.501,2.5046,2.5259,2.5308,2.5308,2.5308,2.5308,2.5308,2.5308,2.5308,2.5308,2.5308,2.5308,2.5308,2.5308,2.5308,2.5308,2.5308,2.5308,2.5308,2.5308,2.5308,2.5308,2.5308,2.5308,2.5308,2.5308,2.5308,2.5712,2.6563,2.6738,2.7659,2.9385,2.947,2.9542,2.9629,3.0488,3.0898,3.0898,3.0898,3.0898,3.0898,3.0898,3.0898,3.0898,3.0898,3.0898,3.0898,3.0898,3.0898,3.0898,3.0898,3.0898,3.0898,2.286,2.286,2.2923,2.3153,2.2862,2.2712,2.3147,2.3009,2.2935,2.3165,2.3288,2.3357,2.3357,2.3649,2.3837,2.3837,2.4064,2.4284,2.4486,2.4569,2.47,2.4948,2.5043,2.5082,2.5094,2.5224,2.5308,2.5308,2.5308,2.5308,2.5308,2.5308,2.5308,2.5284,2.5152,2.5065,2.4986,2.4712,2.4543,2.4503,2.4503,2.4384,2.4218,2.4409,2.4583,2.4723,2.4782,2.4975,2.5219,2.5274,2.5264,2.5214,2.5214,2.5182,2.5165,2.5264,2.5259,2.5219,2.5279,2.5308,2.5298,2.5219,2.5214,2.5224,2.5298,2.5308,2.5308,2.5308,2.5308,2.5308,2.5308,2.5308,2.5308,2.5308,2.5308,2.5308,2.5308,2.5308,2.5308,2.5308,2.5308,2.5308,2.5308,2.5308,2.5308,2.5308,2.5308,2.5308,2.5308,2.5885,2.6327,2.6601,2.7921,2.8863,2.9385,2.9512,2.9882,3.0527,3.0781,3.0898,3.0898,3.0898,3.0898,3.0898,3.0898,3.0898,3.0898,3.0898,3.0898,3.0898,3.0898,3.0898,3.0898,3.0898,3.0898,3.0898,2.2537,2.2537,2.2603,2.2824,2.2531,2.2415,2.2786,2.2682,2.2616,2.2824,2.294,2.3009,2.3009,2.3414,2.3703,2.3703,2.4006,2.4256,2.4375,2.4384,2.4445,2.4569,2.4727,2.4843,2.4923,2.5037,2.5132,2.5173,2.5132,2.5138,2.5173,2.5132,2.5103,2.5103,2.4968,2.4891,2.4783,2.4599,2.4452,2.4393,2.4469,2.4384,2.4228,2.4512,2.4693,2.4811,2.4869,2.5061,2.5308,2.5308,2.5308,2.5308,2.5308,2.5308,2.5308,2.5308,2.5308,2.5308,2.5308,2.5308,2.5308,2.5308,2.5308,2.5308,2.5308,2.5308,2.5308,2.5308,2.5308,2.5308,2.5308,2.5308,2.5308,2.5308,2.5308,2.5308,2.5308,2.5308,2.5308,2.5308,2.5308,2.5308,2.5308,2.5308,2.5308,2.5308,2.5308,2.5442,2.5808,2.6308,2.6915,2.761,2.8773,2.9574,2.9912,3.0051,3.0371,3.0898,3.0898,3.0898,3.0898,3.0898,3.0898,3.0898,3.0898,3.0898,3.0898,3.0898,3.0898,3.0898,3.0898,3.0898,3.0898,3.0898,3.0898,3.0898,2.2296,2.2296,2.2296,2.2296,2.2296,2.2296,2.2296,2.2296,2.2296,2.2296,2.2514,2.2656,2.2656,2.3242,2.3599,2.3599,2.3917,2.4113,2.4161,2.4161,2.417,2.419,2.4375,2.4569,2.4746,2.4782,2.4862,2.4986,2.4862,2.4869,2.498,2.4862,2.4804,2.4797,2.4782,2.467,2.4503,2.4478,2.4366,2.4209,2.4401,2.4357,2.4247,2.4599,2.4768,2.4825,2.493,2.5124,2.5308,2.5308,2.5308,2.5308,2.5308,2.5308,2.5308,2.5308,2.5308,2.5308,2.5308,2.5308,2.5308,2.5308,2.5308,2.5308,2.5308,2.5308,2.5308,2.5308,2.5308,2.5308,2.5308,2.5308,2.5308,2.5308,2.5308,2.5308,2.5308,2.5308,2.5308,2.5308,2.5308,2.5308,2.5308,2.5308,2.5308,2.5308,2.5365,2.5769,2.6563,2.6736,2.7547,2.915,2.9399,2.9883,3.0689,3.0836,3.0898,3.0898,3.0898,3.0898,3.0898,3.0898,3.0898,3.0898,3.0898,3.0898,3.0898,3.0898,3.0898,3.0898,3.0898,3.0898,3.0898,3.0898,3.0898,3.0898,2.2296,2.2296,2.2296,2.2296,2.2296,2.2296,2.2296,2.2296,2.2296,2.2296,2.2349,2.2388,2.2388,2.2704,2.2923,2.2923,2.3224,2.3533,2.3795,2.3806,2.3927,2.418,2.4247,2.4284,2.4339,2.4639,2.4799,2.4842,2.4799,2.4799,2.4842,2.4799,2.4804,2.4797,2.4631,2.4545,2.4486,2.4321,2.4247,2.4199,2.4256,2.4247,2.4209,2.4294,2.4528,2.4804,2.4828,2.5037,2.5308,2.5308,2.5308,2.5308,2.5308,2.5308,2.5308,2.5308,2.5308,2.5308,2.5308,2.5308,2.5308,2.5308,2.5308,2.5308,2.5308,2.5308,2.5308,2.5308,2.5308,2.5308,2.5308,2.5308,2.5308,2.5308,2.5308,2.5308,2.5308,2.5308,2.5308,2.5308,2.5308,2.5308,2.5308,2.5308,2.5308,2.5308,2.5923,2.6409,2.6582,2.7832,2.8733,2.9117,2.9904,3.0439,3.0628,3.081,3.0898,3.0898,3.0898,3.0898,3.0898,3.0898,3.0898,3.0898,3.0898,3.0898,3.0898,3.0898,3.0898,3.0898,3.0898,3.0898,3.0898,3.0898,3.0898,3.0879,2.2296,2.2296,2.2398,2.2767,2.2533,2.2429,2.2784,2.253,2.2296,2.2296,2.2296,2.2296,2.2296,2.2537,2.2772,2.2923,2.3105,2.3271,2.3448,2.3448,2.3599,2.3955,2.3947,2.4044,2.4208,2.441,2.4551,2.4654,2.4551,2.4551,2.4654,2.4569,2.452,2.4512,2.441,2.4348,2.4348,2.4247,2.419,2.419,2.419,2.419,2.4209,2.4312,2.4537,2.4811,2.4864,2.5072,2.5308,2.5308,2.5308,2.5308,2.5308,2.5308,2.5308,2.5308,2.5308,2.5308,2.5308,2.5308,2.5308,2.5308,2.5308,2.5308,2.5308,2.5308,2.5308,2.5308,2.5308,2.5308,2.5308,2.5308,2.5308,2.5308,2.5308,2.5308,2.5308,2.5308,2.5308,2.5308,2.5308,2.5308,2.5308,2.5673,2.5923,2.5923,2.6736,2.739,2.7775,2.8626,2.9313,2.9747,3.0303,3.0623,3.0655,3.0813,3.0898,3.0898,3.0898,3.0898,3.0898,3.0898,3.0898,3.0898,3.0898,3.0898,3.0898,3.0898,3.0898,3.0898,3.0898,3.0898,3.0898,3.0898,3.0898,3.0937,2.2296,2.2398,2.2682,2.3291,2.3004,2.2835,2.3325,2.2885,2.2431,2.2313,2.2296,2.2296,2.2296,2.25,2.2738,2.3026,2.3051,2.3075,2.3105,2.3117,2.3259,2.3599,2.361,2.3774,2.4103,2.4103,2.4219,2.4444,2.4275,2.4284,2.4454,2.4275,2.419,2.419,2.419,2.419,2.419,2.419,2.419,2.419,2.419,2.419,2.4218,2.4409,2.4623,2.4825,2.4949,2.5141,2.5308,2.5308,2.5308,2.5308,2.5308,2.5308,2.5308,2.5308,2.5308,2.5308,2.5308,2.5308,2.5308,2.5308,2.5308,2.5308,2.5308,2.5308,2.5308,2.5308,2.5308,2.5308,2.5308,2.5308,2.5308,2.5308,2.5308,2.5308,2.5308,2.5308,2.5308,2.5308,2.5308,2.5365,2.5519,2.6173,2.6659,2.6813,2.7621,2.8396,2.9069,2.9242,2.9682,3.0467,3.0551,3.0636,3.0684,3.0836,3.0898,3.0898,3.0898,3.0898,3.0898,3.0898,3.0898,3.0898,3.0898,3.0898,3.0898,3.0898,3.0898,3.0898,3.0898,3.0898,3.0898,3.0878,3.0955,3.1165,2.2296,2.2818,2.3274,2.3376,2.3848,2.4017,2.3477,2.3308,2.3021,2.2381,2.2296,2.2296,2.2296,2.2335,2.236,2.2415,2.2415,2.2517,2.2746,2.2772,2.2923,2.3247,2.3259,2.3426,2.3764,2.3774,2.3927,2.4247,2.4209,2.4209,2.4247,2.4209,2.419,2.419,2.419,2.419,2.419,2.419,2.419,2.419,2.419,2.419,2.4218,2.4409,2.4623,2.4825,2.4949,2.5141,2.5308,2.5308,2.5308,2.5308,2.5308,2.5308,2.5308,2.5308,2.5308,2.5308,2.5308,2.5308,2.5308,2.5308,2.5308,2.5308,2.5308,2.5308,2.5308,2.5308,2.5308,2.5308,2.5308,2.5308,2.5308,2.5308,2.5308,2.5308,2.5308,2.5308,2.5308,2.5308,2.5308,2.5596,2.6346,2.6524,2.6909,2.7659,2.8472,2.8992,2.9088,2.9813,3.0281,3.0414,3.0533,3.0609,3.062,3.0809,3.0898,3.0898,3.0898,3.0898,3.0898,3.0898,3.0898,3.0898,3.0898,3.0898,3.0898,3.0898,3.0898,3.0898,3.0898,3.0898,3.0898,3.077,3.1164,3.1765,2.2296,2.2885,2.3528,2.3949,2.4271,2.4525,2.4611,2.3934,2.3274,2.297,2.2564,2.2296,2.2296,2.2296,2.2296,2.2296,2.2296,2.2349,2.2463,2.249,2.2616,2.291,2.2923,2.3165,2.3692,2.3703,2.3858,2.419,2.419,2.419,2.419,2.419,2.419,2.419,2.419,2.419,2.419,2.419,2.419,2.419,2.419,2.419,2.4209,2.4303,2.4537,2.484,2.5084,2.5219,2.5308,2.5308,2.5308,2.5308,2.5308,2.5308,2.5308,2.5308,2.5308,2.5308,2.5308,2.5308,2.5308,2.5308,2.5308,2.5308,2.5308,2.5308,2.5308,2.5308,2.5308,2.5308,2.5308,2.5308,2.5308,2.5308,2.5308,2.5308,2.5308,2.5308,2.5308,2.5308,2.5731,2.6173,2.6563,2.7448,2.8165,2.8549,2.9352,2.9833,2.9833,3.0192,3.0404,3.0404,3.0525,3.0603,3.0603,3.0807,3.0898,3.0898,3.0898,3.0898,3.0898,3.0898,3.0898,3.0898,3.0898,3.0898,3.0898,3.0898,3.0898,3.0898,3.0898,3.0898,3.0937,3.1309,3.165,3.2079]}]]